[[{"header":{"parameterUnit":"m.s-1","parameterCategory":1,"la1":30.6,"la2":29.2853,"lo1":-89.7004,"lo2":-87.6739,"dy":0.0162,"dx":0.0183,"nx":112,"ny":82,"refTime":"2024-06-25T06:00:00:Z","depth":0,"parameterNumber":2,"parameterNumberName":"U-component_of_WINDS"},"data":[0.0,0.0,0.0,0.0,0.0,0.0,0.0,0.0,0.0,0.0,0.0,0.0,0.0,0.0,0.0,0.0,0.0,0.0,0.0,0.0,0.0,0.0,0.0,0.0,0.0,0.0,0.0,0.0,0.0,0.0,0.0,0.0,0.0,0.0,0.0,0.0,0.0,0.0,0.0,0.0,0.0,0.0,0.0,0.0,0.0,0.0,0.0,0.0,0.0,0.0,0.0,0.0,0.0,0.0,0.0,0.0,0.0,0.0,0.0,0.0,0.0,0.0,0.0,0.0,0.0,0.0,0.0,0.0,0.0,0.0,0.0,0.0,0.0,0.0,0.0,0.0,0.0,0.0,0.0,0.0,0.0,0.0,0.0,0.0,0.0,0.0,0.0,0.0,0.0,0.0,-2.1514,-2.1787,-2.2431,-2.2957,-2.3216,-2.242,-2.1333,-1.9982,0.0,0.0,0.0,0.0,0.0,0.0,0.0,0.0,0.0,0.0,0.0,0.0,0.0,0.0,0.0,0.0,0.0,0.0,0.0,0.0,0.0,0.0,0.0,0.0,0.0,0.0,0.0,0.0,0.0,0.0,0.0,0.0,0.0,0.0,0.0,0.0,0.0,0.0,0.0,0.0,0.0,0.0,0.0,0.0,0.0,0.0,0.0,0.0,0.0,0.0,0.0,0.0,0.0,0.0,0.0,0.0,0.0,0.0,0.0,0.0,0.0,0.0,0.0,0.0,0.0,0.0,0.0,0.0,0.0,0.0,0.0,0.0,0.0,0.0,0.0,0.0,0.0,0.0,0.0,0.0,0.0,0.0,0.0,0.0,0.0,0.0,0.0,0.0,0.0,0.0,0.0,0.0,0.0,0.0,0.0,0.0,0.0,0.0,0.0,0.0,0.0,0.0,0.0,0.0,-2.1936,-2.3148,-2.34,-2.3084,-2.2221,-2.1988,-2.1055,-1.9022,0.0,0.0,0.0,0.0,0.0,0.0,0.0,0.0,0.0,0.0,0.0,0.0,0.0,0.0,0.0,0.0,0.0,0.0,0.0,0.0,0.0,0.0,0.0,0.0,0.0,0.0,0.0,0.0,0.0,0.0,0.0,0.0,0.0,0.0,0.0,0.0,0.0,0.0,0.0,0.0,0.0,0.0,0.0,0.0,0.0,0.0,0.0,0.0,0.0,0.0,0.0,0.0,0.0,0.0,0.0,0.0,0.0,0.0,0.0,0.0,0.0,0.0,0.0,0.0,0.0,0.0,0.0,0.0,0.0,0.0,0.0,0.0,0.0,0.0,0.0,0.0,0.0,0.0,0.0,0.0,0.0,0.0,0.0,0.0,0.0,0.0,0.0,0.0,0.0,0.0,0.0,0.0,0.0,0.0,0.0,0.0,0.0,0.0,0.0,0.0,0.0,0.0,0.0,-2.2049,-2.2562,-2.3505,-2.3653,-2.3377,-2.2498,-2.2175,-2.1194,-1.9354,-1.8087,0.0,0.0,0.0,0.0,0.0,0.0,0.0,0.0,0.0,0.0,0.0,0.0,0.0,0.0,0.0,0.0,0.0,0.0,0.0,0.0,0.0,0.0,0.0,0.0,0.0,0.0,0.0,0.0,0.0,0.0,0.0,0.0,0.0,0.0,0.0,0.0,0.0,0.0,0.0,0.0,0.0,0.0,0.0,0.0,0.0,0.0,0.0,0.0,0.0,0.0,0.0,0.0,0.0,0.0,0.0,0.0,0.0,0.0,0.0,0.0,0.0,0.0,0.0,0.0,0.0,0.0,0.0,0.0,0.0,0.0,0.0,0.0,0.0,0.0,0.0,0.0,0.0,0.0,0.0,0.0,0.0,0.0,0.0,0.0,0.0,0.0,0.0,0.0,0.0,0.0,0.0,0.0,0.0,0.0,0.0,0.0,0.0,0.0,0.0,0.0,0.0,0.0,-2.2821,-2.3182,-2.3593,-2.3653,-2.3421,-2.2844,-2.214,-2.1089,-1.9655,-1.7879,0.0,0.0,0.0,0.0,0.0,0.0,0.0,0.0,0.0,0.0,0.0,0.0,0.0,0.0,0.0,0.0,0.0,0.0,0.0,0.0,0.0,0.0,0.0,0.0,0.0,0.0,0.0,0.0,0.0,0.0,0.0,0.0,0.0,0.0,0.0,0.0,0.0,0.0,0.0,0.0,0.0,0.0,0.0,0.0,0.0,0.0,0.0,0.0,0.0,0.0,0.0,0.0,0.0,0.0,0.0,0.0,0.0,0.0,0.0,0.0,0.0,0.0,0.0,0.0,0.0,0.0,0.0,0.0,0.0,0.0,0.0,0.0,0.0,0.0,0.0,0.0,0.0,0.0,0.0,0.0,0.0,0.0,0.0,0.0,0.0,0.0,0.0,0.0,0.0,0.0,0.0,0.0,0.0,0.0,0.0,0.0,0.0,0.0,0.0,0.0,0.0,0.0,-2.2942,-2.3736,-2.3782,-2.3392,-2.2979,-2.2558,-2.1333,-2.0192,-1.9211,-1.7106,0.0,0.0,0.0,0.0,0.0,0.0,0.0,0.0,0.0,0.0,0.0,0.0,0.0,0.0,0.0,0.0,0.0,0.0,0.0,0.0,0.0,0.0,0.0,0.0,0.0,0.0,0.0,0.0,0.0,0.0,0.0,0.0,0.0,0.0,0.0,0.0,0.0,0.0,0.0,0.0,0.0,0.0,0.0,0.0,0.0,0.0,0.0,0.0,0.0,0.0,0.0,0.0,0.0,0.0,0.0,0.0,0.0,0.0,0.0,0.0,0.0,0.0,0.0,0.0,0.0,0.0,0.0,0.0,0.0,0.0,0.0,0.0,0.0,0.0,0.0,0.0,0.0,0.0,0.0,0.0,0.0,0.0,0.0,0.0,0.0,0.0,0.0,0.0,0.0,0.0,0.0,0.0,0.0,0.0,0.0,0.0,0.0,0.0,0.0,0.0,0.0,0.0,-2.2499,-2.3203,0.0,-2.3157,-2.2965,-2.2109,-2.1619,-2.0696,-1.9178,0.0,0.0,0.0,0.0,0.0,0.0,0.0,0.0,0.0,0.0,0.0,0.0,0.0,0.0,0.0,0.0,0.0,0.0,0.0,0.0,0.0,0.0,0.0,0.0,0.0,0.0,0.0,0.0,0.0,0.0,0.0,0.0,0.0,0.0,0.0,0.0,0.0,0.0,0.0,0.0,0.0,0.0,0.0,0.0,0.0,0.0,0.0,0.0,0.0,0.0,0.0,0.0,0.0,0.0,0.0,0.0,0.0,0.0,0.0,0.0,0.0,0.0,0.0,0.0,0.0,0.0,0.0,0.0,0.0,0.0,0.0,0.0,0.0,0.0,0.0,0.0,0.0,0.0,0.0,0.0,0.0,0.0,0.0,0.0,0.0,0.0,0.0,0.0,0.0,0.0,0.0,0.0,0.0,0.0,0.0,0.0,0.0,0.0,0.0,0.0,0.0,0.0,-2.1079,-2.2289,-2.2974,0.0,-2.2785,-2.2694,-2.1996,-2.1246,-2.028,-1.8972,0.0,0.0,0.0,0.0,0.0,0.0,0.0,0.0,0.0,0.0,0.0,0.0,0.0,0.0,0.0,0.0,0.0,0.0,0.0,0.0,0.0,0.0,0.0,0.0,0.0,0.0,0.0,0.0,0.0,0.0,0.0,0.0,0.0,0.0,0.0,0.0,0.0,0.0,0.0,0.0,0.0,0.0,0.0,0.0,0.0,0.0,0.0,0.0,0.0,0.0,0.0,0.0,0.0,0.0,0.0,0.0,0.0,0.0,0.0,0.0,0.0,0.0,0.0,0.0,0.0,0.0,0.0,0.0,0.0,0.0,0.0,0.0,0.0,0.0,0.0,0.0,0.0,0.0,0.0,0.0,0.0,0.0,0.0,0.0,0.0,0.0,0.0,0.0,0.0,0.0,0.0,0.0,0.0,0.0,0.0,0.0,0.0,0.0,0.0,0.0,0.0,0.0,-2.1094,-2.2435,-2.3231,-2.274,-2.2296,-2.2044,-2.2184,-2.0126,-1.8721,0.0,0.0,0.0,0.0,0.0,0.0,0.0,0.0,0.0,0.0,0.0,0.0,0.0,0.0,0.0,0.0,0.0,0.0,0.0,0.0,0.0,0.0,0.0,0.0,0.0,0.0,0.0,0.0,0.0,0.0,0.0,0.0,0.0,0.0,0.0,0.0,0.0,0.0,0.0,0.0,0.0,0.0,0.0,0.0,0.0,0.0,0.0,0.0,0.0,0.0,0.0,0.0,0.0,0.0,0.0,0.0,0.0,0.0,0.0,0.0,0.0,0.0,0.0,0.0,0.0,0.0,0.0,0.0,0.0,0.0,0.0,0.0,0.0,0.0,0.0,0.0,0.0,0.0,0.0,0.0,0.0,0.0,0.0,0.0,0.0,0.0,0.0,0.0,0.0,0.0,0.0,0.0,0.0,0.0,0.0,0.0,0.0,0.0,0.0,0.0,0.0,0.0,0.0,-2.0792,-2.2048,-2.2603,-2.1874,-2.1983,-2.1996,-2.1664,-2.0408,-1.9265,-1.8332,0.0,0.0,0.0,0.0,0.0,0.0,0.0,0.0,0.0,0.0,0.0,0.0,0.0,0.0,0.0,0.0,0.0,0.0,0.0,0.0,0.0,0.0,0.0,0.0,0.0,0.0,0.0,0.0,0.0,0.0,0.0,0.0,0.0,0.0,0.0,0.0,0.0,0.0,0.0,0.0,0.0,0.0,0.0,0.0,0.0,0.0,0.0,0.0,0.0,0.0,0.0,0.0,0.0,0.0,0.0,0.0,0.0,0.0,0.0,0.0,0.0,0.0,0.0,0.0,0.0,0.0,0.0,0.0,0.0,0.0,0.0,0.0,0.0,0.0,0.0,0.0,0.0,0.0,0.0,0.0,0.0,0.0,0.0,0.0,0.0,0.0,0.0,0.0,0.0,0.0,0.0,0.0,0.0,0.0,0.0,0.0,0.0,0.0,0.0,0.0,0.0,0.0,-2.0624,-2.1755,-2.2203,-2.1471,-2.1712,-2.1698,-2.1215,-2.0104,-1.9002,-1.8013,0.0,0.0,0.0,0.0,0.0,0.0,0.0,0.0,0.0,0.0,0.0,0.0,0.0,0.0,0.0,0.0,0.0,0.0,0.0,0.0,0.0,0.0,0.0,0.0,0.0,0.0,0.0,0.0,0.0,0.0,0.0,0.0,0.0,0.0,0.0,0.0,0.0,0.0,0.0,0.0,0.0,0.0,0.0,0.0,0.0,0.0,0.0,0.0,0.0,0.0,0.0,0.0,0.0,0.0,0.0,0.0,0.0,0.0,0.0,0.0,0.0,0.0,0.0,0.0,0.0,0.0,0.0,0.0,0.0,0.0,0.0,0.0,0.0,0.0,0.0,0.0,0.0,0.0,0.0,0.0,0.0,0.0,0.0,0.0,0.0,0.0,0.0,0.0,0.0,0.0,0.0,0.0,0.0,0.0,0.0,0.0,0.0,0.0,0.0,0.0,0.0,0.0,-2.054,-2.149,-2.1866,-2.139,-2.1239,-2.1054,-2.0686,-1.9331,-1.8201,-1.7467,0.0,0.0,0.0,0.0,0.0,0.0,0.0,0.0,0.0,0.0,0.0,0.0,0.0,0.0,0.0,0.0,0.0,0.0,0.0,0.0,0.0,0.0,0.0,0.0,0.0,0.0,0.0,0.0,0.0,0.0,0.0,0.0,0.0,0.0,0.0,0.0,0.0,0.0,0.0,0.0,0.0,0.0,0.0,0.0,0.0,0.0,0.0,0.0,0.0,0.0,0.0,0.0,0.0,0.0,0.0,0.0,0.0,0.0,0.0,0.0,-2.2133,0.0,0.0,0.0,0.0,0.0,0.0,0.0,0.0,0.0,0.0,0.0,0.0,0.0,0.0,0.0,0.0,0.0,0.0,0.0,0.0,0.0,0.0,0.0,0.0,0.0,0.0,0.0,0.0,0.0,0.0,0.0,0.0,0.0,0.0,0.0,0.0,0.0,0.0,0.0,0.0,0.0,-2.0331,-2.0678,-2.0825,-2.0718,-2.002,-1.9542,-1.9496,-1.8669,-1.7681,-1.6679,-1.5477,0.0,0.0,0.0,0.0,0.0,0.0,0.0,0.0,0.0,0.0,0.0,0.0,0.0,0.0,0.0,0.0,0.0,0.0,0.0,0.0,0.0,0.0,0.0,0.0,0.0,0.0,0.0,0.0,0.0,0.0,0.0,0.0,0.0,0.0,0.0,0.0,0.0,0.0,0.0,0.0,0.0,0.0,0.0,0.0,0.0,0.0,0.0,0.0,0.0,0.0,0.0,0.0,0.0,0.0,0.0,0.0,0.0,0.0,0.0,0.0,-2.2868,0.0,0.0,0.0,0.0,0.0,0.0,0.0,0.0,0.0,0.0,0.0,0.0,0.0,0.0,0.0,0.0,0.0,0.0,0.0,0.0,0.0,0.0,0.0,0.0,0.0,0.0,0.0,0.0,0.0,0.0,0.0,0.0,0.0,0.0,0.0,0.0,0.0,0.0,0.0,0.0,-2.0955,-2.0747,-2.0435,-2.0281,-1.9561,-1.8943,-1.8621,-1.7962,-1.7186,-1.6169,-1.516,0.0,0.0,0.0,0.0,0.0,0.0,0.0,0.0,0.0,0.0,0.0,0.0,0.0,0.0,0.0,0.0,0.0,0.0,0.0,0.0,0.0,0.0,0.0,0.0,0.0,0.0,0.0,0.0,0.0,0.0,0.0,0.0,0.0,0.0,0.0,0.0,0.0,0.0,0.0,0.0,0.0,0.0,0.0,0.0,0.0,0.0,0.0,0.0,0.0,0.0,0.0,0.0,0.0,-2.2972,-2.2972,-2.2972,-2.2972,-2.3143,-2.3452,-2.308,-2.3238,-2.3646,0.0,0.0,0.0,0.0,0.0,0.0,0.0,0.0,0.0,0.0,0.0,0.0,0.0,0.0,0.0,0.0,0.0,0.0,0.0,0.0,0.0,0.0,0.0,0.0,0.0,-2.2757,-2.2426,0.0,0.0,0.0,0.0,0.0,0.0,0.0,0.0,0.0,0.0,0.0,0.0,-2.1498,-2.083,-2.0134,-1.9887,-1.9081,-1.8371,-1.7784,-1.7322,-1.6671,-1.574,-1.4809,-1.4078,0.0,0.0,0.0,0.0,0.0,0.0,0.0,0.0,0.0,0.0,0.0,0.0,0.0,0.0,0.0,0.0,0.0,0.0,0.0,0.0,0.0,0.0,0.0,0.0,0.0,0.0,0.0,0.0,0.0,0.0,0.0,0.0,-2.0269,-2.0048,0.0,0.0,0.0,0.0,0.0,0.0,0.0,0.0,0.0,0.0,0.0,0.0,0.0,-2.3115,-2.308,-2.2844,-2.275,-2.275,-2.2512,-2.2399,-2.2399,-2.2399,-2.2446,-2.2485,-2.2446,0.0,-2.3655,-2.3249,0.0,0.0,0.0,0.0,0.0,0.0,0.0,0.0,0.0,0.0,0.0,0.0,0.0,0.0,0.0,0.0,0.0,0.0,0.0,0.0,0.0,0.0,-2.264,-2.2101,-2.1974,-2.1923,0.0,-2.1383,-2.0712,-1.9792,-2.0055,0.0,0.0,0.0,0.0,0.0,0.0,0.0,-2.0685,-1.9884,-1.929,-1.9231,-1.7683,-1.6623,-1.6536,-1.6605,-1.6254,-1.5169,-1.4709,-1.4174,-1.354,-1.2589,0.0,0.0,0.0,0.0,0.0,0.0,0.0,0.0,0.0,0.0,0.0,0.0,0.0,0.0,0.0,0.0,0.0,0.0,0.0,0.0,0.0,0.0,0.0,0.0,0.0,0.0,0.0,0.0,0.0,-2.0485,-2.144,-2.2213,-2.2716,-2.296,0.0,0.0,0.0,0.0,0.0,0.0,0.0,0.0,0.0,-2.3764,-2.4618,-2.4986,-2.4854,-2.4746,-2.4503,-2.4157,-2.4035,-2.3794,-2.3409,-2.3025,-2.2855,-2.284,-2.2455,-2.2532,-2.2917,-2.3148,-2.2902,-2.2415,0.0,0.0,0.0,0.0,-2.2107,-2.2166,-2.1685,-2.1593,0.0,-2.0682,0.0,0.0,0.0,0.0,0.0,0.0,0.0,0.0,0.0,0.0,0.0,-2.248,-2.2217,-2.2044,-2.2044,-2.1629,-2.1145,0.0,-2.0754,-2.071,-2.0272,0.0,0.0,0.0,0.0,-2.1175,-2.1398,-2.0348,-1.9462,-1.9274,-1.8042,-1.6995,-1.6508,-1.6532,-1.6037,-1.4678,-1.4275,-1.3693,-1.2795,-1.2371,-1.2224,0.0,0.0,0.0,0.0,0.0,0.0,0.0,0.0,0.0,0.0,0.0,0.0,0.0,0.0,0.0,0.0,0.0,0.0,0.0,0.0,0.0,0.0,0.0,0.0,0.0,0.0,0.0,0.0,-2.196,-2.2508,-2.3868,-2.3998,-2.3947,0.0,0.0,0.0,0.0,0.0,0.0,-2.3403,-2.4514,-2.502,-2.4883,-2.597,-2.6452,-2.6229,-2.6045,-2.5737,-2.5318,-2.4964,-2.4533,-2.4025,-2.3348,-2.304,-2.3009,-2.2501,-2.2286,-2.2332,-2.284,-2.2748,-2.2363,-2.304,-2.2847,-2.2171,-2.2368,-2.2295,-2.2012,-2.1688,-2.1583,-2.1499,-2.0872,0.0,-2.0576,-2.0668,0.0,0.0,0.0,0.0,-2.1835,-2.226,-2.2388,-2.2374,-2.2466,-2.2249,-2.1996,-2.1996,-2.1664,-2.1431,0.0,-2.1314,-2.1024,-2.0864,0.0,0.0,0.0,0.0,-2.1347,-2.1771,-2.063,-1.9651,-1.93,-1.8348,-1.7495,-1.6764,-1.6609,-1.5902,-1.4471,-1.3839,-1.316,-1.2343,-1.2192,-1.2192,-1.2279,0.0,0.0,0.0,0.0,0.0,0.0,0.0,0.0,0.0,0.0,0.0,0.0,0.0,0.0,0.0,0.0,0.0,0.0,0.0,0.0,0.0,0.0,0.0,0.0,0.0,0.0,0.0,0.0,0.0,-2.4311,-2.458,0.0,0.0,0.0,0.0,-2.4476,-2.475,-2.5012,-2.541,-2.6244,-2.6536,-2.6122,-2.6289,-2.638,-2.638,-2.5703,-2.5349,-2.5302,-2.401,-2.3379,-2.3332,-2.2655,-2.2332,-2.2332,-2.2301,-2.2286,-2.2286,-2.2332,-2.2317,-2.2363,-2.304,-2.2674,-2.1764,-2.1968,-2.1653,-2.1061,-2.0152,-2.0108,-2.0399,-1.9918,-1.9537,-1.9517,-2.0731,-2.0895,0.0,0.0,-2.1541,-2.1908,-2.1554,-2.1471,-2.1471,-2.1458,-2.1471,-2.1423,-2.1423,-2.1423,-2.141,0.0,-2.1369,-2.1321,-2.1197,0.0,-2.1342,-2.1224,-2.1321,-2.1272,-2.0894,-2.0038,-1.9251,-1.8896,-1.7971,-1.7302,-1.7034,-1.6574,-1.587,-1.4743,-1.3701,-1.2986,-1.2579,-1.2224,-1.2178,-1.2579,-1.2695,0.0,0.0,0.0,0.0,0.0,0.0,0.0,0.0,0.0,0.0,0.0,0.0,0.0,0.0,0.0,0.0,0.0,0.0,0.0,0.0,0.0,0.0,0.0,0.0,0.0,0.0,0.0,0.0,-2.5726,-2.5737,0.0,-2.62,-2.5502,-2.5376,-2.6214,-2.5811,-2.5599,-2.5845,-2.6611,-2.6995,-2.6826,-2.7395,-2.7688,-2.7688,-2.7442,-2.6872,-2.5995,-2.5518,-2.481,-2.3933,-2.324,-2.2932,-2.2917,-2.2486,-2.2286,-2.2286,-2.2286,-2.2548,-2.3009,-2.3686,-2.3549,-2.2879,-2.2644,-2.2233,-2.1705,-2.1033,-2.0893,-2.095,-2.0397,-2.0125,-2.0093,-2.0589,-2.0928,-2.1153,-2.128,-2.1452,-2.1472,-2.0948,-2.0806,-2.0711,-2.0392,-2.0311,-2.0419,-2.0725,-2.0806,-2.0819,-2.0766,-2.1104,-2.1313,-2.1019,-2.0957,-2.0921,-2.0573,-2.0586,-2.0573,-2.0422,-1.9889,-1.9459,-1.9318,-1.8788,-1.8073,-1.7157,-1.6899,-1.6126,-1.4612,-1.3887,-1.335,-1.2899,-1.2483,-1.233,-1.2474,-1.2353,-1.2503,0.0,0.0,0.0,0.0,0.0,0.0,0.0,0.0,0.0,0.0,0.0,0.0,0.0,0.0,0.0,0.0,0.0,0.0,0.0,0.0,0.0,0.0,0.0,0.0,0.0,0.0,-2.563,-2.6824,-2.6731,-2.6849,-2.7616,-2.68,-2.654,-2.7216,-2.6624,-2.6305,-2.6459,-2.7209,-2.7624,-2.7624,-2.7902,-2.8057,-2.8057,-2.7827,-2.7257,-2.638,-2.6149,-2.5549,-2.4625,-2.3948,-2.364,-2.3609,-2.3163,-2.2963,-2.2963,-2.2963,-2.324,-2.3656,-2.3707,-2.3314,-2.2697,-2.2453,-2.1917,-2.1306,-2.0934,-2.084,-2.0799,-2.0549,-2.0359,-2.0238,-2.0441,-2.0765,-2.1077,-2.1077,-2.126,-2.1287,-2.0644,-2.0495,-2.0346,-1.9836,-1.9849,-2.008,-2.04,-2.055,-2.0601,-2.0555,-2.0894,-2.1055,-2.056,-2.056,-2.056,-2.0422,-2.022,-2.0067,-2.0067,-1.9592,-1.9226,-1.9081,-1.8709,-1.8074,-1.7142,-1.6899,-1.6191,-1.4636,-1.424,-1.3795,-1.3208,-1.2897,-1.2769,-1.2769,-1.2551,-1.2772,-1.3579,0.0,0.0,0.0,0.0,0.0,0.0,0.0,0.0,0.0,0.0,0.0,0.0,0.0,0.0,0.0,0.0,0.0,0.0,0.0,0.0,0.0,0.0,0.0,-2.6161,-2.5788,-2.6,-2.7549,-2.7481,-2.7632,-2.834,-2.7598,-2.7179,-2.747,-2.7224,-2.7161,-2.7426,-2.8027,-2.8365,-2.8381,-2.7719,-2.7365,-2.7365,-2.6672,-2.6334,-2.6349,-2.5641,-2.5302,-2.5272,-2.461,-2.4302,-2.4302,-2.4302,-2.4302,-2.4302,-2.4302,-2.4302,-2.4158,-2.3058,-2.1975,-2.1092,-2.1237,-2.0667,-1.9754,-1.9754,-1.9741,-1.9809,-2.0319,-2.0161,-1.9822,-2.0319,-2.0495,-2.0522,-2.0522,-2.0928,-2.1287,-2.0644,-2.0495,-2.0346,-1.9791,-2.0062,-2.0468,-2.0481,-2.0641,-2.0733,-2.0746,-2.0746,-2.0547,-1.9901,-2.0016,-2.0321,-2.066,-2.0207,0.0,-1.9747,-1.9097,-1.8525,-1.8139,-1.7678,-1.7279,-1.7,-1.658,-1.5878,-1.4861,-1.4676,-1.4287,-1.3551,-1.3518,-1.3494,-1.3474,-1.3332,-1.3459,-1.3882,0.0,0.0,0.0,0.0,0.0,0.0,0.0,0.0,0.0,0.0,0.0,0.0,0.0,0.0,0.0,0.0,0.0,0.0,0.0,0.0,0.0,-2.6389,-2.6756,-2.7466,-2.7112,-2.7125,-2.811,-2.8151,-2.8357,-2.9069,-2.86,-2.8575,-2.9355,-2.8604,-2.8248,-2.8622,-2.7937,-2.7563,-2.7673,-2.7011,-2.6657,-2.6657,-2.6441,-2.6087,-2.561,-2.541,-2.5072,-2.4579,-2.4394,-2.4302,-2.4302,-2.4302,-2.4302,-2.4302,-2.4302,-2.4094,-2.3752,-2.3443,-2.2964,-2.2352,-2.2045,-2.1509,-2.0948,-2.0948,-2.0663,-2.0278,-2.0441,-2.0386,-2.0292,-2.0441,-2.0793,-2.1131,-2.1131,-2.1287,-2.1287,-2.0644,-2.0495,-2.0286,-1.9375,-1.9317,-1.9436,-1.9608,-1.9671,-1.9707,-1.9659,-1.9798,-1.9862,-1.9708,-1.972,-1.9656,-1.9279,-1.9028,0.0,-1.8614,-1.8093,-1.7831,-1.8084,-1.7678,-1.7157,-1.6539,-1.6357,-1.5796,-1.4683,-1.4522,-1.4466,-1.4234,-1.3942,-1.3689,-1.3506,-1.3786,-1.3929,0.0,0.0,0.0,0.0,0.0,0.0,0.0,0.0,0.0,0.0,0.0,0.0,0.0,0.0,0.0,0.0,0.0,0.0,0.0,0.0,0.0,0.0,-2.6923,-2.7484,-2.8638,-2.8209,-2.8009,-2.8721,-2.8804,-2.9085,-2.9798,-2.9433,-2.9312,-2.9646,-2.8693,-2.8186,-2.8465,-2.7334,-2.6977,-2.7605,-2.678,-2.6473,-2.675,-2.6166,-2.5703,-2.5318,-2.5025,-2.4687,-2.4302,-2.4302,-2.4302,0.0,-2.4302,-2.4302,-2.4261,-2.4094,-2.3867,0.0,0.0,0.0,0.0,0.0,-2.1664,-2.1423,-2.1423,-2.1192,-2.086,-2.086,-2.086,-2.086,-2.086,-2.0994,-2.1166,-2.1166,-2.1019,-2.0739,-2.0144,-1.9998,-1.9806,-1.8936,-1.8929,-1.9154,-1.9272,-1.9294,-1.9257,-1.9218,-1.9081,0.0,-1.8975,-1.9093,-1.9081,-1.8697,-1.8213,-1.7897,-1.7886,-1.7213,-1.6888,-1.7179,-1.6765,-1.6312,-1.5853,-1.5853,0.0,0.0,0.0,-1.4709,-1.4492,-1.4307,0.0,0.0,0.0,0.0,0.0,0.0,0.0,0.0,-1.506,-1.5726,0.0,0.0,0.0,0.0,0.0,0.0,0.0,0.0,0.0,0.0,0.0,0.0,0.0,0.0,0.0,0.0,-2.7326,-2.8094,-2.9609,-2.9065,-2.8754,-2.945,-2.9533,-2.9798,-3.046,-3.0048,-2.9583,-2.913,-2.8123,-2.7627,-2.7796,0.0,0.0,0.0,0.0,-2.6459,-2.707,-2.5952,-2.5382,-2.5382,-2.4748,-2.4456,-2.4533,-2.4379,-2.4348,-2.4425,-2.4333,-2.4261,-2.4177,-2.3767,-2.3551,-2.3377,-2.2979,-2.254,-2.2044,-2.1568,-2.1423,-2.1423,-2.1423,0.0,0.0,-2.1423,-2.1423,-2.1423,-2.1423,-2.1166,-2.0858,-2.0759,-2.051,-2.0105,-1.953,-1.9353,-1.9226,-1.8634,-1.8887,-1.9255,-1.9193,-1.9142,-1.9081,-1.9081,-1.856,-1.8084,-1.803,-1.829,-1.8483,-1.8501,-1.7589,-1.7056,-1.7357,-1.6472,-1.5816,-1.5874,0.0,0.0,-1.5167,-1.5167,-1.501,-1.4515,-1.4902,-1.4955,-1.4544,-1.4478,-1.4478,-1.4478,-1.4628,-1.4687,-1.4715,-1.4902,-1.5039,-1.5196,-1.544,-1.6164,0.0,0.0,0.0,0.0,0.0,0.0,0.0,0.0,0.0,0.0,0.0,0.0,0.0,0.0,0.0,-2.7725,-2.8685,-2.9437,-2.9743,-2.9443,-2.9483,-3.0212,-3.0311,-3.0361,-3.051,-2.9881,-2.9733,-3.0319,-2.8833,-2.8223,-2.9003,-2.7535,-2.6831,-2.72,-2.6441,-2.6077,-2.6213,-2.6062,-2.603,-2.6015,0.0,0.0,-2.5903,-2.4795,-2.461,-2.5087,-2.4548,-2.4094,-2.3724,-2.3653,-2.3157,-2.2449,-2.2356,-2.203,-2.1568,-2.1423,-2.1423,-2.1423,-2.1423,-2.1423,-2.1423,-2.1423,-2.1423,-2.1423,-2.1423,-2.1375,0.0,-2.0623,-2.0422,-2.0245,-1.9826,-1.9686,-1.961,-1.9152,-1.915,-1.908,-1.8448,-1.8328,-1.8302,-1.8302,-1.8193,-1.803,-1.781,-1.7678,-1.7545,-1.7379,-1.6821,-1.6368,-1.6265,-1.569,-1.5468,-1.5874,-1.5468,-1.5167,-1.5167,-1.5167,-1.501,-1.4515,-1.4565,-1.4588,-1.4514,-1.4514,-1.4514,-1.4514,-1.4505,-1.4591,-1.4715,-1.4715,-1.4843,-1.5029,-1.5206,-1.5719,0.0,0.0,0.0,0.0,0.0,0.0,0.0,0.0,0.0,0.0,0.0,-2.5379,-2.6248,0.0,-2.8009,-2.8659,-2.9247,-2.9732,-3.0099,-2.9729,-2.9549,-2.993,-2.9963,-2.9963,-2.9963,-2.9963,-2.9963,-3.0045,-2.8807,-2.8218,-2.8701,-2.7087,-2.6567,-2.7278,-2.6708,-2.6574,-2.6907,-2.6716,-2.6595,-2.6595,-2.5955,-2.5847,-2.6092,-2.4908,-2.4532,-2.4805,-2.3966,-2.3465,-2.3246,-2.2979,-2.2434,-2.1712,-2.1746,-2.1664,-2.1423,-2.1423,-2.1423,-2.1423,-2.1423,-2.1423,-2.1375,-2.1326,-2.1118,-2.0894,-2.0795,-2.0434,-1.9965,-1.9619,-1.9423,-1.9174,-1.9028,-1.8975,-1.8922,-1.8709,-1.8667,-1.856,-1.8193,-1.7799,-1.7579,-1.7579,-1.7234,-1.6955,-1.6842,-1.6549,-1.6425,-1.6729,-1.6208,-1.569,-1.5584,-1.5128,-1.4961,-1.5186,-1.502,-1.4843,-1.4843,-1.4843,-1.4734,-1.4506,-1.4515,-1.4515,-1.4515,-1.4515,-1.4515,-1.4515,-1.4515,-1.4506,-1.4616,-1.4616,-1.4675,-1.4843,-1.4902,-1.542,0.0,0.0,0.0,0.0,0.0,0.0,0.0,0.0,-2.4649,-2.4612,-2.5427,-2.6463,-2.7363,-2.8231,-2.8975,-2.9357,-2.9533,-2.9781,-3.0228,-2.9665,-2.9152,-2.9019,-2.9118,-2.9268,-2.94,-2.9831,-2.998,-2.9648,-2.8763,-2.8227,-2.8221,-2.6903,-2.6564,-2.7595,-2.7165,-2.7199,-2.7775,-2.7376,-2.7152,-2.7152,-2.6376,-2.6072,-2.6178,-2.4951,-2.4381,-2.4336,-2.3163,-2.2709,-2.2663,-2.217,-2.1664,-2.118,-2.1277,-2.1326,-2.1326,-2.1375,-2.1375,-2.1375,-2.1375,-2.1326,-2.1277,-2.1068,-2.0696,-2.032,-2.0131,-1.9451,-1.8821,-1.8661,-1.8363,-1.8127,-1.803,-1.803,-1.7975,-1.792,-1.7865,-1.7854,-1.7689,-1.7234,-1.6786,-1.6786,-1.6332,-1.5874,-1.5874,-1.5517,-1.5459,-1.6218,-1.5584,-1.5059,-1.5059,-1.4734,-1.4515,-1.4515,-1.4515,-1.4515,-1.4515,-1.4515,-1.4515,-1.4515,-1.4515,-1.4446,-1.4327,-1.4327,-1.4258,-1.413,-1.4139,-1.4198,-1.4327,-1.4327,-1.4437,-1.4656,-1.4656,-1.5128,-2.0112,-2.0992,-2.1504,-2.199,-2.2276,-2.2549,0.0,0.0,-2.5446,-2.5611,-2.6493,-2.7446,-2.8147,-2.886,-2.9357,-2.94,-2.9963,-3.0195,-2.9615,-2.8936,-2.8296,-2.7632,-2.813,-2.8738,-2.935,-2.8936,-2.9118,-3.0311,-2.931,-2.8742,-2.8978,-2.8357,-2.7875,-2.761,-2.755,-2.755,-2.7625,-2.7665,-2.7735,-2.7685,-2.6634,-2.6406,-2.6923,-2.5063,-2.4318,-2.431,-2.2662,-2.1935,-2.1888,-2.1361,-2.1082,-2.1033,-2.1033,-2.1033,-2.1082,-2.1326,-2.1326,-2.1229,-2.1229,-2.1131,-2.0983,-2.0446,-2.0283,-2.0131,-1.9631,-1.9423,-1.9214,-1.8555,-1.8286,-1.8201,-1.7865,-1.7767,-1.7645,-1.7234,-1.7123,-1.6955,-1.6265,-1.6093,-1.6046,-1.6046,-1.5989,-1.5874,-1.5874,-1.5517,-1.5235,-1.5342,-1.4902,-1.4565,-1.4565,-1.4515,-1.4515,-1.4515,-1.4515,-1.4515,-1.4515,-1.4515,-1.4515,-1.4515,-1.4515,-1.4198,-1.364,-1.3631,-1.3321,-1.2757,-1.2696,-1.3009,-1.3631,-1.3631,-1.395,-1.4506,-1.4506,-1.4743,-1.9534,-2.0729,-2.1439,0.0,-2.2173,-2.2717,-2.295,-2.3819,-2.4587,-2.4572,-2.5492,-2.6608,-2.7696,-2.8624,-2.9411,0.0,-3.0311,-3.0261,-2.9516,-2.882,-2.8146,-2.74,-2.7582,-2.8025,-2.8738,-2.892,-2.94,-3.0444,-2.9793,-2.9267,-2.9104,-2.8591,-2.8061,-2.761,-2.7625,-2.7625,-2.7625,-2.7675,-2.7675,-2.7675,-2.7175,-2.714,-2.7312,-2.556,-2.4137,-2.2908,-2.1776,-2.1326,-2.1326,-2.1082,-2.0961,-2.0974,-2.0997,-2.0772,-2.0459,-2.097,-2.0921,-2.061,-2.061,-2.0396,-2.0003,-1.9734,-1.9359,-1.902,-1.8727,-1.8429,-1.8116,-1.7788,-1.7733,-1.7689,-1.749,-1.749,-1.7379,-1.6853,-1.6786,-1.6616,-1.6046,-1.57,-1.5459,-1.5459,-1.5245,-1.5079,-1.5079,-1.4902,-1.4784,-1.4784,-1.4625,-1.4515,-1.4515,-1.4515,-1.4515,-1.4515,-1.4139,-1.3941,-1.3941,-1.3571,-1.3321,-1.3321,-1.3321,-1.3199,-1.2948,-1.2948,-1.2765,-1.2512,-1.2512,-1.2634,-1.2948,-1.3321,-1.3631,-1.395,-1.4327,-1.4565,-1.9506,-2.0733,0.0,-2.1623,-2.2193,-2.2846,-2.2994,-2.357,-2.4081,-2.428,-2.5141,-2.6204,-2.738,-2.8379,-2.9255,-2.9922,-3.0004,-2.9799,-2.9098,-2.8444,-2.7838,-2.7383,-2.7317,-2.7682,-2.8572,-2.9118,-2.9633,-3.0234,-2.9984,-2.9528,-2.8919,-2.8496,-2.8061,-2.761,-2.7625,-2.7625,-2.7625,-2.7408,-2.7357,-2.7357,-2.7034,-2.6878,-2.6849,-2.518,-2.3478,-2.1783,-2.1199,-2.0947,-2.0947,-2.0947,-2.0812,-2.0612,-2.0636,-2.0258,-1.9798,-2.0271,-2.0207,-1.9927,-1.9927,-1.9631,-1.9226,-1.8963,-1.8578,-1.819,-1.7941,-1.759,-1.7278,-1.7278,-1.7211,-1.7099,-1.7099,-1.6987,-1.6807,-1.6343,-1.6218,-1.6114,-1.5594,-1.5245,-1.501,-1.501,-1.4734,-1.4446,-1.4258,-1.4198,-1.4139,-1.401,-1.395,-1.407,-1.4446,-1.4515,-1.4446,-1.4258,-1.3821,-1.345,-1.326,-1.2757,-1.2512,-1.2512,-1.2512,-1.2451,-1.2205,-1.2205,-1.2143,-1.1965,-1.1965,-1.2143,-1.2512,-1.3009,-1.3381,-1.3761,-1.4258,-1.4515,0.0,0.0,-2.1841,-2.2137,-2.2217,-2.2449,-2.3187,-2.3911,-2.4657,-2.5612,-2.6329,-2.6988,-2.7664,-2.8345,-2.8832,-2.8864,-2.8864,-2.8647,-2.8101,-2.7453,-2.7125,-2.728,-2.7317,-2.7864,0.0,-2.94,-2.951,-2.9789,-2.981,-2.9377,-2.84,-2.8304,-2.8061,-2.761,-2.7625,-2.7625,-2.7625,-2.7049,-2.6736,-2.6721,-2.5605,-2.5061,-2.5021,-2.3282,-2.2114,-2.1472,-2.0948,-2.0699,-2.0699,-2.0699,-2.0385,-1.985,-1.985,-1.95,-1.904,-1.904,-1.9133,-1.9226,-1.9226,-1.9133,-1.8934,-1.8321,-1.8147,-1.7995,-1.7479,-1.7334,-1.7278,-1.7278,-1.6987,-1.6637,-1.6637,-1.6275,-1.5816,-1.5342,-1.5235,-1.5118,-1.4625,-1.4515,-1.4506,-1.4506,-1.4506,-1.4258,-1.3631,-1.3511,-1.3321,-1.2634,-1.2573,-1.3009,-1.4327,-1.4515,-1.4258,-1.3571,-1.3511,-1.326,-1.2573,-1.2512,-1.2512,-1.2512,-1.2512,-1.2212,-1.1545,-1.1545,-1.124,-1.0688,-1.0681,-1.1296,-1.2512,-1.2512,-1.3199,-1.4446,-1.4506,-1.4515,-2.008,0.0,-2.1431,-2.1602,-2.2091,-2.2586,-2.3083,-2.3378,-2.3763,-2.4472,-2.4994,-2.5597,-2.655,-2.7371,-2.8123,-2.886,-2.8983,-2.8764,-2.8109,-2.7948,-2.775,-2.733,-2.8108,0.0,0.0,0.0,0.0,-3.0234,-2.9984,-2.9528,-2.8889,-2.8496,-2.8061,-2.761,-2.7625,-2.7625,-2.7625,-2.6982,-2.6683,-2.6669,-2.5551,-2.4764,-2.4354,-2.2989,-2.2085,-2.1472,-2.0948,-2.0699,-2.0699,-2.0699,-2.0599,-2.0334,-1.9965,-1.9448,-1.8934,-1.8536,-1.8224,-1.7963,-1.8375,-1.8224,-1.7865,-1.7645,-1.759,-1.7534,-1.7323,-1.7099,-1.6807,-1.6807,-1.6513,-1.6171,-1.6171,-1.6046,-1.5758,-1.5294,-1.5167,-1.5059,-1.4625,-1.4515,-1.4515,-1.4515,-1.4515,-1.4446,-1.4198,-1.3821,-1.326,-1.2573,-1.2512,-1.2634,-1.313,-1.3191,-1.307,-1.2887,-1.2458,-1.2097,-1.1849,-1.1476,-1.1233,-1.1233,-1.1233,-1.1115,-1.0933,-1.087,-1.0807,-1.0624,-1.0498,-1.0674,-1.1233,-1.1399,-1.1834,-1.2536,-1.3338,-1.364,-1.9512,-2.0459,-2.1188,-2.1215,-2.1841,-2.2555,-2.2994,-2.3216,-2.3436,-2.4051,-2.4457,-2.4948,-2.5799,-2.6693,-2.7618,-2.8673,-2.8911,-2.8886,-2.8533,-2.8428,-2.8312,-2.8058,-2.8853,-2.9516,0.0,0.0,0.0,-3.0208,-2.981,-2.9348,-2.8826,-2.8304,-2.7894,-2.7524,-2.7575,-2.7575,-2.7539,-2.6997,-2.6525,-2.6082,-2.4898,-2.4068,-2.3474,-2.2494,-2.1741,-2.1185,-2.0869,-2.0699,-2.0699,-2.0699,-2.0448,-2.0029,-1.9656,-1.9028,-1.8356,-1.7952,-1.759,-1.7334,-1.7689,-1.759,-1.7278,-1.7278,-1.7278,-1.7278,-1.7099,-1.6864,-1.657,-1.64,-1.5989,-1.5642,-1.5642,-1.5526,-1.5303,-1.501,-1.4951,-1.4843,-1.4565,-1.4515,-1.4446,-1.4198,-1.413,-1.401,-1.3519,-1.2903,-1.2343,-1.1903,-1.1841,-1.1965,-1.2451,-1.2512,-1.2389,-1.2151,-1.1787,-1.1421,-1.1178,-1.0807,-1.0624,-1.0624,-1.0624,-1.0624,-1.0624,-1.0624,-1.0624,-1.0624,-1.0498,-1.0555,-1.087,-1.1038,-1.1281,-1.1717,-1.2458,-1.2887,-1.8975,-2.0207,-2.1175,-2.0894,-2.1541,-2.2402,-2.2949,-2.3334,-2.3782,-2.4359,-2.4726,-2.5068,-2.5443,0.0,-2.7364,-2.8151,-2.86,-2.8951,-2.9296,-2.882,-2.8677,0.0,0.0,0.0,0.0,0.0,0.0,-2.9793,0.0,-2.8889,-2.8336,-2.7845,-2.7524,-2.7386,-2.7539,-2.7473,-2.735,-2.6841,-2.6028,-2.4935,-2.3781,-2.2936,-2.2387,-2.1786,-2.1198,-2.0699,-2.0699,-2.0699,-2.0649,-2.0649,-1.9978,-1.8987,-1.8987,-1.829,-1.7334,-1.7334,-1.7278,-1.7278,-1.7278,-1.7278,-1.7278,-1.7278,-1.7278,-1.7155,-1.6694,-1.657,-1.6457,-1.5989,-1.5526,-1.5177,-1.5177,-1.4843,-1.4515,-1.4515,-1.4515,-1.4515,-1.4515,-1.4515,-1.4327,-1.3631,-1.3442,-1.3017,-1.1732,-1.1052,-1.0624,-1.0624,-1.0624,-1.1052,-1.2266,-1.2389,-1.2151,-1.1545,-1.1421,-1.124,-1.0624,-1.0624,-1.0624,-1.0624,-1.0624,-1.0624,-1.0624,-1.0624,-1.0624,-1.0561,-1.0561,-1.0807,-1.124,-1.124,-1.1476,-1.1888,-1.195,-1.2205,-1.9515,-2.0818,-2.1629,-2.1348,-2.2156,-2.2949,-2.2558,-2.3009,-2.3595,-2.4078,-2.4441,-2.4831,-2.5594,-2.6471,0.0,-2.7914,-2.8576,0.0,-2.8688,-2.8944,0.0,-2.8918,0.0,-2.9772,-2.9968,-2.9941,0.0,0.0,-2.9212,-2.8889,-2.8463,-2.8008,-2.759,-2.7284,-2.7284,-2.7049,-2.6563,-2.5673,-2.4921,-2.4332,-2.3555,-2.2923,-2.2402,-2.1773,-2.1198,-2.0699,-2.0699,-2.0435,-2.0016,-2.0016,-1.9604,-1.8934,-1.8483,-1.8159,-1.7843,-1.7434,-1.7099,-1.6807,-1.6807,-1.6807,-1.6807,-1.6807,-1.6513,-1.6218,-1.6104,-1.5816,-1.5517,-1.541,-1.501,-1.4675,-1.4675,-1.4565,-1.4515,-1.4515,-1.4515,-1.4515,-1.4515,-1.4515,-1.4327,-1.3631,-1.307,-1.252,-1.167,-1.1365,-1.1115,-1.0688,-1.0624,-1.0744,-1.1052,-1.1108,-1.1052,-1.087,-1.0807,-1.0751,-1.0624,-1.0624,-1.0624,-1.0624,-1.0624,-1.0624,-1.0624,-1.0624,-1.0561,-1.0364,-1.0238,-1.0238,-1.0364,-1.011,-1.0174,-1.0541,-1.0905,-1.1094,-2.096,-2.1722,-2.2044,-2.2058,-2.2438,-2.2814,-2.2754,-2.3333,-2.3975,-2.4379,-2.4823,-2.5406,-2.6068,-2.6834,0.0,0.0,0.0,0.0,-2.92,-2.9499,-2.9691,0.0,-2.968,0.0,-3.007,-2.9853,-2.9572,0.0,-2.9028,-2.8654,-2.8255,-2.781,-2.7386,-2.7144,-2.7181,-2.6893,-2.6283,-2.5508,-2.4851,-2.4363,-2.3555,-2.2923,-2.2402,-2.1773,-2.103,-2.0334,0.0,-1.9965,-1.9448,-1.9448,-1.9133,-1.8536,-1.8027,-1.7644,-1.739,-1.7088,-1.6694,-1.6343,-1.6513,-1.6332,-1.6046,-1.6218,-1.6104,-1.5874,-1.5642,-1.541,-1.5177,-1.4951,-1.4616,-1.4267,-1.4267,-1.4267,-1.4258,-1.407,-1.407,-1.401,-1.3881,-1.37,-1.3329,-1.265,-1.1965,-1.1413,-1.1178,-1.0856,-1.0604,-1.0618,-1.0301,-1.0104,-1.004,-1.0364,-1.0624,-1.0624,-1.0624,-1.0624,-1.0624,-1.0624,-1.0624,-1.0624,-1.0624,-1.0561,-1.0498,-1.0561,-1.0434,-1.0174,-1.011,-1.0053,-0.9926,-0.974,-0.967,-0.9798,-1.0098,-1.0295,-2.2461,-2.2904,-2.2732,-2.3024,-2.2863,-2.277,-2.3348,-2.4085,-2.4681,-2.4996,0.0,-2.6247,-2.6724,-2.7271,-2.7869,-2.8706,0.0,-2.9827,-3.0044,-3.0103,-3.0231,-3.0384,-2.9984,-2.9897,-3.0342,-2.9826,-2.9393,-2.9252,-2.8716,-2.8181,-2.7777,-2.7235,-2.688,-2.6755,-2.6762,-2.657,-2.6154,-2.5532,-2.4984,-2.456,-2.3537,-2.275,-2.2122,-2.1628,-2.0758,-1.9695,0.0,0.0,-1.8881,-1.8881,-1.8494,-1.7941,-1.7468,-1.6978,-1.657,-1.6513,-1.6218,-1.5874,-1.6285,-1.5816,-1.5118,-1.5642,-1.5758,-1.5642,-1.5177,-1.505,-1.4942,-1.4497,-1.4139,-1.3941,-1.3881,-1.3821,-1.3761,-1.339,-1.3321,-1.3199,-1.2948,-1.2451,-1.1958,-1.1358,-1.0737,-1.0301,-1.0498,-0.9977,-0.9779,-1.0301,-0.9843,-0.939,-0.9139,-0.9913,-1.0428,-1.0295,-1.0301,-1.0301,-1.0301,-1.0301,-1.0301,-1.0295,-1.0364,-1.0364,-1.011,-1.0364,-1.0371,-0.9983,-1.0117,-1.0053,-0.974,-0.974,-0.9676,-0.9484,-0.9484,-0.974,-2.2198,-2.4685,-2.495,-2.4095,-2.4418,-2.4847,-2.4516,-2.483,0.0,0.0,-2.5961,-2.632,-2.7261,-2.7537,-2.7811,-2.8525,-2.9054,-2.9352,-2.93,-2.9633,-2.9897,0.0,-2.9515,-2.9425,-2.9897,-2.947,0.0,0.0,0.0,-2.7535,-2.7172,-2.6246,-2.5593,-2.5261,-2.474,-2.4751,-2.5289,-2.3797,-2.3324,-2.3846,-2.2834,-2.1825,-2.0832,-2.0863,-2.0192,-1.9146,-1.8951,0.0,-1.8267,-1.8116,-1.7854,-1.7379,-1.6899,-1.6684,-1.657,-1.6161,-1.57,-1.5342,-1.541,-1.4883,-1.43,-1.5059,-1.5069,-1.4675,-1.4309,-1.4181,-1.4121,-1.3752,-1.3631,-1.3511,-1.3139,-1.3017,-1.2887,-1.2389,-1.2258,-1.2258,-1.2197,-1.1695,-1.1205,-1.108,-1.0534,-1.0047,-1.011,-0.9983,-0.9779,-0.932,-0.9186,-0.8865,-0.8285,-0.9064,-0.9384,-0.8667,-0.8742,-0.8877,-0.8877,-0.8877,-0.8807,-0.8603,-0.9198,-0.946,-0.925,-0.9779,-1.0053,-0.9862,-0.9868,-0.9798,-0.9548,-0.9548,-0.9548,-0.9484,-0.9484,-0.9548,-1.8441,-2.1097,-2.2434,-2.5322,-2.6016,-2.5983,-2.5775,0.0,0.0,0.0,-2.6877,-2.7195,-2.7712,-2.7997,0.0,-2.8544,-2.8622,-2.8894,-2.9523,-2.9191,0.0,-3.0218,-2.9603,-2.9289,0.0,-2.938,0.0,0.0,0.0,-2.6565,-2.6206,-2.5527,-2.5029,-2.4863,-2.4312,-2.4035,-2.4135,-2.3058,-2.2574,-2.2643,-2.2273,-2.1629,-2.08,-2.0532,-1.9792,-1.8697,-1.8363,0.0,-1.6933,-1.6888,-1.6539,-1.6026,-1.5507,-1.5332,-1.5332,-1.5099,-1.4746,-1.4341,-1.4569,-1.4282,-1.3821,-1.4163,-1.4172,-1.3881,-1.3511,-1.339,-1.326,-1.2818,-1.2573,-1.2389,-1.2205,-1.2135,-1.202,-1.1593,-1.1344,-1.1156,-1.0912,-1.0598,-1.0275,-0.9875,-0.957,-0.9262,-0.9005,-0.8613,-0.8415,-0.8474,-0.8151,-0.7762,-0.7372,-0.7827,-0.8156,-0.8086,-0.8156,-0.8226,-0.8226,-0.8226,-0.8221,-0.8086,-0.8415,-0.8549,-0.835,-0.8742,-0.9005,-0.9145,-0.9204,-0.9338,-0.9484,-0.9484,-0.9484,-0.9484,-0.9484,-0.9484,-1.3075,-1.5486,-1.7583,-2.4342,-2.5499,-2.5383,-2.6926,-2.7505,0.0,-2.772,-2.7976,-2.821,-2.8264,-2.8503,-2.8682,0.0,-2.8596,-2.8908,-2.9947,-2.92,-2.9131,0.0,-2.9795,0.0,-2.975,-2.9252,0.0,0.0,0.0,0.0,-2.4887,-2.4601,-2.4457,-2.438,-2.4026,-2.3624,-2.3204,-2.264,-2.2115,-2.169,-2.1629,-2.1281,-2.0663,-2.0118,-1.9282,-1.8321,-1.7722,0.0,0.0,-1.5864,-1.5449,-1.4855,-1.4382,-1.4213,-1.4213,-1.4094,-1.3803,-1.3563,-1.3914,-1.3743,-1.339,-1.3268,-1.3268,-1.326,-1.2834,-1.2581,-1.2389,-1.1896,-1.1578,-1.1392,-1.1274,-1.1212,-1.1149,-1.0793,-1.0351,-0.997,-0.96,-0.9408,-0.9145,-0.8549,-0.8415,-0.8285,-0.7962,-0.7377,-0.7186,-0.7572,-0.7181,-0.6728,-0.6461,-0.6531,-0.6793,-0.7377,-0.7507,-0.7572,-0.7572,-0.7572,-0.7507,-0.7507,-0.7637,-0.7637,-0.7442,-0.7707,-0.7967,-0.8231,-0.835,-0.8619,-0.9022,-0.9215,-0.9285,-0.9285,-0.9414,-0.9484,-0.6562,-0.9313,-1.1132,-1.8435,-2.0198,-2.1713,-2.7695,0.0,-2.8673,-2.9265,-2.9071,-2.8888,-2.9148,-2.906,-2.9009,0.0,0.0,0.0,-3.0079,-3.0112,-3.0281,-3.0749,0.0,0.0,-2.975,-2.8806,0.0,0.0,0.0,0.0,-2.3152,-2.3122,-2.3076,-2.3062,-2.3016,-2.3044,-2.3133,-2.2062,-2.1532,-2.1577,-2.0643,-1.9897,-1.9364,-1.8863,-1.8313,-1.7755,-1.7022,0.0,0.0,-1.568,-1.5313,-1.4855,-1.4382,-1.4213,-1.4154,-1.3743,-1.3571,-1.3511,-1.3563,-1.3338,-1.2981,-1.2552,-1.2597,-1.2773,-1.2482,-1.2035,-1.1516,-1.1163,-1.1045,-1.0919,-1.0548,-1.0421,-1.0301,-0.9734,-0.9145,-0.8683,-0.8619,-0.8102,-0.7582,-0.7517,-0.7517,-0.7517,-0.7451,-0.7386,-0.7186,-0.6662,-0.6465,-0.6207,-0.5624,-0.5557,-0.5557,-0.5624,-0.5888,-0.6083,-0.6083,-0.6083,-0.6017,-0.5811,-0.6474,-0.6736,-0.6527,-0.712,-0.7451,-0.7517,-0.7517,-0.7517,-0.7582,-0.8296,-0.8619,-0.8619,-0.9215,-0.9484,0.284,-0.103,-0.4354,-1.0996,-1.3447,-1.5874,-2.2057,0.0,-2.4938,-2.8867,-2.9544,-2.9456,-2.9532,-2.9438,-2.9394,0.0,-2.9173,-2.9425,-3.0817,-3.064,-3.0566,-3.1122,-3.0817,0.0,0.0,0.0,0.0,0.0,0.0,0.0,-2.2933,-2.2888,-2.2752,-2.2509,-2.217,-2.189,-2.1587,-2.0801,-2.0462,-2.0501,-2.0079,-1.9604,-1.9081,-1.8536,-1.7929,-1.7335,-1.6322,0.0,0.0,-1.4569,-1.4034,-1.3502,-1.3329,-1.3208,-1.3147,-1.2658,-1.2474,-1.2413,-1.2097,-1.1911,-1.1794,-1.1608,-1.1421,-1.1296,-1.1115,-1.0926,-1.0661,-1.0231,-1.011,-1.0047,-0.9862,-0.9798,-0.9734,-0.9548,-0.9017,-0.849,-0.849,-0.7907,-0.7256,-0.6859,-0.6793,-0.6666,-0.6276,-0.621,-0.6083,-0.5815,-0.5818,-0.5686,-0.5428,-0.5428,-0.5428,-0.5428,-0.5495,-0.5627,-0.5627,-0.5627,-0.5557,-0.5491,-0.5756,-0.5885,-0.5818,-0.6083,-0.6404,-0.6793,-0.6793,-0.699,-0.7386,-0.7712,-0.7842,-0.7842,-0.8107,-0.8236,1.0702,0.719,0.344,-0.3742,-0.6634,-0.9863,-1.7985,-2.0364,-2.2562,-2.8647,-2.9902,-2.9898,-2.9859,-2.9826,-2.9765,0.0,-2.9535,-3.0002,-3.1748,-3.1682,-3.174,0.0,0.0,0.0,0.0,0.0,0.0,0.0,0.0,0.0,-2.3098,-2.2933,-2.2752,-2.2417,-2.2088,-2.1559,-2.0845,-2.0295,-1.9901,-1.9552,-1.9552,-1.9162,-1.8405,-1.7852,-1.7235,-1.6564,0.0,0.0,0.0,-1.3683,-1.3155,-1.2621,-1.2621,-1.2621,-1.256,-1.1996,-1.1802,-1.174,-1.1178,-1.0982,-1.0989,-1.0863,-1.0548,-1.0238,-1.0117,-1.0053,-0.9989,-0.9612,-0.935,-0.9215,-0.9215,-0.9022,-0.8894,-0.8894,-0.8361,-0.7902,-0.7902,-0.7321,-0.6666,-0.6207,-0.6075,-0.5947,-0.5495,-0.5428,-0.5428,-0.5428,-0.5428,-0.5296,-0.5093,-0.5093,-0.4957,-0.4758,-0.4957,-0.516,-0.5362,-0.5428,-0.5428,-0.5428,-0.5428,-0.5428,-0.5428,-0.5428,-0.562,-0.6075,-0.6075,-0.6338,-0.6802,-0.6994,-0.712,-0.7125,-0.7321,-0.7386,1.5854,1.4888,1.256,0.2931,0.0,-0.3992,-1.7354,-2.0808,-2.2932,-2.9118,-3.0283,-3.0198,-3.0198,-3.0196,-3.0089,-2.9746,-3.1145,-3.24,-3.2824,-3.3574,-3.4311,0.0,0.0,0.0,0.0,0.0,0.0,0.0,0.0,0.0,-2.3421,-2.3098,-2.2888,-2.2888,-2.3013,-2.2533,-2.1417,-2.0845,-2.0055,-1.8987,-1.8987,-1.8352,-1.7125,-1.6532,-1.5975,0.0,0.0,0.0,0.0,-1.3511,-1.3155,-1.2621,-1.2621,-1.2621,-1.256,-1.1996,-1.1802,-1.174,-1.1178,-1.0982,-1.0919,-1.0491,-1.0301,-1.018,-0.9676,-0.9484,-0.9484,-0.9484,-0.9017,-0.849,-0.849,-0.7972,-0.7451,-0.7451,-0.6924,-0.6396,-0.6396,-0.5881,-0.5428,-0.5428,-0.5428,-0.5428,-0.5428,-0.5428,-0.5428,-0.5428,-0.5428,-0.516,-0.442,-0.4287,-0.4018,-0.3282,-0.3885,-0.4622,-0.5362,-0.5428,-0.5428,-0.5428,-0.5428,-0.5428,-0.5428,-0.5428,-0.5428,-0.5428,-0.5428,-0.5428,-0.5428,-0.6075,-0.64,-0.6396,-0.712,-0.7386,1.8254,1.6483,1.4287,1.1036,0.8532,0.3509,-0.9571,-1.3374,-1.7249,-2.8203,-3.052,-3.0533,-3.0477,-3.0397,-3.07,-3.1835,-3.2254,0.0,0.0,0.0,0.0,-3.4125,-3.1998,0.0,0.0,0.0,0.0,0.0,0.0,0.0,-2.345,-2.3733,-2.3308,-2.1921,-2.1911,-2.1412,-2.0295,-1.9798,-1.9356,-1.8987,-1.8602,-1.7743,-1.6532,-1.6373,0.0,0.0,0.0,0.0,0.0,-1.3033,-1.2552,-1.2058,-1.2058,-1.1802,-1.1428,-1.0933,-1.0611,-1.0345,-0.9843,-0.9466,-0.928,-0.9087,-0.9215,-0.9274,-0.8635,-0.863,-0.8689,-0.8236,-0.7907,-0.7777,-0.7777,-0.7582,-0.7386,-0.7386,-0.6859,-0.64,-0.64,-0.5881,-0.5428,-0.5428,-0.5428,-0.5428,-0.5428,-0.5428,-0.5428,-0.5428,-0.5292,-0.509,-0.4888,-0.4758,-0.4564,-0.4436,-0.4231,-0.4225,-0.4622,-0.5093,-0.5428,-0.5428,-0.5428,-0.5428,-0.5428,-0.5428,-0.5428,-0.5428,-0.5428,-0.5428,-0.5428,-0.5624,-0.5686,-0.5752,-0.5951,-0.6276,0.0,1.717,1.537,1.4601,1.2594,0.7854,-0.3168,-0.6627,-1.1217,-2.4302,-2.7097,-2.7882,-3.0176,-3.0529,-3.0839,-3.1911,-3.2401,0.0,0.0,0.0,0.0,-3.3984,0.0,0.0,0.0,0.0,0.0,0.0,0.0,0.0,-2.3653,-2.3554,-2.2833,-2.1382,-2.1537,-2.1156,-2.0067,-1.9291,-1.8827,-1.856,-1.8038,-1.7013,-1.5651,-1.5651,0.0,0.0,0.0,0.0,0.0,-1.2674,-1.2112,-1.16,-1.1538,-1.1163,-1.0598,-1.0104,-0.9786,-0.9524,-0.8748,-0.8366,-0.8182,-0.7982,-0.8042,-0.8102,-0.7386,-0.7647,-0.7972,-0.7517,-0.719,-0.6994,-0.6994,-0.6863,-0.6671,-0.6671,-0.6338,-0.5943,-0.5675,-0.5282,-0.4957,-0.4957,-0.4755,-0.4688,-0.4957,-0.4894,-0.4827,-0.4827,-0.5033,-0.5169,-0.5036,-0.4906,-0.4643,-0.4177,-0.3291,-0.2813,-0.308,-0.4154,-0.4758,-0.4556,-0.4758,-0.4758,-0.4556,-0.4824,-0.4957,-0.4957,-0.5226,-0.5428,-0.5428,-0.5428,-0.5428,-0.5428,-0.5428,-0.562,0.0,1.718,1.5861,1.4433,1.2785,0.9455,0.1661,-0.1037,0.0,-1.7891,-2.0613,-2.2645,-2.887,-2.9978,-3.013,-3.0673,-3.2038,0.0,0.0,0.0,0.0,0.0,0.0,0.0,0.0,0.0,0.0,0.0,0.0,0.0,-2.3982,-2.2754,-2.1779,-2.1175,-2.1713,-2.1438,-2.0321,-1.9279,-1.8483,-1.7788,-1.7313,-1.6177,-1.441,-1.441,0.0,0.0,0.0,0.0,0.0,-1.2236,-1.1725,-1.108,-1.0885,-1.0382,-0.9697,-0.9262,-0.9139,-0.8947,-0.7967,-0.7577,-0.7512,-0.699,-0.6859,-0.6662,-0.6137,-0.6597,-0.7256,-0.7256,-0.6793,-0.6268,-0.6268,-0.5815,-0.5362,-0.5362,-0.5428,-0.5229,-0.4556,-0.4289,-0.422,-0.422,-0.3751,-0.3551,-0.4154,-0.4023,-0.3825,-0.3825,-0.464,-0.5059,-0.4724,-0.4657,-0.4118,-0.2973,-0.1479,-0.0737,-0.1072,-0.2815,-0.3689,-0.3215,-0.3623,-0.3689,-0.3149,-0.3818,-0.422,-0.422,-0.4957,-0.5359,-0.5428,-0.5428,-0.5428,-0.5428,-0.5428,-0.5428,1.8147,0.0,1.5409,1.4815,1.3122,0.9766,0.0,0.01,-0.3372,-1.1649,0.0,-1.6355,-2.315,-2.3953,-2.5937,-3.3203,-3.4248,-3.4819,-3.682,0.0,0.0,0.0,0.0,0.0,0.0,0.0,0.0,0.0,0.0,-2.4094,-2.3696,-2.3157,-2.2235,-2.0944,-2.0927,-2.0539,-1.9617,-1.8987,-1.8081,-1.6991,-1.6373,-1.5235,-1.3571,-1.3571,0.0,0.0,0.0,0.0,-1.0591,-1.0591,-1.0002,-0.9163,-0.9099,-0.8463,-0.7632,-0.7507,-0.7312,-0.7051,-0.6789,-0.6535,-0.6342,-0.6465,-0.6141,-0.5822,-0.616,-0.6284,-0.6137,-0.555,-0.5289,-0.5226,-0.5306,-0.5243,-0.5113,-0.5319,-0.5386,-0.5319,-0.5183,-0.4231,-0.3485,-0.3485,-0.4231,-0.4573,-0.362,-0.3418,-0.3284,-0.3013,-0.3153,-0.3293,-0.3226,-0.2956,-0.3027,-0.3852,-0.2627,-0.1547,-0.1145,-0.2686,-0.342,-0.288,-0.3553,-0.3553,-0.2678,-0.3147,-0.3485,-0.3485,-0.4154,-0.4824,-0.5428,-0.5428,-0.5428,-0.5428,-0.5428,-0.5428,1.7611,1.6518,1.5264,1.4824,1.3502,1.1109,0.6758,0.0,0.0,0.0,0.0,-0.9945,-1.961,-2.1473,-2.4247,-3.251,-3.4238,0.0,0.0,0.0,0.0,0.0,0.0,0.0,0.0,0.0,0.0,0.0,0.0,-2.4214,0.0,-2.2905,-2.1974,-2.0759,-2.008,-1.9579,-1.9328,-1.8494,-1.7699,-1.7002,-1.5928,-1.4777,-1.3623,-1.3321,-1.2451,0.0,0.0,0.0,-1.0015,-0.9958,-0.9244,-0.8205,-0.8146,-0.7442,-0.6474,-0.6474,-0.6342,-0.6145,-0.5877,-0.555,-0.5229,-0.5352,-0.516,-0.4973,-0.5309,-0.4824,-0.4278,-0.4697,-0.477,-0.4837,-0.4913,-0.4436,-0.3961,-0.4097,-0.4164,-0.4167,-0.4169,-0.356,-0.275,-0.2076,-0.2618,-0.3094,-0.3019,-0.2551,-0.215,-0.2014,-0.168,-0.1479,-0.1479,-0.1277,-0.1412,-0.2224,-0.2157,-0.1684,-0.0674,-0.1747,-0.2551,-0.269,-0.269,-0.242,-0.188,-0.2078,-0.241,-0.288,-0.4151,-0.4824,-0.4891,-0.5226,-0.5428,-0.5428,-0.5428,-0.5428,1.7,1.6265,1.5352,1.4647,1.3734,1.2573,1.0961,0.0,0.0,0.0,0.0,0.0,0.0,-1.8103,0.0,0.0,0.0,0.0,0.0,0.0,0.0,0.0,0.0,0.0,0.0,0.0,0.0,0.0,0.0,-2.4348,0.0,-2.2651,-2.1663,-2.0696,-1.9594,-1.9097,-1.917,-1.7875,-1.7146,-1.6912,-1.5409,-1.4246,-1.3476,-1.294,-1.1943,0.0,0.0,0.0,-0.9506,-0.9384,-0.8603,-0.7432,-0.7377,-0.6601,-0.5627,-0.5627,-0.5627,-0.5624,-0.5156,-0.4694,-0.4233,-0.403,-0.3966,-0.3974,-0.4247,-0.3433,-0.2686,-0.4036,-0.4372,-0.4439,-0.4645,-0.383,-0.2815,-0.2412,-0.2278,-0.2278,-0.2283,-0.2284,-0.1946,-0.0671,-0.0403,-0.0808,-0.2083,-0.1548,-0.0944,-0.0944,-0.0404,-0.0,-0.0,-0.0,-0.0,-0.0,-0.1079,-0.1281,-0.0135,-0.0606,-0.1414,-0.2567,-0.1754,-0.1146,-0.1012,-0.1008,-0.1474,-0.2477,-0.4082,-0.4622,-0.4154,-0.4755,-0.5093,-0.5226,-0.5226,-0.5292,1.6955,1.6503,1.5758,1.4765,1.3683,1.2642,1.1988,0.0,0.0,0.0,0.0,0.0,0.0,0.0,0.0,0.0,0.0,0.0,0.0,0.0,0.0,0.0,0.0,0.0,0.0,0.0,0.0,0.0,0.0,0.0,0.0,-2.3522,-2.2392,-2.0904,-2.0644,-2.0054,-1.904,-1.7346,-1.5918,-1.4876,-1.4022,-1.2821,-1.1267,-1.1205,-1.0382,0.0,0.0,-0.8345,-0.719,-0.719,-0.6531,-0.5543,-0.5481,-0.509,-0.4564,-0.4564,-0.4564,-0.4567,-0.4434,-0.4367,-0.4097,-0.2818,-0.2415,-0.2686,-0.3914,-0.4121,-0.378,-0.2765,-0.249,-0.282,-0.4048,-0.4188,-0.3439,-0.101,-0.0404,-0.0404,-0.0404,-0.0404,-0.0337,-0.0135,-0.0067,-0.0135,-0.0404,-0.027,-0.0202,-0.0202,-0.0067,-0.0,-0.0,-0.0,-0.0,-0.0,-0.0202,-0.0202,-0.0,-0.0135,-0.0741,-0.2093,-0.2022,-0.1549,-0.0607,-0.0674,-0.1278,-0.2482,-0.2547,-0.2882,-0.3349,-0.3482,-0.3885,-0.4486,-0.4486,-0.4821,1.536,1.5623,1.5594,1.4094,1.3674,1.3442,1.2236,0.0,0.0,0.0,0.0,0.0,0.0,0.0,0.0,0.0,0.0,0.0,0.0,0.0,0.0,0.0,0.0,0.0,0.0,0.0,0.0,0.0,0.0,0.0,0.0,0.0,-2.2637,-2.0917,-2.0307,-1.9349,-1.7872,-1.6126,-1.5332,-1.539,-1.3733,-1.248,-1.1703,-1.0968,-0.9945,-0.8656,0.0,-0.7447,-0.6284,-0.6284,-0.5818,-0.5087,-0.5229,-0.49,-0.43,-0.4306,-0.4308,-0.4308,-0.4308,-0.4311,-0.418,-0.3502,-0.222,-0.1412,-0.365,-0.4268,-0.3857,-0.1619,-0.0943,-0.1144,-0.1819,-0.1955,-0.1617,-0.0337,-0.0,-0.0,-0.0,0.1213,0.2293,0.2293,0.1682,0.1143,0.1143,0.1143,0.0874,0.0135,0.0672,0.0875,0.0067,-0.0,-0.0,-0.0,-0.0,-0.0,-0.0,-0.0,-0.027,-0.0944,-0.0943,-0.0741,-0.027,-0.0269,-0.0739,-0.1749,-0.235,-0.2479,-0.2076,-0.2544,-0.3011,-0.3345,-0.3616,-0.3885,1.3735,1.4427,1.5001,1.3425,1.3674,1.395,1.2399,0.0,0.0,0.0,0.0,0.0,0.0,0.0,0.0,0.0,0.0,0.0,0.0,0.0,0.0,0.0,0.0,0.0,0.0,0.0,0.0,0.0,0.0,0.0,0.0,0.0,-2.3098,-2.1232,-2.0393,-1.9028,-1.6948,-1.536,-1.4798,-1.5129,-1.302,-1.1888,-1.1509,-1.0528,-0.9442,-0.8398,-0.7897,-0.7064,-0.6028,-0.6028,-0.5561,-0.4897,-0.5109,-0.457,-0.3761,-0.3768,-0.377,-0.3837,-0.418,-0.4322,-0.419,-0.3511,-0.1347,0.0606,-0.1618,-0.2498,-0.236,-0.0135,0.0471,0.0539,0.0943,0.074,0.0471,0.0471,0.0471,0.0471,0.0471,0.2223,0.3914,0.4258,0.3366,0.2619,0.2619,0.2619,0.2216,0.1142,0.1611,0.1813,0.1077,0.0672,0.047,0.0471,0.0471,0.0337,-0.0,0.0606,0.0741,0.0067,-0.0,-0.0,-0.0,-0.0,-0.0336,-0.0944,-0.2016,-0.2147,-0.1074,-0.1811,-0.2143,-0.2209,-0.2544,-0.2882,1.3053,1.3438,1.3717,1.3122,1.3545,0.0,1.2957,1.2402,0.0,0.0,0.0,0.0,0.0,0.0,0.0,0.0,0.0,0.0,0.0,0.0,0.0,0.0,0.0,0.0,0.0,0.0,0.0,0.0,0.0,0.0,0.0,0.0,0.0,-2.2267,-2.2115,-2.0469,-1.7114,-1.5867,-1.4064,-1.1811,-1.1031,-0.9964,-0.8801,-0.8683,-0.8231,-0.7587,-0.7521,-0.7077,-0.637,-0.637,-0.5575,-0.4381,-0.4381,-0.3498,-0.2281,-0.2281,-0.2281,-0.2484,-0.3847,-0.4327,-0.3852,-0.1146,0.1617,0.3919,0.3715,0.2758,0.1677,0.1878,0.1946,0.2284,0.3643,0.2961,0.1946,0.1946,0.1946,0.1946,0.1946,0.208,0.2686,0.4043,0.4247,0.411,0.411,0.411,0.411,0.3976,0.2889,0.2551,0.384,0.2822,0.1946,0.1946,0.1946,0.141,0.0134,0.2424,0.2833,0.0202,-0.0,-0.0,-0.0,-0.0,-0.0202,-0.0539,-0.0741,-0.0944,-0.1079,-0.1146,-0.1211,-0.1206,-0.1206,-0.1942,1.1468,1.2193,1.2814,1.1851,0.0,0.0,0.0,0.0,0.0,0.0,0.0,0.0,0.0,0.0,0.0,0.0,0.0,0.0,0.0,0.0,0.0,0.0,0.0,0.0,0.0,0.0,0.0,0.0,0.0,0.0,0.0,0.0,0.0,-2.3355,-2.1597,-1.9658,-1.7581,-1.484,-1.2425,-1.0268,-1.0072,-0.9748,-0.9233,-0.8011,-0.6894,-0.5836,-0.6075,-0.5355,-0.3954,-0.3818,-0.2878,-0.1606,-0.1606,-0.0736,0.0536,0.0536,0.0536,0.0402,-0.0134,-0.0335,-0.0134,0.094,0.2016,0.3096,0.4046,0.3909,0.3498,0.3498,0.3493,0.3627,0.418,0.3907,0.3498,0.3498,0.3498,0.3498,0.3498,0.3493,0.3627,0.4169,0.4306,0.4306,0.4306,0.4306,0.4306,0.4306,0.383,0.3694,0.4244,0.3832,0.3491,0.3498,0.3498,0.2889,0.141,0.2284,0.2825,0.2691,0.1008,-0.0,-0.0,-0.0,-0.0067,-0.0202,-0.0674,-0.1012,-0.1079,-0.0607,-0.0404,-0.0403,-0.0605,-0.1144,1.0331,1.1286,1.215,0.0,0.0,0.0,0.0,0.0,0.0,0.0,0.0,0.0,0.0,0.0,0.0,0.0,0.0,0.0,0.0,0.0,0.0,0.0,0.0,0.0,0.0,0.0,0.0,0.0,0.0,0.0,0.0,0.0,0.0,0.0,-2.2626,-1.9907,-1.6398,-1.3856,-1.0923,-0.7599,-0.7191,-0.7733,-0.8849,-0.6945,-0.5494,-0.4501,-0.4193,-0.327,-0.1939,-0.1805,-0.0534,0.1338,0.1338,0.1942,0.282,0.282,0.282,0.282,0.282,0.3088,0.3355,0.2956,0.3019,0.3353,0.4105,0.4439,0.4637,0.4637,0.4764,0.496,0.4967,0.464,0.4375,0.4573,0.4637,0.4703,0.4903,0.4964,0.4957,0.4957,0.4957,0.4957,0.4957,0.4957,0.4957,0.4957,0.4957,0.496,0.4967,0.4764,0.4564,0.4308,0.4311,0.3902,0.2885,0.2818,0.3224,0.4247,0.2418,0.1142,0.0673,0.0673,0.0673,0.0808,0.0269,-0.0135,-0.0404,0.0135,0.0471,0.0673,0.0538,0.0269,0.9795,1.0823,1.1856,0.0,0.0,0.0,0.0,0.0,0.0,0.0,0.0,0.0,0.0,0.0,0.0,0.0,0.0,0.0,0.0,0.0,0.0,0.0,0.0,0.0,0.0,0.0,0.0,0.0,0.0,0.0,0.0,0.0,0.0,0.0,-2.5647,-2.1569,-1.3136,-1.2869,-0.9573,-0.3301,-0.1888,-0.3281,-0.7064,-0.5166,-0.4164,-0.383,-0.1912,-0.0925,-0.0663,-0.0862,0.1132,0.4381,0.4314,0.4314,0.4314,0.4314,0.4314,0.4314,0.4314,0.5259,0.614,0.4785,0.4976,0.5502,0.4634,0.4758,0.5342,0.5342,0.587,0.64,0.64,0.5352,0.4495,0.5147,0.5342,0.554,0.6264,0.64,0.64,0.64,0.64,0.64,0.64,0.64,0.64,0.64,0.64,0.64,0.64,0.5738,0.508,0.4364,0.43,0.43,0.43,0.43,0.4306,0.4314,0.4306,0.3625,0.2214,0.2147,0.2214,0.2484,0.2484,0.2079,0.1139,0.1139,0.1475,0.2147,0.2417,0.235,0.9543,1.0125,0.0,0.0,0.0,0.0,0.0,0.0,0.0,0.0,0.0,0.0,0.0,0.0,0.0,0.0,0.0,0.0,0.0,0.0,0.0,0.0,0.0,0.0,0.0,0.0,0.0,0.0,0.0,0.0,0.0,0.0,0.0,0.0,-1.3901,-1.0563,-0.2379,0.1501,0.2871,0.1896,0.4892,0.2987,-0.3021,-0.1585,-0.0531,0.0199,0.0865,0.2454,0.4632,0.6383,0.7718,0.8506,0.7233,0.6702,0.6637,0.6005,0.5749,0.5749,0.5749,0.6017,0.6354,0.5885,0.5947,0.6145,0.5877,0.5939,0.6067,0.6067,0.6199,0.64,0.64,0.6071,0.5807,0.6001,0.6067,0.6133,0.6334,0.64,0.64,0.64,0.64,0.64,0.64,0.64,0.64,0.64,0.64,0.64,0.64,0.6199,0.6001,0.5807,0.5745,0.5745,0.5745,0.5279,0.5017,0.502,0.5017,0.4622,0.3701,0.3634,0.3701,0.377,0.377,0.3634,0.3362,0.3362,0.3431,0.3634,0.3701,0.3701,0.963,1.012,0.0,1.0759,0.0,0.0,0.0,0.0,0.0,0.0,0.0,0.0,0.0,0.0,0.0,0.0,0.0,0.0,0.0,0.0,0.0,0.0,0.0,0.0,0.0,0.0,0.0,0.0,0.0,0.0,0.0,0.0,0.0,0.0,-0.7649,-0.436,0.3533,0.7056,0.8931,0.9195,1.1641,1.0261,0.553,0.4491,0.4345,0.5008,0.5406,0.6496,0.8099,0.9609,1.0085,0.9773,0.8634,0.8163,0.8104,0.7603,0.7223,0.6972,0.6972,0.7042,0.6985,0.6724,0.6789,0.6985,0.6662,0.6789,0.7111,0.7363,0.7562,0.7697,0.8135,0.8135,0.7817,0.7055,0.6859,0.6929,0.719,0.7256,0.7321,0.7507,0.7572,0.7601,0.7749,0.763,0.7569,0.7606,0.7493,0.7277,0.6868,0.6859,0.6728,0.6461,0.64,0.64,0.64,0.6001,0.5738,0.5738,0.5738,0.5547,0.5163,0.5166,0.5166,0.5166,0.5166,0.4967,0.47,0.4967,0.4967,0.47,0.4967,0.5166,0.9766,0.0,0.0,1.1052,1.1428,0.0,0.0,0.0,0.0,0.0,0.0,0.0,0.0,0.0,0.0,0.0,0.0,0.0,0.0,0.0,0.0,0.0,0.0,0.0,0.0,0.0,0.0,0.0,0.0,0.0,0.0,0.0,0.0,-0.3839,-0.4103,-0.0525,0.7315,0.8154,1.1548,0.0,1.8318,1.795,1.6409,1.1927,0.9867,0.9937,1.0962,1.0958,1.0354,1.0526,1.0292,0.9762,0.9523,0.9466,0.9466,0.9295,0.8803,0.8308,0.8308,0.8318,0.827,0.7623,0.7882,0.827,0.7623,0.7882,0.8527,0.9087,0.9488,0.9888,1.0766,1.0766,1.0072,0.8226,0.7842,0.7977,0.8571,0.8705,0.8829,0.9332,0.9396,0.9485,0.9952,0.9729,0.9533,0.9673,0.9326,0.8754,0.7897,0.7792,0.7526,0.6968,0.6758,0.6683,0.6745,0.6634,0.6564,0.6531,0.6544,0.6548,0.6531,0.6461,0.64,0.64,0.64,0.6067,0.5408,0.6067,0.6067,0.5408,0.6067,0.64,0.9571,1.0437,0.0,0.0,1.2351,1.265,0.0,0.0,0.0,0.0,0.0,0.0,0.0,0.0,0.0,0.0,0.0,0.0,0.0,0.0,0.0,0.0,0.0,0.0,0.0,0.0,0.0,0.0,0.0,0.0,0.0,0.0,0.0,1.1528,0.8889,1.1737,2.0968,2.3025,2.3322,0.0,2.4372,2.3874,2.0737,1.6477,1.3559,1.2022,1.4119,1.445,1.366,1.5609,1.6305,1.6074,1.4544,1.3934,1.3767,1.224,1.1544,1.1421,1.1421,1.1428,1.1428,1.1243,1.1305,1.1428,1.1243,1.1305,1.1436,1.121,1.1162,1.1176,1.101,1.0954,1.0766,1.0382,1.0255,1.0319,1.0451,1.0268,1.0205,1.0577,1.0205,1.0046,1.0653,1.0719,1.0791,1.1115,1.0549,1.0161,1.0255,1.002,1.0045,1.0417,0.9533,0.9086,0.94,0.8449,0.7669,0.7279,0.7403,0.7417,0.7265,0.6728,0.64,0.64,0.64,0.633,0.6133,0.633,0.633,0.6199,0.633,0.64,0.9392,0.0,0.0,1.229,0.0,0.0,1.2895,0.0,0.0,0.0,0.0,0.0,0.0,0.0,0.0,0.0,0.0,0.0,0.0,0.0,0.0,0.0,0.0,0.0,0.0,0.0,0.0,0.0,0.0,0.0,0.0,1.086,1.1703,1.7326,1.6229,1.8467,2.4514,2.6395,2.6872,2.6011,2.7931,2.7562,2.5097,2.1422,1.8576,1.6662,1.793,1.8029,1.7349,1.8426,1.8758,1.8422,1.7157,1.6677,1.6567,1.5562,1.4974,1.462,1.4114,1.372,1.3365,1.2841,1.2623,1.2623,1.2623,1.2623,1.2684,1.2708,1.2655,1.2594,1.2793,1.2793,1.274,1.2854,1.1935,1.1017,1.1017,1.0892,1.0892,1.1329,1.108,1.11,1.1824,1.2023,1.2004,1.1629,1.1341,1.1204,1.129,1.1152,1.1235,1.1757,1.1188,1.0888,1.1149,1.048,0.9965,0.9687,0.9793,0.9805,0.9675,0.9151,0.8451,0.7456,0.7642,0.7507,0.6924,0.7572,0.7567,0.7051,0.7757,0.8146,0.8926,0.0,1.1348,1.2212,1.1919,0.0,1.2834,0.0,0.0,0.0,0.0,0.0,0.0,0.0,0.0,0.0,0.0,0.0,0.0,0.0,0.0,0.0,0.0,0.0,0.0,0.0,0.0,0.0,0.0,0.0,1.5458,1.6367,1.751,1.8948,2.0263,2.1991,2.4177,2.5483,2.7022,2.884,2.9785,2.9666,2.8559,2.5902,2.3546,2.1535,2.1699,2.1379,2.0725,2.0518,2.0227,1.9782,1.9245,1.8924,1.8846,1.8638,1.8172,1.7478,1.6577,1.591,1.5268,1.4128,1.3758,1.3758,1.3758,1.3707,1.3784,1.4436,1.4387,1.4346,1.5031,1.504,1.4923,1.5157,1.3562,1.1912,1.1626,1.1454,1.1516,1.202,1.2065,1.2287,1.2983,1.3177,1.3016,1.2219,1.2247,1.2275,1.2138,1.2065,1.2167,1.2599,1.2448,1.2351,1.2419,1.2334,1.2176,1.2137,1.2112,1.2098,1.1992,1.1751,1.0763,0.8958,0.9396,0.9134,0.8096,0.9192,0.925,0.828,0.9564,1.0142,0.0,0.0,1.0863,0.0,1.202,1.195,0.0,0.0,0.0,0.0,0.0,0.0,0.0,0.0,0.0,0.0,0.0,0.0,0.0,0.0,0.0,0.0,0.0,0.0,0.0,0.0,0.0,0.0,0.0,0.0,1.7112,1.7146,1.833,2.0836,2.1951,2.3559,2.5704,2.7081,2.818,2.8987,2.9919,2.9958,2.9171,2.8633,2.6637,2.3662,2.4595,2.4053,2.2644,2.3541,2.3827,2.3571,2.2556,2.1893,2.1342,2.0371,1.9687,1.9265,1.9111,1.8995,1.8734,1.7673,1.7324,1.7324,1.7324,1.7014,1.6768,1.7434,1.7291,1.6813,1.6532,1.6419,1.6419,1.6476,1.6172,1.5533,1.4094,1.3208,1.285,1.3199,1.3289,1.3355,1.35,1.3523,1.3739,1.4222,1.4032,1.3955,1.4146,1.3988,1.4112,1.4692,1.3785,1.3331,1.3746,1.3155,1.2579,1.2166,1.2331,1.2178,1.1701,1.1645,1.1274,1.071,1.0766,1.0703,1.0508,1.0703,1.0696,1.0571,1.0759,1.0892,0.8063,0.9029,0.9843,0.0,1.0703,1.0584,1.0829,0.0,0.0,0.0,0.0,0.0,0.0,0.0,0.0,0.0,0.0,0.0,0.0,0.0,0.0,0.0,0.0,0.0,0.0,0.0,0.0,0.0,0.0,1.7056,1.7689,1.8274,1.9391,2.1083,2.2361,2.3897,2.577,2.7126,2.8442,2.9679,3.016,3.0224,2.9927,2.9893,2.8555,2.6317,2.6742,2.6498,2.5781,2.5813,2.5791,2.5653,2.471,2.4215,2.3973,2.3455,2.3005,2.2571,2.1934,2.1597,2.1293,2.0195,1.9636,1.9382,1.9382,1.9019,1.8619,1.8911,1.8806,1.8608,1.8372,1.8139,1.7904,1.7904,1.773,1.7291,1.6213,1.5515,1.5051,1.4827,1.4928,1.4934,1.4658,1.4764,1.4873,1.4942,1.5109,1.516,1.4993,1.5069,1.5316,1.5517,1.4993,1.4763,1.4973,1.468,1.4553,1.4632,1.4763,1.4645,1.4402,1.4254,1.3961,1.3484,1.214,1.1329,1.1017,1.1406,1.1406,1.1205,1.164,1.1819,0.0,0.0,0.8659,0.936,0.9309,0.9156,0.0,0.0,0.0,0.0,0.0,0.0,0.0,0.0,0.0,0.0,0.0,0.0,0.0,0.0,0.0,0.0,0.0,0.0,0.0,0.0,0.0,0.0,0.0,1.7995,1.8309,1.9258,2.028,2.1356,2.27,2.4133,2.555,2.7122,2.8645,3.0047,3.0288,3.0394,3.0396,3.0465,2.9855,2.8707,2.8462,2.825,2.8044,2.7441,2.7157,2.7052,2.6478,2.6084,2.5894,2.5894,2.5606,2.5115,2.4241,2.3759,2.3293,2.2175,2.1509,2.1124,2.1124,2.0651,2.0139,2.045,2.0328,2.0141,2.0141,1.9864,1.9608,1.9569,1.9325,1.8778,1.7675,1.7179,1.6757,1.63,1.6518,1.6611,1.6227,1.6372,1.646,1.6218,1.6598,1.674,1.6327,1.6673,1.6861,1.6766,1.6733,1.6733,1.6733,1.6733,1.6932,1.7326,1.7198,1.7023,1.6921,1.644,1.5954,1.5487,1.358,1.2373,1.1997,1.2397,1.2458,1.2251,1.2696,1.3,0.0,0.7024,0.0,0.805,0.0,0.0,0.0,0.0,0.0,0.0,0.0,0.0,0.0,0.0,0.0,0.0,0.0,0.0,0.0,0.0,0.0,0.0,0.0,0.0,0.0,0.0,0.0,0.0,0.0,1.8178,1.9374,1.9775,2.0713,2.236,2.3488,2.4467,2.54,2.7674,2.9098,2.9655,3.0162,3.0404,3.0405,3.0465,3.044,3.0332,2.9622,2.8976,2.8369,2.8274,2.8143,2.8039,2.7972,2.7459,2.6743,2.6743,2.6235,2.5566,2.5497,2.5287,2.4807,2.3657,2.3046,2.2805,2.2805,2.2152,2.1611,2.27,2.2321,2.1602,2.1602,2.1554,2.1554,2.15,2.1452,2.069,1.8047,1.7498,1.7466,1.7408,1.7803,1.8205,1.8144,1.8477,1.8723,1.8701,1.9094,1.9325,1.9249,1.9325,1.9336,1.9291,1.9291,1.9291,1.9291,1.9291,1.9291,1.9357,1.8783,1.8211,1.7865,1.6796,1.6012,1.5624,1.505,1.4706,1.4706,1.43,1.43,1.4706,1.43,1.4359,0.0,0.0,0.0,0.7145,0.7583,0.7956,0.0,0.0,0.0,0.0,0.0,0.0,0.0,0.0,0.0,0.0,0.0,0.0,0.0,0.0,0.0,0.0,0.0,0.0,0.0,0.0,0.0,0.0,0.0,0.0,1.967,1.9876,2.0779,2.2486,2.2937,2.4132,2.6133,2.7476,2.8492,2.9212,2.9554,2.9841,3.0098,3.0285,3.0379,3.037,3.0176,2.9992,2.9783,2.9513,2.9355,2.9302,2.8981,2.8684,2.8372,2.8113,2.769,2.7233,2.7006,2.6738,2.637,2.5961,2.5391,2.4837,2.4837,2.4203,2.3558,2.3987,2.3606,2.3128,2.3128,2.2637,2.2306,2.2715,2.2574,2.2205,2.1936,2.1243,2.0557,2.0153,1.9889,1.9587,1.921,1.9241,1.9297,1.9297,1.9706,1.989,1.9553,1.9814,1.9879,1.9553,1.9488,1.9488,1.9488,1.9488,1.9619,2.0019,1.9399,1.9002,1.8965,1.8144,1.7572,1.7172,1.7045,1.6301,1.4893,1.4715,1.4715,1.4893,1.4715,1.4715,0.4577,0.0,0.0,0.0,0.0,0.7371,0.7503,0.0,0.0,0.0,0.0,0.0,0.0,0.0,0.0,0.0,0.0,0.0,0.0,0.0,0.0,0.0,0.0,0.0,0.0,0.0,0.0,0.0,0.0,0.0,2.0245,2.0446,2.1363,2.3128,2.3503,2.4563,2.6471,2.729,2.8066,2.8723,2.9033,2.9401,2.9832,3.0041,3.017,3.0248,3.0374,3.0486,3.0559,3.0297,3.0194,3.0171,2.9856,2.9642,2.951,2.9231,2.8904,2.8518,2.8226,2.7939,2.7637,2.7572,2.7092,2.6522,2.6522,2.5884,2.5179,2.5179,2.4721,2.4256,2.4256,2.3721,2.3393,2.4088,2.4153,2.4206,2.4999,2.4058,2.2909,2.246,2.2153,2.1858,2.1476,2.1436,2.1401,2.1401,2.1735,2.1796,2.1525,2.1723,2.1796,2.1525,2.1463,2.1463,2.1463,2.1463,2.1537,2.1708,2.1095,2.0563,2.0259,1.9647,1.9088,1.8589,1.8616,1.7947,1.6546,1.5985,1.5623,1.543,1.5517,1.5575,0.0,0.0,0.0,0.0,0.0,0.0,0.0,0.0,0.0,0.0,0.0,0.0,0.0,0.0,0.0,0.0,0.0,0.0,0.0,0.0,0.0,0.0,0.0,0.0,0.0,0.0,0.0,0.0,0.0,2.051,2.1175,2.1582,2.2548,2.4307,2.5237,2.5885,2.626,2.7209,2.7832,2.8182,2.8649,2.9145,2.9681,2.9737,2.9888,3.0081,3.0211,3.0366,3.0499,3.0564,3.0587,3.0587,3.06,3.0356,3.0023,3.0023,2.9709,2.9305,2.9101,2.8805,2.8512,2.8373,2.8085,2.783,2.783,2.7126,2.6337,2.6337,2.5668,2.4965,2.4958,2.4839,2.4916,2.5664,2.6255,2.671,2.6963,2.564,2.4379,2.4205,2.4613,2.5007,2.5007,2.5119,2.5231,2.5231,2.5231,2.5231,2.5398,2.5287,2.5231,2.5398,2.5398,2.5398,2.5398,2.5398,2.5119,2.4567,2.3923,2.301,2.1793,2.1019,2.0402,1.9879,1.9716,1.9712,1.9813,1.8247,1.7146,1.6488,1.6877,1.6989,0.2596,0.0,0.0,0.0,0.0,0.0,0.0,0.0,0.0,0.0,0.0,0.0,0.0,0.0,0.0,0.0,0.0,0.0,0.0,0.0,0.0,0.0,0.0,0.0,0.0,0.0,0.0,0.0,2.0156,2.0894,2.1465,2.2483,2.3304,2.3794,2.495,2.5631,2.5742,2.6573,2.7189,2.7554,2.7995,2.8413,2.8847,2.9263,2.9458,2.9532,2.9722,2.9876,3.0028,3.0333,3.0466,3.0463,3.0564,3.0537,3.0403,3.0163,2.9966,2.9746,2.9479,2.927,2.9133,2.905,2.8727,2.8372,2.8316,2.7879,2.7372,2.7372,2.6968,2.6455,2.6332,2.5965,2.5835,2.6488,2.7182,2.7661,2.7579,2.761,2.7235,2.5944,2.5452,2.5287,2.5287,2.5342,2.5342,2.5342,2.5342,2.5342,2.5398,2.5342,2.5342,2.5398,2.5398,2.5398,2.5398,2.5398,2.5342,2.5175,2.446,2.3768,2.3111,2.235,2.1707,2.1153,2.1113,2.0922,2.0565,1.9623,1.8936,1.8507,1.8101,1.7907,0.1523,0.1885,0.0,0.0,0.0,0.0,0.0,0.5859,0.0,0.0,0.0,0.0,0.0,0.0,0.0,0.0,0.0,0.0,0.0,0.0,0.0,0.0,0.0,0.0,0.0,1.8804,0.0,1.9396,2.0093,2.0894,2.1718,2.274,2.3565,2.4085,2.5012,2.5652,2.598,2.647,2.6873,2.7258,2.7512,2.7911,2.8478,2.8772,2.902,2.9233,2.9345,2.949,2.9658,2.9985,3.0205,3.0381,3.0546,3.0562,3.0498,3.0387,3.0308,3.0211,2.9921,2.9804,2.9756,2.9633,2.9345,2.9021,2.9,2.8573,2.8147,2.8147,2.7776,2.743,2.7654,2.7484,2.7417,2.8131,2.8903,2.9264,2.8637,2.9119,2.9204,2.7605,2.7012,2.6791,2.6791,2.6842,2.6842,2.6842,2.6649,2.6558,2.6582,2.6414,2.6283,2.6322,2.6322,2.6322,2.6322,2.6322,2.6215,2.596,2.5549,2.483,2.3798,2.352,2.2976,2.2114,2.2285,2.2225,2.1979,2.1054,2.0416,2.0105,1.9364,1.8972,0.0383,0.0631,0.0,0.0,0.2743,0.0,0.4008,0.4698,0.5246,0.0,0.0,0.0,0.0,0.0,0.0,0.0,0.0,0.0,0.0,0.0,0.0,0.0,0.0,0.0,1.77,1.8375,1.8992,1.9604,2.0093,2.0881,2.203,2.2618,2.3492,2.4689,2.5205,2.5799,2.6521,2.6624,2.6842,2.7117,2.7149,2.753,2.8228,2.8272,2.8554,2.902,2.902,2.9148,2.9412,2.9589,2.9912,3.0287,3.0496,3.0501,3.0421,3.0625,3.0657,3.0598,3.0416,3.0346,3.0309,3.0136,2.988,2.9678,2.9751,2.928,2.8735,2.8712,2.8376,2.8205,2.898,2.9218,2.9408,3.0087,3.0831,3.1102,2.9935,3.0306,3.0553,2.9355,2.8965,2.881,2.881,2.8919,2.8982,2.8982,2.8559,2.8255,2.8384,2.7894,2.7625,2.776,2.776,2.776,2.776,2.776,2.7545,2.7019,2.6857,2.6002,2.4355,2.4503,2.4043,2.2814,2.3172,2.3407,2.3596,2.2423,2.171,2.1472,2.0601,2.0104,-0.1213,-0.1154,-0.0703,0.0904,0.0,0.0,0.3169,0.3694,0.4281,0.0,0.0,0.0,0.0,0.0,0.0,0.0,0.0,0.0,0.0,0.0,0.0,0.0,0.0,0.0,1.7799,1.859,1.9331,1.9888,2.0894,2.1827,2.2526,2.292,2.3493,2.4302,2.4918,2.5329,2.5481,2.6189,2.6572,2.664,2.6873,2.7049,2.7189,2.7482,2.7901,2.8453,2.8453,2.8837,2.9412,2.9433,2.9701,3.0078,3.0276,3.0409,3.0482,3.0583,3.0643,3.0679,3.0693,3.0661,3.0608,3.0516,3.0344,3.0151,3.0117,2.9896,2.9606,2.9456,2.9402,2.9572,3.0315,3.0682,3.088,3.1022,3.1629,3.1954,3.1137,3.1545,3.1969,3.1741,3.049,2.952,2.952,2.952,2.952,2.952,2.9164,2.8935,2.8935,2.8842,2.8795,2.8795,2.8795,2.8795,2.8795,2.8795,2.8748,2.8638,2.7733,2.6807,2.5986,2.5076,2.4253,2.3436,2.3508,2.3739,2.4135,2.3143,2.2634,2.2543,2.1852,2.152,-0.1475,-0.1674,-0.1743,-0.0393,0.0,0.0,0.0,0.2412,0.3213,0.3813,0.0,0.0,0.0,0.0,0.0,0.0,0.0,0.0,0.0,0.0,0.0,0.0,0.0,0.0,1.7755,1.8278,1.9056,2.0232,2.1188,2.2077,2.2844,2.3113,2.3595,2.4385,2.4719,2.502,2.5198,2.5832,2.6154,2.6154,2.6521,2.6774,2.6888,2.7224,2.7631,2.8156,2.8281,2.8658,2.916,2.9209,2.9429,2.9738,3.011,3.0285,3.0366,3.058,3.0628,3.0603,3.0719,3.0678,3.0602,3.0639,3.0518,3.0344,3.0267,3.0112,3.001,3.0309,3.0375,3.0617,3.1774,3.2201,3.2271,3.2174,3.2849,3.3168,3.1953,3.2283,3.2746,3.2459,3.183,3.1268,3.1079,3.104,3.104,3.104,3.0547,3.0195,3.0195,2.9724,2.9448,2.9604,2.9476,2.9448,2.9648,2.9648,2.9648,2.9648,2.9074,2.8286,2.7288,2.6656,2.5768,2.4505,2.4348,2.4271,2.4302,2.3824,2.3465,2.3246,2.2905,2.2634,0.0,0.0,0.0,0.0,0.0,-0.0336,0.0,0.0,0.0,0.2618,0.0,0.0,0.0,0.0,0.0,0.0,0.0,0.0,0.0,0.0,0.0,0.0,0.0,0.0,0.0,1.853,1.9283,2.0777,2.1402,2.2109,2.3038,2.3172,2.3638,2.4542,2.4623,2.4847,2.5259,2.5668,2.5885,2.5885,2.6258,2.6555,2.6791,2.6987,2.7348,2.7833,2.8138,2.8474,2.8827,2.8993,2.9169,2.9394,2.9901,3.0124,3.0183,3.0491,3.0559,3.0498,3.0642,3.0638,3.0572,3.0665,3.0587,3.0453,3.0375,3.0336,3.0443,3.107,3.1362,3.1732,3.3032,3.3482,3.3573,3.3399,3.403,3.4292,3.2926,3.3146,3.346,3.2997,3.311,3.3135,3.2606,3.2509,3.2509,3.2509,3.1952,3.1491,3.1491,3.0769,3.0303,3.0599,3.036,3.027,3.0553,3.053,3.049,3.049,3.0142,2.942,2.8277,2.7886,2.704,2.5664,2.5287,2.4989,2.4728,2.4648,2.4241,2.3595,2.3595,2.3377,0.0,0.0,0.0,0.0,-0.208,0.0,0.0,0.0,0.0739,0.235,0.0,0.0,0.0,0.0,0.0,0.0,0.0,0.0,0.0,0.0,0.0,0.0,0.0,0.0,0.0,0.0,2.1637,2.1803,2.1959,2.2374,2.3083,2.2979,2.3406,2.4395,2.4704,2.5059,2.5465,2.5937,2.6168,2.6168,2.6203,2.6239,2.6258,2.6293,2.6607,2.7134,2.7607,2.8067,2.8579,2.8824,2.8997,2.9169,2.9589,2.9827,2.9956,3.019,3.0312,3.0443,3.0633,3.0729,3.0761,3.0703,3.0679,3.0645,3.0588,3.0962,3.1419,3.1456,3.239,3.3422,3.3615,3.4168,3.4718,3.468,3.4774,3.4813,3.4623,3.4661,3.4698,3.464,3.4515,3.4091,3.3105,3.2911,3.2911,3.2911,3.2542,3.2276,3.2276,3.2175,3.209,3.2158,3.1952,3.1845,3.1881,3.1662,3.1531,3.1531,2.9901,2.8907,2.8738,2.7083,2.6245,2.6472,2.6025,2.5955,2.6335,2.5919,2.4978,2.3595,2.3595,2.3551,0.0,0.0,0.0,0.0,0.0,0.0,-0.1342,0.0,0.0201,0.0,0.0,0.0,0.0,0.0,0.0,0.0,0.0,0.0,0.0,0.0,0.0,0.0,0.0,0.0,0.0,0.0,0.0,0.0,0.0,2.2815,2.3739,2.3739,2.4021,2.4664,2.4823,2.4981,2.516,2.5572,2.5811,2.5811,2.6079,2.622,2.622,2.6345,2.659,2.6903,2.7269,2.7584,2.7875,2.8262,2.8478,2.8578,2.8956,2.9359,2.9765,3.0042,3.0177,3.0251,3.0471,3.053,3.0581,3.0714,3.0739,3.0706,3.0712,3.0892,3.1274,3.2166,3.28,3.3415,3.4381,3.4885,3.5102,3.4981,3.5016,3.5032,3.4925,3.4906,3.4888,3.4908,3.4832,3.4617,3.4186,3.4012,3.3931,3.3931,3.365,3.3414,3.327,3.2955,3.2849,3.3069,3.2805,3.2727,3.2952,3.2858,3.2599,3.2085,3.0462,2.9667,2.9986,2.8136,2.7168,2.7238,2.6853,2.6639,2.6606,2.6404,2.5832,2.4939,2.4489,2.4184,-0.4815,0.0,0.0,0.0,0.0,0.0,0.0,0.0,0.0,0.0,0.0,0.0,0.0,0.0,0.0,0.0,0.0,0.0,0.0,0.0,0.0,0.0,0.0,0.0,0.0,0.0,0.0,0.0,0.0,0.0,2.3967,2.4135,2.4354,2.4823,2.4942,2.5075,2.523,2.5535,2.5684,2.5684,2.6043,2.622,2.622,2.6415,2.6521,2.6657,2.6956,2.7164,2.7272,2.7678,2.7964,2.8156,2.846,2.8901,2.942,2.9758,2.9939,3.0013,3.0225,3.0329,3.043,3.0691,3.0749,3.0718,3.0761,3.0902,3.1343,3.276,3.3219,3.36,3.5059,3.5441,3.5393,3.5239,3.5251,3.5277,3.5155,3.51,3.5081,3.5086,3.5049,3.503,3.5088,3.487,3.4689,3.467,3.4508,3.4357,3.4213,3.3817,3.3668,3.3968,3.3668,3.3542,3.3787,3.3778,3.3258,3.2161,3.1027,3.0428,3.0428,2.9258,2.8461,2.8102,2.7833,2.7578,2.73,2.7239,2.6988,2.6487,2.5546,2.4948,0.0,0.0,0.0,-0.4821,0.0,0.0,0.0,0.0,-0.0807,0.0,0.0,0.0,0.0,0.0,0.0,0.0,0.0,0.0,0.0,0.0,0.0,0.0,0.0,0.0,0.0,0.0,0.0,0.0,0.0,0.0,2.3319,2.3668,2.4105,2.4672,2.502,2.5513,2.6132,2.6168,2.6184,2.6184,2.6168,2.622,2.622,2.6203,2.622,2.6239,2.664,2.6825,2.6841,2.7117,2.7607,2.821,2.8218,2.8474,2.8865,2.9204,2.9476,2.9729,2.9935,3.0189,3.0434,3.0635,3.069,3.0689,3.07,3.1288,3.2139,3.3033,3.3856,3.4638,3.5538,3.5781,3.5759,3.57,3.5623,3.5604,3.5663,3.5611,3.5589,3.5589,3.5432,3.5345,3.5547,3.5207,3.4889,3.4888,3.4888,3.4906,3.4962,3.4962,3.4925,3.4962,3.4718,3.4504,3.4373,3.4195,3.3361,3.1616,3.1486,3.0766,2.9211,2.9843,2.9861,2.906,2.9042,2.9042,2.9001,2.8888,2.8548,2.7987,2.6553,2.587,0.0,0.0,-0.3618,-0.4225,0.0,0.0,0.0,0.0,0.0,0.0,0.0,0.0,0.0,0.0,0.0,0.0,0.0,0.0,0.0,0.0,0.0,0.0,0.0,0.0,0.0,0.0,0.0,0.0,2.2867,0.0,0.0,2.3809,2.4214,2.4958,2.5075,2.5362,2.5807,2.5807,2.5807,2.5807,2.5787,2.5787,2.5807,2.5807,2.5807,2.5807,2.6082,2.633,2.6487,2.6891,2.7307,2.7683,2.7823,2.8174,2.8652,2.9027,2.9282,2.9495,2.9877,3.0112,3.0287,3.0404,3.0527,3.0642,3.0691,3.0944,3.1503,3.2901,3.3529,3.4086,3.5457,3.5799,3.5799,3.5764,3.5745,3.5732,3.5762,3.5743,3.5712,3.5674,3.5152,3.4901,3.55,3.5039,3.4706,3.5108,3.5168,3.5117,3.5015,3.4997,3.4997,3.4997,3.4924,3.485,3.4794,3.3715,3.277,3.2128,3.1017,3.0301,3.0144,2.9876,2.9752,2.9884,2.9385,2.9643,3.0761,2.9599,2.9214,2.9533,2.85,2.742,-0.5014,-0.4148,0.0,-0.3889,-0.3084,0.0,-0.3021,0.0,0.0,0.0,0.0,0.0,0.0,0.0,0.0,0.0,0.0,0.0,0.0,1.5898,0.0,0.0,0.0,0.0,0.0,0.0,2.1902,2.2184,0.0,0.0,0.0,0.0,2.4271,2.4974,2.5107,2.5301,2.5605,2.5605,2.5605,2.5584,2.56,2.5584,2.5605,2.5605,2.5605,2.5605,2.5733,2.5901,2.6066,2.6383,2.6791,2.7224,2.7361,2.7787,2.8376,2.8748,2.9071,2.94,2.9765,2.9943,3.0042,3.0163,3.0301,3.046,3.055,3.0646,3.1025,3.2434,3.3099,3.3668,3.502,3.5607,3.5841,3.5861,3.5841,3.5849,3.5833,3.5821,3.5796,3.5737,3.5272,3.5059,3.5588,3.5234,3.5001,3.5353,3.5435,3.5407,3.5262,3.5247,3.5247,3.5247,3.5247,3.5232,3.5184,3.3589,3.2584,3.2549,3.1191,3.0579,3.097,3.0731,3.0791,3.1166,3.0678,3.0922,3.195,3.0541,3.0068,3.0445,2.9604,2.8561]},{"header":{"parameterUnit":"m.s-1","parameterCategory":1,"la1":30.6,"la2":29.2853,"lo1":-89.7004,"lo2":-87.6739,"dy":0.0162,"dx":0.0183,"nx":112,"ny":82,"refTime":"2024-06-25T06:00:00:Z","depth":0,"parameterNumber":3,"parameterNumberName":"V-component_of_WINDS"},"data":[0.0,0.0,0.0,0.0,0.0,0.0,0.0,0.0,0.0,0.0,0.0,0.0,0.0,0.0,0.0,0.0,0.0,0.0,0.0,0.0,0.0,0.0,0.0,0.0,0.0,0.0,0.0,0.0,0.0,0.0,0.0,0.0,0.0,0.0,0.0,0.0,0.0,0.0,0.0,0.0,0.0,0.0,0.0,0.0,0.0,0.0,0.0,0.0,0.0,0.0,0.0,0.0,0.0,0.0,0.0,0.0,0.0,0.0,0.0,0.0,0.0,0.0,0.0,0.0,0.0,0.0,0.0,0.0,0.0,0.0,0.0,0.0,0.0,0.0,0.0,0.0,0.0,0.0,0.0,0.0,0.0,0.0,0.0,0.0,0.0,0.0,0.0,0.0,0.0,0.0,-1.8537,-1.8608,-1.8906,-1.9434,-2.0181,-2.1091,-2.1148,-2.0069,0.0,0.0,0.0,0.0,0.0,0.0,0.0,0.0,0.0,0.0,0.0,0.0,0.0,0.0,0.0,0.0,0.0,0.0,0.0,0.0,0.0,0.0,0.0,0.0,0.0,0.0,0.0,0.0,0.0,0.0,0.0,0.0,0.0,0.0,0.0,0.0,0.0,0.0,0.0,0.0,0.0,0.0,0.0,0.0,0.0,0.0,0.0,0.0,0.0,0.0,0.0,0.0,0.0,0.0,0.0,0.0,0.0,0.0,0.0,0.0,0.0,0.0,0.0,0.0,0.0,0.0,0.0,0.0,0.0,0.0,0.0,0.0,0.0,0.0,0.0,0.0,0.0,0.0,0.0,0.0,0.0,0.0,0.0,0.0,0.0,0.0,0.0,0.0,0.0,0.0,0.0,0.0,0.0,0.0,0.0,0.0,0.0,0.0,0.0,0.0,0.0,0.0,0.0,0.0,-1.8735,-1.951,-1.9635,-2.0155,-2.1272,-2.1513,-2.1425,-2.1034,0.0,0.0,0.0,0.0,0.0,0.0,0.0,0.0,0.0,0.0,0.0,0.0,0.0,0.0,0.0,0.0,0.0,0.0,0.0,0.0,0.0,0.0,0.0,0.0,0.0,0.0,0.0,0.0,0.0,0.0,0.0,0.0,0.0,0.0,0.0,0.0,0.0,0.0,0.0,0.0,0.0,0.0,0.0,0.0,0.0,0.0,0.0,0.0,0.0,0.0,0.0,0.0,0.0,0.0,0.0,0.0,0.0,0.0,0.0,0.0,0.0,0.0,0.0,0.0,0.0,0.0,0.0,0.0,0.0,0.0,0.0,0.0,0.0,0.0,0.0,0.0,0.0,0.0,0.0,0.0,0.0,0.0,0.0,0.0,0.0,0.0,0.0,0.0,0.0,0.0,0.0,0.0,0.0,0.0,0.0,0.0,0.0,0.0,0.0,0.0,0.0,0.0,0.0,-1.8419,-1.8932,-1.9723,-1.9759,-2.0055,-2.0979,-2.1321,-2.1287,-2.0755,-2.0088,0.0,0.0,0.0,0.0,0.0,0.0,0.0,0.0,0.0,0.0,0.0,0.0,0.0,0.0,0.0,0.0,0.0,0.0,0.0,0.0,0.0,0.0,0.0,0.0,0.0,0.0,0.0,0.0,0.0,0.0,0.0,0.0,0.0,0.0,0.0,0.0,0.0,0.0,0.0,0.0,0.0,0.0,0.0,0.0,0.0,0.0,0.0,0.0,0.0,0.0,0.0,0.0,0.0,0.0,0.0,0.0,0.0,0.0,0.0,0.0,0.0,0.0,0.0,0.0,0.0,0.0,0.0,0.0,0.0,0.0,0.0,0.0,0.0,0.0,0.0,0.0,0.0,0.0,0.0,0.0,0.0,0.0,0.0,0.0,0.0,0.0,0.0,0.0,0.0,0.0,0.0,0.0,0.0,0.0,0.0,0.0,0.0,0.0,0.0,0.0,0.0,0.0,-1.8896,-1.9195,-1.9709,-1.9759,-2.0003,-2.066,-2.1102,-2.1089,-2.0443,-1.9512,0.0,0.0,0.0,0.0,0.0,0.0,0.0,0.0,0.0,0.0,0.0,0.0,0.0,0.0,0.0,0.0,0.0,0.0,0.0,0.0,0.0,0.0,0.0,0.0,0.0,0.0,0.0,0.0,0.0,0.0,0.0,0.0,0.0,0.0,0.0,0.0,0.0,0.0,0.0,0.0,0.0,0.0,0.0,0.0,0.0,0.0,0.0,0.0,0.0,0.0,0.0,0.0,0.0,0.0,0.0,0.0,0.0,0.0,0.0,0.0,0.0,0.0,0.0,0.0,0.0,0.0,0.0,0.0,0.0,0.0,0.0,0.0,0.0,0.0,0.0,0.0,0.0,0.0,0.0,0.0,0.0,0.0,0.0,0.0,0.0,0.0,0.0,0.0,0.0,0.0,0.0,0.0,0.0,0.0,0.0,0.0,0.0,0.0,0.0,0.0,0.0,0.0,-1.8996,-1.9567,-1.9604,-2.0067,-2.051,-2.0944,-2.1148,-2.1092,-2.0782,-1.9419,0.0,0.0,0.0,0.0,0.0,0.0,0.0,0.0,0.0,0.0,0.0,0.0,0.0,0.0,0.0,0.0,0.0,0.0,0.0,0.0,0.0,0.0,0.0,0.0,0.0,0.0,0.0,0.0,0.0,0.0,0.0,0.0,0.0,0.0,0.0,0.0,0.0,0.0,0.0,0.0,0.0,0.0,0.0,0.0,0.0,0.0,0.0,0.0,0.0,0.0,0.0,0.0,0.0,0.0,0.0,0.0,0.0,0.0,0.0,0.0,0.0,0.0,0.0,0.0,0.0,0.0,0.0,0.0,0.0,0.0,0.0,0.0,0.0,0.0,0.0,0.0,0.0,0.0,0.0,0.0,0.0,0.0,0.0,0.0,0.0,0.0,0.0,0.0,0.0,0.0,0.0,0.0,0.0,0.0,0.0,0.0,0.0,0.0,0.0,0.0,0.0,0.0,-1.8795,-1.9384,0.0,-2.0308,-2.0497,-2.1444,-2.1525,-2.1338,-2.0838,0.0,0.0,0.0,0.0,0.0,0.0,0.0,0.0,0.0,0.0,0.0,0.0,0.0,0.0,0.0,0.0,0.0,0.0,0.0,0.0,0.0,0.0,0.0,0.0,0.0,0.0,0.0,0.0,0.0,0.0,0.0,0.0,0.0,0.0,0.0,0.0,0.0,0.0,0.0,0.0,0.0,0.0,0.0,0.0,0.0,0.0,0.0,0.0,0.0,0.0,0.0,0.0,0.0,0.0,0.0,0.0,0.0,0.0,0.0,0.0,0.0,0.0,0.0,0.0,0.0,0.0,0.0,0.0,0.0,0.0,0.0,0.0,0.0,0.0,0.0,0.0,0.0,0.0,0.0,0.0,0.0,0.0,0.0,0.0,0.0,0.0,0.0,0.0,0.0,0.0,0.0,0.0,0.0,0.0,0.0,0.0,0.0,0.0,0.0,0.0,0.0,0.0,-1.8649,-1.8953,-1.9535,0.0,-2.0696,-2.0795,-2.1616,-2.162,-2.1278,-2.0524,0.0,0.0,0.0,0.0,0.0,0.0,0.0,0.0,0.0,0.0,0.0,0.0,0.0,0.0,0.0,0.0,0.0,0.0,0.0,0.0,0.0,0.0,0.0,0.0,0.0,0.0,0.0,0.0,0.0,0.0,0.0,0.0,0.0,0.0,0.0,0.0,0.0,0.0,0.0,0.0,0.0,0.0,0.0,0.0,0.0,0.0,0.0,0.0,0.0,0.0,0.0,0.0,0.0,0.0,0.0,0.0,0.0,0.0,0.0,0.0,0.0,0.0,0.0,0.0,0.0,0.0,0.0,0.0,0.0,0.0,0.0,0.0,0.0,0.0,0.0,0.0,0.0,0.0,0.0,0.0,0.0,0.0,0.0,0.0,0.0,0.0,0.0,0.0,0.0,0.0,0.0,0.0,0.0,0.0,0.0,0.0,0.0,0.0,0.0,0.0,0.0,0.0,-1.8662,-1.9502,-2.0194,-2.0746,-2.1251,-2.1568,-2.1423,-2.1209,-2.07,0.0,0.0,0.0,0.0,0.0,0.0,0.0,0.0,0.0,0.0,0.0,0.0,0.0,0.0,0.0,0.0,0.0,0.0,0.0,0.0,0.0,0.0,0.0,0.0,0.0,0.0,0.0,0.0,0.0,0.0,0.0,0.0,0.0,0.0,0.0,0.0,0.0,0.0,0.0,0.0,0.0,0.0,0.0,0.0,0.0,0.0,0.0,0.0,0.0,0.0,0.0,0.0,0.0,0.0,0.0,0.0,0.0,0.0,0.0,0.0,0.0,0.0,0.0,0.0,0.0,0.0,0.0,0.0,0.0,0.0,0.0,0.0,0.0,0.0,0.0,0.0,0.0,0.0,0.0,0.0,0.0,0.0,0.0,0.0,0.0,0.0,0.0,0.0,0.0,0.0,0.0,0.0,0.0,0.0,0.0,0.0,0.0,0.0,0.0,0.0,0.0,0.0,0.0,-1.8969,-1.9939,-2.0894,-2.1684,-2.1602,-2.1616,-2.1949,-2.1695,-2.1024,-1.9918,0.0,0.0,0.0,0.0,0.0,0.0,0.0,0.0,0.0,0.0,0.0,0.0,0.0,0.0,0.0,0.0,0.0,0.0,0.0,0.0,0.0,0.0,0.0,0.0,0.0,0.0,0.0,0.0,0.0,0.0,0.0,0.0,0.0,0.0,0.0,0.0,0.0,0.0,0.0,0.0,0.0,0.0,0.0,0.0,0.0,0.0,0.0,0.0,0.0,0.0,0.0,0.0,0.0,0.0,0.0,0.0,0.0,0.0,0.0,0.0,0.0,0.0,0.0,0.0,0.0,0.0,0.0,0.0,0.0,0.0,0.0,0.0,0.0,0.0,0.0,0.0,0.0,0.0,0.0,0.0,0.0,0.0,0.0,0.0,0.0,0.0,0.0,0.0,0.0,0.0,0.0,0.0,0.0,0.0,0.0,0.0,0.0,0.0,0.0,0.0,0.0,0.0,-1.9065,-2.0287,-2.1348,-2.2137,-2.1902,-2.1888,-2.2356,-2.1844,-2.1104,-2.0181,0.0,0.0,0.0,0.0,0.0,0.0,0.0,0.0,0.0,0.0,0.0,0.0,0.0,0.0,0.0,0.0,0.0,0.0,0.0,0.0,0.0,0.0,0.0,0.0,0.0,0.0,0.0,0.0,0.0,0.0,0.0,0.0,0.0,0.0,0.0,0.0,0.0,0.0,0.0,0.0,0.0,0.0,0.0,0.0,0.0,0.0,0.0,0.0,0.0,0.0,0.0,0.0,0.0,0.0,0.0,0.0,0.0,0.0,0.0,0.0,0.0,0.0,0.0,0.0,0.0,0.0,0.0,0.0,0.0,0.0,0.0,0.0,0.0,0.0,0.0,0.0,0.0,0.0,0.0,0.0,0.0,0.0,0.0,0.0,0.0,0.0,0.0,0.0,0.0,0.0,0.0,0.0,0.0,0.0,0.0,0.0,0.0,0.0,0.0,0.0,0.0,0.0,-1.907,-2.0482,-2.1582,-2.2053,-2.209,-2.2186,-2.2476,-2.1754,-2.103,-2.0451,0.0,0.0,0.0,0.0,0.0,0.0,0.0,0.0,0.0,0.0,0.0,0.0,0.0,0.0,0.0,0.0,0.0,0.0,0.0,0.0,0.0,0.0,0.0,0.0,0.0,0.0,0.0,0.0,0.0,0.0,0.0,0.0,0.0,0.0,0.0,0.0,0.0,0.0,0.0,0.0,0.0,0.0,0.0,0.0,0.0,0.0,0.0,0.0,0.0,0.0,0.0,0.0,0.0,0.0,0.0,0.0,0.0,0.0,0.0,0.0,-1.5141,0.0,0.0,0.0,0.0,0.0,0.0,0.0,0.0,0.0,0.0,0.0,0.0,0.0,0.0,0.0,0.0,0.0,0.0,0.0,0.0,0.0,0.0,0.0,0.0,0.0,0.0,0.0,0.0,0.0,0.0,0.0,0.0,0.0,0.0,0.0,0.0,0.0,0.0,0.0,0.0,0.0,-1.9462,-2.0588,-2.1377,-2.1454,-2.1282,-2.114,-2.1183,-2.1477,-2.1165,-1.9966,-1.9633,0.0,0.0,0.0,0.0,0.0,0.0,0.0,0.0,0.0,0.0,0.0,0.0,0.0,0.0,0.0,0.0,0.0,0.0,0.0,0.0,0.0,0.0,0.0,0.0,0.0,0.0,0.0,0.0,0.0,0.0,0.0,0.0,0.0,0.0,0.0,0.0,0.0,0.0,0.0,0.0,0.0,0.0,0.0,0.0,0.0,0.0,0.0,0.0,0.0,0.0,0.0,0.0,0.0,0.0,0.0,0.0,0.0,0.0,0.0,0.0,-1.5864,0.0,0.0,0.0,0.0,0.0,0.0,0.0,0.0,0.0,0.0,0.0,0.0,0.0,0.0,0.0,0.0,0.0,0.0,0.0,0.0,0.0,0.0,0.0,0.0,0.0,0.0,0.0,0.0,0.0,0.0,0.0,0.0,0.0,0.0,0.0,0.0,0.0,0.0,0.0,0.0,-1.9627,-2.0657,-2.1346,-2.1465,-2.1069,-2.0947,-2.1234,-2.1311,-2.0941,-2.0056,-1.9756,0.0,0.0,0.0,0.0,0.0,0.0,0.0,0.0,0.0,0.0,0.0,0.0,0.0,0.0,0.0,0.0,0.0,0.0,0.0,0.0,0.0,0.0,0.0,0.0,0.0,0.0,0.0,0.0,0.0,0.0,0.0,0.0,0.0,0.0,0.0,0.0,0.0,0.0,0.0,0.0,0.0,0.0,0.0,0.0,0.0,0.0,0.0,0.0,0.0,0.0,0.0,0.0,0.0,-1.6462,-1.6462,-1.6462,-1.6462,-1.6892,-1.7592,-1.6846,-1.6961,-1.7658,0.0,0.0,0.0,0.0,0.0,0.0,0.0,0.0,0.0,0.0,0.0,0.0,0.0,0.0,0.0,0.0,0.0,0.0,0.0,0.0,0.0,0.0,0.0,0.0,0.0,-1.8264,-1.9154,0.0,0.0,0.0,0.0,0.0,0.0,0.0,0.0,0.0,0.0,0.0,0.0,-1.996,-2.074,-2.1309,-2.1513,-2.1007,-2.0856,-2.1383,-2.1107,-2.0679,-2.0147,-1.9923,-1.9466,0.0,0.0,0.0,0.0,0.0,0.0,0.0,0.0,0.0,0.0,0.0,0.0,0.0,0.0,0.0,0.0,0.0,0.0,0.0,0.0,0.0,0.0,0.0,0.0,0.0,0.0,0.0,0.0,0.0,0.0,0.0,0.0,-1.4998,-1.5453,0.0,0.0,0.0,0.0,0.0,0.0,0.0,0.0,0.0,0.0,0.0,0.0,0.0,-1.6261,-1.6311,-1.6673,-1.6834,-1.6834,-1.7118,-1.7265,-1.7265,-1.7265,-1.7301,-1.741,-1.7301,0.0,-1.7744,-1.8082,0.0,0.0,0.0,0.0,0.0,0.0,0.0,0.0,0.0,0.0,0.0,0.0,0.0,0.0,0.0,0.0,0.0,0.0,0.0,0.0,0.0,0.0,-2.0565,-2.0973,-2.122,-2.1356,0.0,-1.994,-1.8649,-1.8296,-1.8702,0.0,0.0,0.0,0.0,0.0,0.0,0.0,-2.1049,-2.0954,-2.0868,-2.0896,-2.0342,-1.9987,-2.0059,-2.0782,-2.0711,-1.9502,-1.9608,-1.942,-1.8722,-1.8317,0.0,0.0,0.0,0.0,0.0,0.0,0.0,0.0,0.0,0.0,0.0,0.0,0.0,0.0,0.0,0.0,0.0,0.0,0.0,0.0,0.0,0.0,0.0,0.0,0.0,0.0,0.0,0.0,0.0,-1.3883,-1.4804,-1.5266,-1.5395,-1.5487,0.0,0.0,0.0,0.0,0.0,0.0,0.0,0.0,0.0,-1.7826,-1.8216,-1.8573,-1.8814,-1.8988,-1.8887,-1.8536,-1.8694,-1.859,-1.8289,-1.7989,-1.7857,-1.7845,-1.7544,-1.7446,-1.7585,-1.8085,-1.7893,-1.7277,0.0,0.0,0.0,0.0,-1.8715,-1.8765,-2.0046,-2.0402,0.0,-1.9886,0.0,0.0,0.0,0.0,0.0,0.0,0.0,0.0,0.0,0.0,0.0,-2.1055,-2.1361,-2.1568,-2.1568,-2.107,-2.0419,0.0,-1.9867,-1.9913,-1.907,0.0,0.0,0.0,0.0,-2.0808,-2.1305,-2.1348,-2.1426,-2.1595,-2.1218,-2.0894,-2.066,-2.1065,-2.0806,-1.9656,-1.983,-1.9739,-1.9239,-1.905,-1.8913,0.0,0.0,0.0,0.0,0.0,0.0,0.0,0.0,0.0,0.0,0.0,0.0,0.0,0.0,0.0,0.0,0.0,0.0,0.0,0.0,0.0,0.0,0.0,0.0,0.0,0.0,0.0,0.0,-1.4058,-1.4757,-1.5279,-1.551,-1.5626,0.0,0.0,0.0,0.0,0.0,0.0,-1.7396,-1.8389,-1.9112,-1.9353,-1.9927,-2.0389,-2.077,-2.0625,-2.029,-1.978,-1.9504,-1.9167,-1.877,-1.8241,-1.8001,-1.7977,-1.758,-1.7412,-1.7448,-1.7845,-1.7772,-1.7472,-1.8001,-1.793,-1.7715,-1.8769,-1.9126,-1.9304,-2.0671,-2.1117,-2.1035,-2.0781,0.0,-2.022,-1.9872,0.0,0.0,0.0,0.0,-2.063,-2.1032,-2.1153,-2.114,-2.1042,-2.1299,-2.1616,-2.1616,-2.1949,-2.1904,0.0,-2.0945,-2.0933,-2.0148,0.0,0.0,0.0,0.0,-2.1162,-2.1677,-2.1835,-2.2017,-2.23,-2.2159,-2.1896,-2.1651,-2.145,-2.1007,-2.0194,-2.0231,-2.0168,-1.9947,-1.9994,-1.9994,-1.994,0.0,0.0,0.0,0.0,0.0,0.0,0.0,0.0,0.0,0.0,0.0,0.0,0.0,0.0,0.0,0.0,0.0,0.0,0.0,0.0,0.0,0.0,0.0,0.0,0.0,0.0,0.0,0.0,0.0,-1.6244,-1.6192,0.0,0.0,0.0,0.0,-1.6277,-1.733,-1.834,-1.9148,-1.9597,-2.0087,-2.0685,-2.0632,-2.061,-2.061,-2.0081,-1.9805,-1.9768,-1.8758,-1.8265,-1.8229,-1.77,-1.7448,-1.7448,-1.7424,-1.7412,-1.7412,-1.7448,-1.7436,-1.7472,-1.8001,-1.8117,-1.8182,-1.9265,-1.9326,-1.8963,-2.0064,-2.0108,-1.9785,-2.0269,-1.9795,-1.9179,-2.0284,-2.0003,0.0,0.0,-2.1076,-2.1623,-2.203,-2.2137,-2.2137,-2.2123,-2.2137,-2.2184,-2.2184,-2.2184,-2.217,0.0,-2.2128,-2.2175,-2.2239,0.0,-2.21,-2.2267,-2.2175,-2.2221,-2.2603,-2.2353,-2.2342,-2.272,-2.2491,-2.2346,-2.2502,-2.1895,-2.1349,-2.1055,-2.0701,-2.0582,-2.0833,-2.1066,-2.1092,-2.0833,-2.0716,0.0,0.0,0.0,0.0,0.0,0.0,0.0,0.0,0.0,0.0,0.0,0.0,0.0,0.0,0.0,0.0,0.0,0.0,0.0,0.0,0.0,0.0,0.0,0.0,0.0,0.0,0.0,0.0,-1.592,-1.6161,0.0,-1.6853,-1.7445,-1.7934,-1.827,-1.9362,-2.0181,-2.0374,-2.0791,-2.1091,-2.1338,-2.15,-2.1632,-2.1632,-2.144,-2.0995,-2.031,-1.9937,-1.9384,-1.8698,-1.8157,-1.7917,-1.7905,-1.7568,-1.7412,-1.7412,-1.7412,-1.7616,-1.7977,-1.8506,-1.89,-1.9283,-2.0034,-2.0373,-2.0597,-2.131,-2.1447,-2.1226,-2.103,-2.075,-2.0536,-2.0952,-2.1111,-2.1246,-2.156,-2.1829,-2.1946,-2.1693,-2.164,-2.1541,-2.1117,-2.1032,-2.1145,-2.1555,-2.164,-2.1843,-2.2563,-2.2434,-2.2263,-2.254,-2.2572,-2.2632,-2.2949,-2.2963,-2.2949,-2.3083,-2.3185,-2.3293,-2.3435,-2.3514,-2.3553,-2.3506,-2.3259,-2.3138,-2.3158,-2.2551,-2.2329,-2.2683,-2.2289,-2.2017,-2.1936,-2.1397,-2.0605,0.0,0.0,0.0,0.0,0.0,0.0,0.0,0.0,0.0,0.0,0.0,0.0,0.0,0.0,0.0,0.0,0.0,0.0,0.0,0.0,0.0,0.0,0.0,0.0,0.0,0.0,-1.5629,-1.5879,-1.63,-1.6777,-1.7172,-1.8419,-1.9194,-1.9324,-2.0614,-2.1301,-2.1141,-2.1546,-2.1777,-2.1777,-2.1898,-2.1921,-2.1921,-2.174,-2.1296,-2.061,-2.043,-1.9961,-1.9239,-1.871,-1.847,-1.8446,-1.8097,-1.7941,-1.7941,-1.7941,-1.8157,-1.8482,-1.8858,-1.9219,-1.9557,-2.0306,-2.0798,-2.112,-2.1489,-2.158,-2.1538,-2.1372,-2.1175,-2.1048,-2.126,-2.1597,-2.1921,-2.1921,-2.2016,-2.2044,-2.1471,-2.1316,-2.1161,-2.054,-2.0555,-2.0793,-2.1217,-2.1561,-2.1996,-2.2728,-2.2603,-2.248,-2.2934,-2.2934,-2.2934,-2.3083,-2.326,-2.3392,-2.3392,-2.3767,-2.4063,-2.4204,-2.4492,-2.465,-2.4596,-2.436,-2.4346,-2.4723,-2.3936,-2.3654,-2.4076,-2.3266,-2.2801,-2.2801,-2.1959,-2.1468,-2.1315,0.0,0.0,0.0,0.0,0.0,0.0,0.0,0.0,0.0,0.0,0.0,0.0,0.0,0.0,0.0,0.0,0.0,0.0,0.0,0.0,0.0,0.0,0.0,-1.391,-1.459,-1.5469,-1.6227,-1.6758,-1.7183,-1.7709,-1.8879,-1.9477,-1.9235,-2.0795,-2.1701,-2.1428,-2.1897,-2.2161,-2.2173,-2.1656,-2.138,-2.138,-2.0839,-2.0574,-2.0586,-2.0033,-1.9768,-1.9744,-1.9227,-1.8987,-1.8987,-1.8987,-1.8987,-1.8987,-1.8987,-1.8987,-1.9044,-1.9008,-1.9019,-1.9074,-2.0153,-2.0488,-2.0456,-2.0456,-2.0442,-2.0512,-2.1133,-2.0878,-2.0526,-2.1133,-2.1316,-2.1344,-2.1344,-2.1766,-2.2044,-2.1471,-2.1316,-2.1161,-2.0584,-2.0865,-2.1288,-2.1302,-2.2038,-2.2725,-2.274,-2.274,-2.292,-2.3508,-2.3436,-2.3172,-2.2844,-2.3246,0.0,-2.3638,-2.4116,-2.4583,-2.4966,-2.5246,-2.5497,-2.5684,-2.5049,-2.4923,-2.561,-2.479,-2.4498,-2.4957,-2.4015,-2.349,-2.3456,-2.2521,-2.24,-2.3103,0.0,0.0,0.0,0.0,0.0,0.0,0.0,0.0,0.0,0.0,0.0,0.0,0.0,0.0,0.0,0.0,0.0,0.0,0.0,0.0,0.0,-1.4105,-1.5061,-1.5068,-1.5891,-1.6704,-1.7226,-1.7421,-1.7719,-1.8164,-1.893,-1.9456,-1.9522,-2.0973,-2.1675,-2.1179,-2.1534,-2.1729,-2.162,-2.1103,-2.0827,-2.0827,-2.0658,-2.0382,-2.0009,-1.9853,-1.9588,-1.9203,-1.9059,-1.8987,-1.8987,-1.8987,-1.8987,-1.8987,-1.8987,-1.9251,-1.9579,-1.9584,-1.9787,-2.0214,-2.0919,-2.1415,-2.1693,-2.1693,-2.1397,-2.1091,-2.126,-2.1203,-2.1105,-2.126,-2.1626,-2.1978,-2.1978,-2.2044,-2.2044,-2.1471,-2.1316,-2.1191,-2.0869,-2.0897,-2.1211,-2.1873,-2.2235,-2.2671,-2.3533,-2.3595,-2.3566,-2.3696,-2.3711,-2.3739,-2.4021,-2.4245,0.0,-2.4589,-2.4902,-2.5114,-2.5005,-2.5246,-2.5556,-2.5961,-2.5799,-2.6031,-2.6764,-2.6607,-2.6505,-2.663,-2.5811,-2.5082,-2.4491,-2.3998,-2.353,0.0,0.0,0.0,0.0,0.0,0.0,0.0,0.0,0.0,0.0,0.0,0.0,0.0,0.0,0.0,0.0,0.0,0.0,0.0,0.0,0.0,0.0,-1.5001,-1.6028,-1.6451,-1.695,-1.7502,-1.7947,-1.7999,-1.8175,-1.862,-1.9297,-1.9586,-1.9437,-2.0751,-2.1434,-2.1063,-2.126,-2.1555,-2.1958,-2.1112,-2.0776,-2.0993,-2.0535,-2.0081,-1.978,-1.9552,-1.9287,-1.8987,-1.8987,-1.8987,0.0,-1.8987,-1.8987,-1.904,-1.9251,-1.95,0.0,0.0,0.0,0.0,0.0,-2.1949,-2.2184,-2.2184,-2.1945,-2.1696,-2.1696,-2.1696,-2.1696,-2.1696,-2.2027,-2.2402,-2.2402,-2.254,-2.2534,-2.1887,-2.1729,-2.1614,-2.1216,-2.1301,-2.1649,-2.217,-2.2691,-2.3257,-2.3945,-2.4204,0.0,-2.4287,-2.4219,-2.4204,-2.4477,-2.4839,-2.5091,-2.5075,-2.5519,-2.5758,-2.5589,-2.5815,-2.6104,-2.6385,-2.6385,0.0,0.0,0.0,-2.695,-2.6691,-2.6213,0.0,0.0,0.0,0.0,0.0,0.0,0.0,0.0,-2.3984,-2.3647,0.0,0.0,0.0,0.0,0.0,0.0,0.0,0.0,0.0,0.0,0.0,0.0,0.0,0.0,0.0,0.0,-1.6257,-1.7216,-1.7616,-1.7724,-1.7968,-1.8402,-1.8454,-1.862,-1.9034,-1.9607,-1.9673,-1.919,-2.0339,-2.1008,-2.0946,0.0,0.0,0.0,0.0,-2.1046,-2.1533,-2.0459,-1.992,-1.992,-1.9336,-1.9107,-1.9167,-1.9047,-1.9023,-1.9083,-1.9011,-1.904,-1.9146,-1.9592,-1.985,-2.0055,-2.051,-2.1019,-2.1568,-2.2044,-2.2184,-2.2184,-2.2184,0.0,0.0,-2.2184,-2.2184,-2.2184,-2.2184,-2.2402,-2.2663,-2.2754,-2.2979,-2.3128,-2.2566,-2.2461,-2.2313,-2.1817,-2.2114,-2.2545,-2.2572,-2.3428,-2.4204,-2.4204,-2.463,-2.5005,-2.5045,-2.4831,-2.4639,-2.4552,-2.5237,-2.5647,-2.5373,-2.598,-2.6453,-2.6418,0.0,0.0,-2.6808,-2.6808,-2.694,-2.7299,-2.7023,-2.6568,-2.597,-2.5985,-2.5985,-2.5985,-2.5856,-2.6226,-2.7103,-2.7023,-2.6992,-2.6859,-2.4829,-2.3964,0.0,0.0,0.0,0.0,0.0,0.0,0.0,0.0,0.0,0.0,0.0,0.0,0.0,0.0,0.0,-1.5448,-1.6645,-1.76,-1.7695,-1.8042,-1.8423,-1.8878,-1.894,-1.8971,-1.9065,-1.8854,-1.876,-1.8854,-1.9909,-2.06,-2.0687,-2.1416,-2.1922,-2.2026,-2.1412,-2.1117,-2.1227,-2.0824,-2.0613,-2.0601,0.0,0.0,-2.0237,-1.9372,-1.9227,-1.96,-1.9179,-1.9251,-1.9643,-1.9759,-2.0308,-2.1118,-2.1215,-2.1554,-2.2044,-2.2184,-2.2184,-2.2184,-2.2184,-2.2184,-2.2184,-2.2184,-2.2184,-2.2184,-2.2184,-2.2231,0.0,-2.2904,-2.3083,-2.3187,-2.3316,-2.3357,-2.337,-2.3546,-2.3648,-2.388,-2.4371,-2.4657,-2.4846,-2.4846,-2.4926,-2.5045,-2.5201,-2.5246,-2.5291,-2.5406,-2.5779,-2.6068,-2.6156,-2.6505,-2.6657,-2.6418,-2.6657,-2.6808,-2.6808,-2.6808,-2.694,-2.7299,-2.725,-2.7149,-2.7012,-2.7012,-2.7012,-2.7012,-2.6994,-2.7014,-2.7103,-2.7103,-2.7055,-2.6975,-2.6471,-2.6032,0.0,0.0,0.0,0.0,0.0,0.0,0.0,0.0,0.0,0.0,0.0,-1.5552,-1.5928,0.0,-1.6253,-1.6882,-1.7574,-1.8131,-1.8354,-1.8397,-1.8464,-1.8702,-1.8723,-1.8723,-1.8723,-1.8723,-1.8723,-1.8592,-1.9706,-2.0408,-2.0472,-2.1354,-2.1998,-2.2486,-2.1919,-2.1712,-2.1984,-2.1538,-2.1345,-2.1345,-2.0738,-2.056,-2.0848,-2.017,-2.0044,-2.0266,-1.9932,-1.9952,-2.0207,-2.051,-2.1104,-2.1902,-2.1841,-2.1949,-2.2184,-2.2184,-2.2184,-2.2184,-2.2184,-2.2184,-2.2231,-2.2278,-2.2449,-2.2603,-2.2694,-2.2995,-2.3376,-2.3694,-2.3879,-2.4105,-2.4245,-2.4287,-2.4328,-2.4492,-2.4549,-2.463,-2.4926,-2.5185,-2.5339,-2.5339,-2.5551,-2.5738,-2.5811,-2.5977,-2.6033,-2.5885,-2.6191,-2.6505,-2.659,-2.6875,-2.699,-2.6842,-2.6957,-2.7055,-2.7055,-2.7055,-2.7137,-2.7282,-2.7299,-2.7299,-2.7299,-2.7299,-2.7299,-2.7299,-2.7299,-2.7282,-2.7201,-2.7201,-2.7169,-2.7055,-2.7023,-2.6708,0.0,0.0,0.0,0.0,0.0,0.0,0.0,0.0,-1.71,-1.7154,-1.707,-1.7022,-1.7098,-1.7216,-1.7496,-1.8255,-1.8454,-1.8609,-1.8889,-1.8537,-1.8216,-1.8133,-1.8195,-1.8288,-1.8371,-1.864,-1.8733,-1.8526,-1.9493,-2.0227,-2.0504,-2.1209,-2.2093,-2.3053,-2.2593,-2.2521,-2.2896,-2.2367,-2.2085,-2.2085,-2.1646,-2.1492,-2.1579,-2.131,-2.1194,-2.1155,-2.0948,-2.0809,-2.0858,-2.141,-2.1949,-2.2417,-2.2324,-2.2278,-2.2278,-2.2231,-2.2231,-2.2231,-2.2231,-2.2278,-2.2324,-2.2495,-2.2785,-2.3069,-2.326,-2.3806,-2.4307,-2.443,-2.4704,-2.495,-2.5045,-2.5045,-2.5084,-2.5123,-2.5162,-2.5146,-2.5262,-2.5551,-2.5848,-2.5848,-2.6137,-2.6418,-2.6418,-2.6607,-2.6641,-2.6208,-2.659,-2.6891,-2.6891,-2.7137,-2.7299,-2.7299,-2.7299,-2.7299,-2.7299,-2.7299,-2.7299,-2.7299,-2.7299,-2.7313,-2.7376,-2.7376,-2.739,-2.7434,-2.7452,-2.7421,-2.7376,-2.7376,-2.7296,-2.7135,-2.7135,-2.6875,-2.1757,-2.0992,-2.0496,-1.9974,-1.9536,-1.943,0.0,0.0,-1.9001,-1.8779,-1.8723,-1.8512,-1.7759,-1.7946,-1.8255,-1.8371,-1.8723,-1.8868,-1.8506,-1.8081,-1.7595,-1.7183,-1.7492,-1.7957,-1.834,-1.8081,-1.8195,-1.894,-1.9308,-1.9939,-2.0957,-2.1661,-2.2372,-2.3065,-2.3015,-2.3015,-2.3078,-2.2907,-2.2761,-2.2822,-2.2647,-2.2853,-2.3301,-2.2865,-2.2578,-2.2472,-2.1884,-2.165,-2.1698,-2.2217,-2.2509,-2.2555,-2.2555,-2.2555,-2.2509,-2.2278,-2.2278,-2.237,-2.237,-2.2463,-2.2601,-2.3009,-2.3128,-2.326,-2.3709,-2.3879,-2.4048,-2.4511,-2.4712,-2.4823,-2.5162,-2.5256,-2.5317,-2.5551,-2.5626,-2.5738,-2.6156,-2.6262,-2.6314,-2.6314,-2.6349,-2.6418,-2.6418,-2.6607,-2.6791,-2.6708,-2.7023,-2.725,-2.725,-2.7299,-2.7299,-2.7299,-2.7299,-2.7299,-2.7299,-2.7299,-2.7299,-2.7299,-2.7299,-2.7421,-2.7659,-2.7642,-2.7771,-2.7992,-2.802,-2.7897,-2.7642,-2.7642,-2.7526,-2.7282,-2.7282,-2.7154,-2.2872,-2.2036,-2.1346,0.0,-2.0497,-2.001,-2.0484,-1.9987,-1.9383,-1.9371,-1.9297,-1.9067,-1.8419,-1.85,-1.8647,0.0,-1.894,-1.8909,-1.8444,-1.8009,-1.7503,-1.7038,-1.7152,-1.7512,-1.7957,-1.8071,-1.8371,-1.9023,-1.9533,-2.0209,-2.1049,-2.1741,-2.2421,-2.3065,-2.3078,-2.3078,-2.3078,-2.3017,-2.3017,-2.3017,-2.3005,-2.3077,-2.3327,-2.3421,-2.3309,-2.3109,-2.255,-2.2278,-2.2278,-2.2509,-2.2675,-2.2689,-2.2615,-2.2768,-2.3024,-2.2586,-2.2632,-2.2889,-2.2889,-2.3054,-2.3421,-2.3623,-2.3906,-2.4127,-2.4405,-2.4679,-2.4934,-2.5169,-2.5208,-2.5262,-2.5448,-2.5448,-2.5524,-2.5828,-2.5848,-2.5957,-2.6314,-2.6521,-2.6641,-2.6641,-2.6808,-2.6925,-2.6925,-2.7023,-2.7087,-2.7087,-2.7218,-2.7299,-2.7299,-2.7299,-2.7299,-2.7299,-2.7452,-2.7509,-2.7509,-2.7672,-2.7771,-2.7771,-2.7771,-2.7829,-2.7926,-2.7926,-2.801,-2.8102,-2.8102,-2.8047,-2.7926,-2.7771,-2.7642,-2.7526,-2.7376,-2.725,-2.3558,-2.2725,0.0,-2.1908,-2.1245,-2.057,-2.0523,-2.013,-1.9763,-1.9487,-1.9467,-1.939,-1.8817,-1.8873,-1.8998,-1.9154,-1.9207,-1.8984,-1.8448,-1.7947,-1.748,-1.7028,-1.6987,-1.7214,-1.7854,-1.8195,-1.8697,-1.9354,-1.9846,-2.0484,-2.1302,-2.1865,-2.2421,-2.3065,-2.3078,-2.3078,-2.3078,-2.3305,-2.3365,-2.3365,-2.3708,-2.3884,-2.3859,-2.3999,-2.3891,-2.3564,-2.2933,-2.2661,-2.2661,-2.2661,-2.2812,-2.2992,-2.2918,-2.3201,-2.3595,-2.3216,-2.3246,-2.3435,-2.3435,-2.3709,-2.4063,-2.4271,-2.4542,-2.4808,-2.5036,-2.5355,-2.5616,-2.5616,-2.5637,-2.5712,-2.5712,-2.5787,-2.5881,-2.6154,-2.6208,-2.6295,-2.6607,-2.6808,-2.694,-2.694,-2.7137,-2.7313,-2.739,-2.7421,-2.7452,-2.7496,-2.7526,-2.7465,-2.7313,-2.7299,-2.7313,-2.739,-2.7569,-2.773,-2.78,-2.7992,-2.8102,-2.8102,-2.8102,-2.8129,-2.8237,-2.8237,-2.8264,-2.836,-2.836,-2.8264,-2.8102,-2.7897,-2.7742,-2.76,-2.739,-2.7299,0.0,0.0,-2.1746,-2.1471,-2.1361,-2.1118,-2.0245,-2.0422,-2.0507,-1.93,-1.9483,-1.9608,-1.8747,-1.9029,-1.9356,-1.9378,-1.9378,-1.9141,-1.8337,-1.7828,-1.7364,-1.7046,-1.6987,-1.7327,0.0,-1.8371,-1.8891,-1.9998,-2.0107,-2.0666,-2.199,-2.2113,-2.2421,-2.3065,-2.3078,-2.3078,-2.3078,-2.3721,-2.4073,-2.406,-2.5272,-2.5839,-2.5797,-2.5077,-2.4452,-2.3847,-2.3163,-2.2888,-2.2888,-2.2888,-2.3142,-2.3551,-2.3551,-2.3867,-2.4261,-2.4261,-2.4162,-2.4063,-2.4063,-2.4162,-2.4343,-2.4759,-2.4863,-2.4997,-2.5432,-2.5578,-2.5616,-2.5616,-2.5787,-2.599,-2.599,-2.6173,-2.6453,-2.6708,-2.6791,-2.6858,-2.7218,-2.7299,-2.7282,-2.7282,-2.7282,-2.739,-2.7642,-2.7701,-2.7771,-2.8047,-2.8075,-2.7897,-2.7376,-2.7299,-2.739,-2.7672,-2.7701,-2.78,-2.8075,-2.8102,-2.8102,-2.8102,-2.8102,-2.8255,-2.8576,-2.8576,-2.8718,-2.897,-2.8952,-2.8676,-2.8102,-2.8102,-2.7829,-2.7313,-2.7282,-2.7299,-2.3407,0.0,-2.2095,-2.1983,-2.152,-2.097,-2.0422,-2.0412,-2.0295,-1.9466,-1.9178,-1.9027,-1.8677,-1.8899,-1.9149,-1.9102,-1.9093,-1.8858,-1.8254,-1.7891,-1.7509,-1.7077,-1.7564,0.0,0.0,0.0,0.0,-1.9354,-1.9846,-2.0484,-2.1376,-2.1865,-2.2421,-2.3065,-2.3078,-2.3078,-2.3078,-2.3767,-2.4131,-2.4118,-2.446,-2.4872,-2.5219,-2.412,-2.3683,-2.3847,-2.3163,-2.2888,-2.2888,-2.2888,-2.2978,-2.3187,-2.348,-2.3909,-2.4343,-2.4599,-2.4855,-2.5068,-2.4719,-2.4855,-2.5162,-2.5317,-2.5355,-2.5394,-2.5562,-2.5712,-2.5881,-2.5881,-2.6046,-2.626,-2.626,-2.6314,-2.6487,-2.6758,-2.6808,-2.6891,-2.7218,-2.7299,-2.7299,-2.7299,-2.7299,-2.7313,-2.7421,-2.7569,-2.78,-2.8075,-2.8102,-2.8047,-2.784,-2.7811,-2.7869,-2.7954,-2.8147,-2.8326,-2.843,-2.8583,-2.87,-2.87,-2.87,-2.8767,-2.8858,-2.8881,-2.8905,-2.8994,-2.904,-2.8934,-2.87,-2.8572,-2.8394,-2.8156,-2.7806,-2.7659,-2.3882,-2.3024,-2.2328,-2.2356,-2.1746,-2.1033,-2.0523,-2.0271,-2.0016,-1.9303,-1.8851,-1.846,-1.8149,-1.8778,-1.9159,-1.8532,-1.8775,-1.8849,-1.8353,-1.7936,-1.7606,-1.7533,-1.803,-1.8444,0.0,0.0,0.0,-1.9431,-2.0107,-2.0741,-2.1428,-2.2113,-2.2689,-2.3198,-2.3138,-2.3138,-2.321,-2.378,-2.4305,-2.4751,-2.4682,-2.4707,-2.4844,-2.3808,-2.3416,-2.3528,-2.3076,-2.2888,-2.2888,-2.2888,-2.3112,-2.3451,-2.3739,-2.4245,-2.4806,-2.5052,-2.5355,-2.5578,-2.5262,-2.5355,-2.5616,-2.5616,-2.5616,-2.5616,-2.5712,-2.5844,-2.601,-2.6118,-2.6349,-2.6556,-2.6556,-2.6624,-2.6775,-2.694,-2.6973,-2.7055,-2.725,-2.7299,-2.7313,-2.7421,-2.7434,-2.7496,-2.7719,-2.7989,-2.8219,-2.8386,-2.8412,-2.836,-2.8129,-2.8102,-2.8156,-2.8281,-2.8456,-2.8626,-2.8743,-2.8905,-2.8994,-2.8994,-2.8994,-2.8994,-2.8994,-2.8994,-2.8994,-2.8994,-2.904,-2.8998,-2.8881,-2.8755,-2.8639,-2.8464,-2.8147,-2.7954,-2.4287,-2.3246,-2.2314,-2.2603,-2.2016,-2.1166,-2.0573,-2.0105,-1.9604,-1.8946,-1.8464,-1.7963,-1.7324,0.0,-1.925,-1.7934,-1.8573,-1.9071,-1.8574,-1.8009,-1.7833,0.0,0.0,0.0,0.0,0.0,0.0,-2.0096,0.0,-2.1376,-2.2039,-2.275,-2.3198,-2.339,-2.321,-2.3258,-2.3463,-2.3956,-2.4808,-2.5934,-2.5839,-2.5473,-2.4863,-2.4196,-2.3543,-2.2888,-2.2888,-2.2888,-2.2933,-2.2933,-2.3494,-2.4302,-2.4302,-2.4831,-2.5578,-2.5578,-2.5616,-2.5616,-2.5616,-2.5616,-2.5616,-2.5616,-2.5616,-2.5675,-2.5954,-2.601,-2.6082,-2.6349,-2.6624,-2.6825,-2.6825,-2.7055,-2.7299,-2.7299,-2.7299,-2.7299,-2.7299,-2.7299,-2.7376,-2.7642,-2.7713,-2.7915,-2.85,-2.8791,-2.8994,-2.8994,-2.8994,-2.8791,-2.821,-2.8156,-2.8281,-2.8576,-2.8626,-2.8718,-2.8994,-2.8994,-2.8994,-2.8994,-2.8994,-2.8994,-2.8994,-2.8994,-2.8994,-2.9017,-2.9017,-2.8905,-2.8718,-2.8718,-2.8583,-2.835,-2.8324,-2.8237,-2.3779,-2.262,-2.1819,-2.2203,-2.1396,-2.0573,-2.0944,-2.0446,-1.9798,-1.9239,-1.8839,-1.829,-1.7101,-1.8449,0.0,-1.8301,-1.8646,0.0,-1.9533,-1.8796,0.0,-1.905,0.0,-1.9706,-1.9835,-1.9911,0.0,0.0,-2.0933,-2.1376,-2.1939,-2.258,-2.315,-2.3509,-2.3509,-2.3721,-2.4234,-2.5119,-2.592,-2.6553,-2.6046,-2.5458,-2.4771,-2.4181,-2.3543,-2.2888,-2.2888,-2.3098,-2.3436,-2.3436,-2.3782,-2.4343,-2.4639,-2.4879,-2.513,-2.5486,-2.5712,-2.5881,-2.5881,-2.5881,-2.5881,-2.5881,-2.6046,-2.6208,-2.6279,-2.6453,-2.6607,-2.6691,-2.694,-2.7169,-2.7169,-2.725,-2.7299,-2.7299,-2.7299,-2.7299,-2.7299,-2.7299,-2.7376,-2.7642,-2.7869,-2.812,-2.8525,-2.8669,-2.8767,-2.897,-2.8994,-2.8929,-2.8791,-2.8749,-2.8791,-2.8881,-2.8905,-2.8947,-2.8994,-2.8994,-2.8994,-2.8994,-2.8994,-2.8994,-2.8994,-2.8994,-2.9017,-2.9067,-2.9112,-2.9112,-2.9067,-2.9156,-2.9134,-2.8962,-2.8785,-2.8713,-2.2087,-2.1533,-2.1287,-2.1301,-2.1015,-2.0723,-2.0759,-2.0016,-1.9242,-1.8792,-1.8201,-1.7379,-1.6368,-1.7846,0.0,0.0,0.0,0.0,-1.9788,-1.934,-1.9007,0.0,-1.9738,0.0,-1.9715,-2.0042,-2.042,0.0,-2.1187,-2.169,-2.2175,-2.2823,-2.339,-2.37,-2.3628,-2.3897,-2.4509,-2.5287,-2.596,-2.6472,-2.6046,-2.5458,-2.4771,-2.4181,-2.3666,-2.3187,0.0,-2.348,-2.3909,-2.3909,-2.4162,-2.4599,-2.4926,-2.5198,-2.5422,-2.5696,-2.5954,-2.6154,-2.6046,-2.6137,-2.6314,-2.6208,-2.6279,-2.6418,-2.6556,-2.6691,-2.6825,-2.6973,-2.7201,-2.7407,-2.7407,-2.7407,-2.739,-2.7465,-2.7465,-2.7496,-2.7539,-2.763,-2.7789,-2.8083,-2.836,-2.8608,-2.8743,-2.8845,-2.8938,-2.8975,-2.9089,-2.9138,-2.916,-2.9067,-2.8994,-2.8994,-2.8994,-2.8994,-2.8994,-2.8994,-2.8994,-2.8994,-2.8994,-2.9017,-2.904,-2.9017,-2.9062,-2.9134,-2.9156,-2.9197,-2.924,-2.9323,-2.9326,-2.9283,-2.9119,-2.9071,-1.9353,-1.9736,-2.0112,-2.0015,-2.0406,-2.0683,-2.0029,-1.9073,-1.8263,-1.7829,0.0,-1.6005,-1.5274,-1.6876,-1.8012,-1.6994,0.0,-1.9836,-1.9791,-1.9736,-1.9539,-1.9264,-1.9846,-1.9977,-1.933,-2.0118,-2.0677,-2.0673,-2.1346,-2.2017,-2.2493,-2.3056,-2.3469,-2.367,-2.3573,-2.3819,-2.4389,-2.4872,-2.5423,-2.5994,-2.5798,-2.5378,-2.4786,-2.4232,-2.3879,-2.3681,0.0,0.0,-2.4385,-2.4385,-2.4655,-2.5036,-2.5297,-2.5652,-2.601,-2.6046,-2.6208,-2.6418,-2.6189,-2.6453,-2.6858,-2.6556,-2.6487,-2.6556,-2.6825,-2.6873,-2.6956,-2.7264,-2.7452,-2.7509,-2.7539,-2.7569,-2.76,-2.776,-2.7771,-2.7829,-2.7926,-2.8129,-2.8342,-2.8651,-2.891,-2.9089,-2.904,-2.9181,-2.9228,-2.9089,-2.9206,-2.9334,-2.9434,-2.9203,-2.9044,-2.9071,-2.9089,-2.9089,-2.9089,-2.9089,-2.9089,-2.9071,-2.9067,-2.9067,-2.9156,-2.9067,-2.9085,-2.92,-2.9175,-2.9197,-2.9323,-2.9323,-2.9344,-2.9407,-2.9407,-2.9323,-1.5185,-1.6031,-1.6125,-1.8489,-1.8484,-1.797,-1.8058,-1.7793,0.0,0.0,-1.5987,-1.5581,-1.404,-1.5264,-1.6628,-1.6802,-1.7892,-1.9244,-2.0707,-2.0366,-1.9977,0.0,-2.0571,-2.07,-1.9977,-2.0635,0.0,0.0,0.0,-2.1416,-2.1905,-2.1926,-2.215,-2.2646,-2.3071,-2.3487,-2.3998,-2.4535,-2.5012,-2.546,-2.5249,-2.4996,-2.4716,-2.4536,-2.4386,-2.4177,-2.4256,0.0,-2.4799,-2.4934,-2.5146,-2.5524,-2.5775,-2.5937,-2.601,-2.6243,-2.6521,-2.6708,-2.6691,-2.6989,-2.7324,-2.6891,-2.6908,-2.7169,-2.7341,-2.7386,-2.7417,-2.7582,-2.7642,-2.7701,-2.7858,-2.7915,-2.7954,-2.8156,-2.8192,-2.8192,-2.8219,-2.841,-2.8628,-2.8676,-2.8943,-2.9178,-2.9156,-2.92,-2.9228,-2.9336,-2.9358,-2.9456,-2.9625,-2.9416,-2.9316,-2.9495,-2.9514,-2.9494,-2.9494,-2.9494,-2.9494,-2.9514,-2.9395,-2.9332,-2.9338,-2.9228,-2.9197,-2.9262,-2.928,-2.9283,-2.9386,-2.9386,-2.9386,-2.9407,-2.9407,-2.9386,-0.6895,-0.847,-0.9581,-1.382,-1.5172,-1.5535,-1.6028,0.0,0.0,0.0,-1.4517,-1.4082,-1.3218,-1.4188,0.0,-1.5417,-1.6944,-1.8585,-2.0008,-2.025,0.0,-2.0479,-2.0921,-2.0892,0.0,-2.0764,0.0,0.0,0.0,-2.1226,-2.1699,-2.1898,-2.2143,-2.2387,-2.2871,-2.3414,-2.3925,-2.4404,-2.4852,-2.5369,-2.5175,-2.4882,-2.4462,-2.4687,-2.4661,-2.4477,-2.4704,0.0,-2.5705,-2.5758,-2.5961,-2.628,-2.659,-2.6691,-2.6691,-2.6824,-2.7019,-2.7258,-2.7115,-2.7289,-2.7569,-2.7352,-2.7369,-2.7539,-2.7701,-2.776,-2.78,-2.7964,-2.8075,-2.8156,-2.8237,-2.8246,-2.8316,-2.8515,-2.8615,-2.8688,-2.8803,-2.892,-2.9016,-2.9092,-2.9235,-2.9375,-2.9455,-2.9551,-2.9588,-2.9551,-2.9642,-2.9746,-2.9845,-2.9729,-2.9661,-2.966,-2.9661,-2.9662,-2.9662,-2.9662,-2.9643,-2.966,-2.9588,-2.957,-2.9607,-2.9514,-2.9455,-2.9453,-2.9414,-2.9392,-2.9407,-2.9407,-2.9407,-2.9407,-2.9407,-2.9407,0.2217,0.0237,-0.1809,-0.7558,-0.998,-1.1368,-1.2915,-1.2972,0.0,-1.2926,-1.2602,-1.2266,-1.2143,-1.2765,-1.3451,0.0,-1.5607,-1.7456,-1.9078,-1.9788,-2.0303,0.0,-2.1057,0.0,-2.0161,-2.0673,0.0,0.0,0.0,0.0,-2.1444,-2.1861,-2.2021,-2.2048,-2.2405,-2.2913,-2.3612,-2.3858,-2.4346,-2.5062,-2.4882,-2.4589,-2.4193,-2.4623,-2.4791,-2.4759,-2.5192,0.0,0.0,-2.6401,-2.6624,-2.6937,-2.7192,-2.7303,-2.7303,-2.7365,-2.7535,-2.7654,-2.7457,-2.7565,-2.776,-2.7818,-2.7818,-2.78,-2.8,-2.8093,-2.8156,-2.8368,-2.8478,-2.8554,-2.8621,-2.8646,-2.867,-2.8868,-2.903,-2.9163,-2.9328,-2.939,-2.9453,-2.957,-2.9588,-2.9625,-2.9713,-2.9864,-2.9931,-2.9815,-2.9912,-3.0037,-3.0075,-3.008,-3.0022,-2.9864,-2.9832,-2.9815,-2.9815,-2.9815,-2.9832,-2.9832,-2.9799,-2.9799,-2.9848,-2.9801,-2.9732,-2.9681,-2.9607,-2.957,-2.9511,-2.9451,-2.945,-2.945,-2.9409,-2.9407,1.0154,0.8685,0.699,0.0282,-0.1501,-0.281,-0.7421,0.0,-1.0013,-0.9157,-0.9939,-1.0514,-0.9894,-1.0148,-1.0918,0.0,0.0,0.0,-1.8796,-1.9183,-1.9571,-2.074,0.0,0.0,-2.0161,-2.0358,0.0,0.0,0.0,0.0,-2.0755,-2.0819,-2.0869,-2.0856,-2.0906,-2.1395,-2.2437,-2.2352,-2.289,-2.3963,-2.3747,-2.3818,-2.4128,-2.4472,-2.4862,-2.524,-2.5717,0.0,0.0,-2.6488,-2.6657,-2.6937,-2.7192,-2.7303,-2.7334,-2.7565,-2.7672,-2.7701,-2.7654,-2.7806,-2.7996,-2.8191,-2.8128,-2.8027,-2.8201,-2.8352,-2.8504,-2.8707,-2.8773,-2.8821,-2.898,-2.9026,-2.9089,-2.9304,-2.9453,-2.9551,-2.957,-2.9716,-2.9853,-2.9869,-2.9869,-2.9869,-2.9886,-2.9902,-2.9931,-3.0052,-3.0095,-3.0169,-3.0343,-3.0355,-3.0355,-3.0343,-3.0292,-3.0234,-3.0234,-3.0234,-3.0247,-3.0248,-3.0133,-3.0075,-3.0061,-2.9946,-2.9886,-2.9869,-2.9869,-2.9869,-2.9853,-2.9662,-2.957,-2.957,-2.9451,-2.9407,1.5901,1.52,1.4354,0.8026,0.6558,0.512,-0.077,0.0,-0.3449,-0.693,-0.7916,-0.8238,-0.8398,-0.879,-0.9268,0.0,-1.1418,-1.3332,-1.5449,-1.655,-1.7915,-1.9923,-2.0108,0.0,0.0,0.0,0.0,0.0,0.0,0.0,-2.0649,-2.0699,-2.0848,-2.1082,-2.141,-2.189,-2.2649,-2.29,-2.323,-2.3688,-2.3613,-2.3782,-2.4204,-2.4599,-2.502,-2.546,-2.612,0.0,0.0,-2.7115,-2.7396,-2.7683,-2.7789,-2.7847,-2.7876,-2.8101,-2.8183,-2.821,-2.8326,-2.8404,-2.8474,-2.8551,-2.8626,-2.8676,-2.8767,-2.8839,-2.8897,-2.9093,-2.9156,-2.9178,-2.9262,-2.9283,-2.9304,-2.9386,-2.9492,-2.9608,-2.9608,-2.9769,-2.9934,-3.0007,-3.0022,-3.0071,-3.0174,-3.0188,-3.0234,-3.0267,-3.0286,-3.0311,-3.0398,-3.0398,-3.0398,-3.0398,-3.0386,-3.0362,-3.0362,-3.0362,-3.0355,-3.0367,-3.0318,-3.0273,-3.0286,-3.0234,-3.0128,-3.0022,-3.0022,-2.9977,-2.9902,-2.982,-2.9786,-2.9786,-2.9735,-2.9699,2.1005,2.1031,2.0554,1.5291,1.4147,1.2344,0.4945,0.3271,0.1578,-0.4409,-0.5948,-0.6355,-0.6894,-0.7367,-0.7767,0.0,-0.9596,-1.1442,-1.3231,-1.469,-1.6435,0.0,0.0,0.0,0.0,0.0,0.0,0.0,0.0,0.0,-2.0435,-2.0649,-2.0848,-2.118,-2.1801,-2.2325,-2.2649,-2.3143,-2.3508,-2.3824,-2.3824,-2.409,-2.4648,-2.5028,-2.5433,-2.5875,0.0,0.0,0.0,-2.7595,-2.7893,-2.8182,-2.8182,-2.8182,-2.8209,-2.8432,-2.8492,-2.8518,-2.8743,-2.8797,-2.8815,-2.8863,-2.898,-2.9112,-2.9175,-2.9197,-2.9218,-2.9365,-2.9429,-2.9451,-2.9451,-2.9511,-2.955,-2.955,-2.9644,-2.975,-2.975,-2.9918,-3.0071,-3.0169,-3.0196,-3.0241,-3.0386,-3.0398,-3.0398,-3.0398,-3.0398,-3.0421,-3.0436,-3.0436,-3.0439,-3.0471,-3.0439,-3.0425,-3.041,-3.0398,-3.0398,-3.0398,-3.0398,-3.0398,-3.0398,-3.0398,-3.0323,-3.0196,-3.0196,-3.0142,-3.006,-2.9996,-2.9946,-2.9965,-2.9918,-2.9902,2.5744,2.6315,2.547,2.1894,2.1152,1.878,0.913,0.6016,0.3786,-0.1144,-0.3853,-0.5325,-0.5325,-0.5665,-0.6396,-0.7762,-0.8127,-0.952,-1.3179,-1.4079,-1.5276,0.0,0.0,0.0,0.0,0.0,0.0,0.0,0.0,0.0,-2.0003,-2.0435,-2.0699,-2.0699,-2.1743,-2.224,-2.2081,-2.2649,-2.3377,-2.4302,-2.4302,-2.4688,-2.5389,-2.5826,-2.6197,0.0,0.0,0.0,0.0,-2.7701,-2.7893,-2.8182,-2.8182,-2.8182,-2.8209,-2.8432,-2.8492,-2.8518,-2.8743,-2.8797,-2.8821,-2.9021,-2.9089,-2.9152,-2.9344,-2.9407,-2.9407,-2.9407,-2.9492,-2.9608,-2.9608,-2.9751,-2.9886,-2.9886,-2.9992,-3.0089,-3.0089,-3.0254,-3.0398,-3.0398,-3.0398,-3.0398,-3.0398,-3.0398,-3.0398,-3.0398,-3.0398,-3.0425,-3.0482,-3.0501,-3.0518,-3.0586,-3.0535,-3.0472,-3.041,-3.0398,-3.0398,-3.0398,-3.0398,-3.0398,-3.0398,-3.0398,-3.0398,-3.0398,-3.0398,-3.0398,-3.0398,-3.0196,-3.0109,-3.0089,-2.9946,-2.9902,2.4444,2.5625,2.6313,2.538,2.5876,2.42,1.5023,1.2692,1.0161,0.2096,-0.0666,-0.1801,-0.2332,-0.3732,-0.4931,-0.5256,-0.6635,0.0,0.0,0.0,0.0,-1.5642,-1.8011,0.0,0.0,0.0,0.0,0.0,0.0,0.0,-1.994,-2.054,-2.1079,-2.1636,-2.2007,-2.2465,-2.3143,-2.3595,-2.4009,-2.4302,-2.4574,-2.5105,-2.5826,-2.595,0.0,0.0,0.0,0.0,0.0,-2.795,-2.8191,-2.8406,-2.8406,-2.8492,-2.8644,-2.8858,-2.8957,-2.9012,-2.9206,-2.9351,-2.9431,-2.9491,-2.9451,-2.9412,-2.9626,-2.9608,-2.957,-2.9699,-2.9769,-2.9803,-2.9803,-2.9853,-2.9902,-2.9902,-3.0007,-3.0109,-3.0109,-3.0254,-3.0398,-3.0398,-3.0398,-3.0398,-3.0398,-3.0398,-3.0398,-3.0398,-3.0402,-3.0417,-3.043,-3.0471,-3.054,-3.0598,-3.0588,-3.0549,-3.0472,-3.0436,-3.0398,-3.0398,-3.0398,-3.0398,-3.0398,-3.0398,-3.0398,-3.0398,-3.0398,-3.0398,-3.0398,-3.0343,-3.0311,-3.0299,-3.026,-3.0174,0.0,2.5336,2.6488,2.7031,2.7958,2.6945,2.0005,1.8331,1.5726,0.6797,0.3808,0.2194,0.0,-0.1867,-0.3309,-0.406,-0.5422,0.0,0.0,0.0,0.0,-1.4513,0.0,0.0,0.0,0.0,0.0,0.0,0.0,0.0,-1.9759,-2.0656,-2.1479,-2.2142,-2.24,-2.2787,-2.3392,-2.4036,-2.4426,-2.463,-2.4942,-2.5582,-2.6437,-2.6437,0.0,0.0,0.0,0.0,0.0,-2.8136,-2.8362,-2.8533,-2.8558,-2.8707,-2.892,-2.9138,-2.9246,-2.9312,-2.9532,-2.9663,-2.9755,-2.9789,-2.9753,-2.9716,-2.9902,-2.9836,-2.9751,-2.9869,-2.995,-2.9996,-2.9996,-3.0026,-3.009,-3.009,-3.0142,-3.0222,-3.0253,-3.0344,-3.0439,-3.0439,-3.0451,-3.0462,-3.0439,-3.0469,-3.0479,-3.0479,-3.0486,-3.0483,-3.0505,-3.0546,-3.0607,-3.0694,-3.0664,-3.0613,-3.0587,-3.0519,-3.0471,-3.0482,-3.0471,-3.0471,-3.0482,-3.046,-3.0439,-3.0439,-3.0414,-3.0398,-3.0398,-3.0398,-3.0398,-3.0398,-3.0398,-3.0323,0.0,2.547,2.6266,2.7144,2.7893,2.7461,2.3751,2.2613,0.0,1.2586,0.9448,0.6761,0.2336,0.0392,-0.125,-0.3563,-0.4289,0.0,0.0,0.0,0.0,0.0,0.0,0.0,0.0,0.0,0.0,0.0,0.0,0.0,-1.942,-2.0759,-2.1779,-2.2314,-2.288,-2.3191,-2.3172,-2.4021,-2.4639,-2.5169,-2.5427,-2.6142,-2.7244,-2.7244,0.0,0.0,0.0,0.0,0.0,-2.8309,-2.8482,-2.8676,-2.873,-2.8915,-2.9193,-2.9375,-2.9434,-2.9493,-2.9732,-2.9834,-2.9851,-2.9977,-3.0007,-3.0052,-3.0163,-3.0066,-2.9934,-2.9934,-3.0022,-3.0136,-3.0136,-3.0267,-3.041,-3.041,-3.0398,-3.0433,-3.0482,-3.052,-3.051,-3.051,-3.0552,-3.0576,-3.0519,-3.0557,-3.0602,-3.0602,-3.0588,-3.064,-3.0693,-3.0703,-3.0761,-3.0873,-3.0785,-3.0714,-3.0704,-3.0633,-3.0599,-3.0593,-3.0607,-3.0599,-3.06,-3.0543,-3.051,-3.051,-3.0439,-3.039,-3.0398,-3.0398,-3.0398,-3.0398,-3.0398,-3.0398,2.4863,0.0,2.6556,2.7004,2.7823,2.758,0.0,2.2949,2.1594,1.6949,0.0,1.301,0.9177,0.6812,0.4166,0.0145,-0.142,-0.3353,-0.6575,0.0,0.0,0.0,0.0,0.0,0.0,0.0,0.0,0.0,0.0,-1.9251,-1.9708,-2.0308,-2.1286,-2.2558,-2.2838,-2.3215,-2.3797,-2.4302,-2.4887,-2.555,-2.595,-2.6656,-2.7672,-2.7672,0.0,0.0,0.0,0.0,-2.8902,-2.8902,-2.9049,-2.9283,-2.9303,-2.9514,-2.978,-2.9832,-2.988,-2.9943,-3.0003,-3.0099,-3.0161,-3.0095,-3.0182,-3.0305,-3.0278,-3.0213,-3.0163,-3.0316,-3.0383,-3.0414,-3.0479,-3.051,-3.0552,-3.0556,-3.0544,-3.0556,-3.056,-3.0588,-3.0583,-3.0583,-3.0588,-3.0598,-3.0587,-3.0591,-3.0605,-3.0594,-3.0639,-3.0683,-3.069,-3.0698,-3.073,-3.0815,-3.0806,-3.0801,-3.0858,-3.0703,-3.061,-3.0607,-3.0595,-3.0595,-3.0606,-3.0581,-3.0583,-3.0583,-3.0519,-3.046,-3.0398,-3.0398,-3.0398,-3.0398,-3.0398,-3.0398,2.5269,2.5928,2.6707,2.7021,2.7683,2.7846,2.6132,0.0,0.0,0.0,0.0,1.7667,1.1958,0.9393,0.6554,0.1775,-0.0149,0.0,0.0,0.0,0.0,0.0,0.0,0.0,0.0,0.0,0.0,0.0,0.0,-1.9004,0.0,-2.0534,-2.15,-2.2754,-2.3304,-2.3752,-2.4082,-2.4655,-2.516,-2.5566,-2.6248,-2.6935,-2.7624,-2.7771,-2.8129,0.0,0.0,0.0,-2.9086,-2.9126,-2.9319,-2.9586,-2.9623,-2.9848,-3.0133,-3.0133,-3.0161,-3.0202,-3.0235,-3.0316,-3.0433,-3.0352,-3.0425,-3.0535,-3.0498,-3.046,-3.0443,-3.0519,-3.0548,-3.0537,-3.0584,-3.0598,-3.0604,-3.0606,-3.0597,-3.0616,-3.0635,-3.0653,-3.0658,-3.0652,-3.0689,-3.0723,-3.0652,-3.0695,-3.0745,-3.0735,-3.0774,-3.0785,-3.0785,-3.0794,-3.0807,-3.0838,-3.0843,-3.0852,-3.0891,-3.0771,-3.0695,-3.0742,-3.0742,-3.0745,-3.0743,-3.0672,-3.0628,-3.0607,-3.05,-3.046,-3.0449,-3.0414,-3.0398,-3.0398,-3.0398,-3.0398,2.5684,2.6156,2.6725,2.7117,2.7547,2.8075,2.8742,0.0,0.0,0.0,0.0,0.0,0.0,1.221,0.0,0.0,0.0,0.0,0.0,0.0,0.0,0.0,0.0,0.0,0.0,0.0,0.0,0.0,0.0,-1.8768,0.0,-2.0756,-2.1758,-2.2785,-2.3664,-2.4116,-2.4208,-2.5059,-2.554,-2.5672,-2.6556,-2.722,-2.7631,-2.7908,-2.8306,0.0,0.0,0.0,-2.9256,-2.9316,-2.9514,-2.981,-2.9864,-3.0085,-3.0362,-3.0362,-3.0362,-3.0343,-3.0406,-3.05,-3.0607,-3.0615,-3.0643,-3.0701,-3.0704,-3.0727,-3.0703,-3.0653,-3.0627,-3.0617,-3.0626,-3.064,-3.0633,-3.0647,-3.0658,-3.0658,-3.0716,-3.0735,-3.072,-3.0735,-3.0818,-3.0868,-3.075,-3.082,-3.0903,-3.0903,-3.0896,-3.0898,-3.0898,-3.0898,-3.0898,-3.0898,-3.0899,-3.0891,-3.0898,-3.0853,-3.0846,-3.089,-3.0888,-3.0897,-3.0901,-3.0784,-3.0687,-3.0623,-3.049,-3.0472,-3.0519,-3.0451,-3.0436,-3.0414,-3.0414,-3.0402,2.5738,2.603,2.6487,2.7053,2.7595,2.8065,2.8414,0.0,0.0,0.0,0.0,0.0,0.0,0.0,0.0,0.0,0.0,0.0,0.0,0.0,0.0,0.0,0.0,0.0,0.0,0.0,0.0,0.0,0.0,0.0,0.0,-1.9825,-2.1064,-2.2515,-2.2727,-2.3274,-2.4261,-2.5357,-2.6232,-2.6836,-2.7226,-2.7812,-2.8603,-2.8628,-2.8915,0.0,0.0,-2.9588,-2.995,-2.995,-3.008,-3.0278,-3.0309,-3.0417,-3.054,-3.054,-3.054,-3.0559,-3.0579,-3.0588,-3.0606,-3.0671,-3.0686,-3.0703,-3.0768,-3.078,-3.0784,-3.0833,-3.0778,-3.0691,-3.075,-3.0771,-3.0785,-3.0843,-3.0857,-3.0857,-3.0876,-3.0876,-3.0877,-3.0879,-3.0898,-3.0898,-3.0876,-3.0897,-3.0898,-3.0898,-3.0898,-3.0898,-3.0898,-3.0898,-3.0898,-3.0898,-3.0898,-3.0898,-3.0898,-3.0898,-3.0889,-3.0906,-3.0852,-3.084,-3.0892,-3.0871,-3.0813,-3.0681,-3.0656,-3.0626,-3.0579,-3.0564,-3.0535,-3.0472,-3.0472,-3.0441,2.6472,2.6522,2.6607,2.7365,2.7577,2.7713,2.8309,0.0,0.0,0.0,0.0,0.0,0.0,0.0,0.0,0.0,0.0,0.0,0.0,0.0,0.0,0.0,0.0,0.0,0.0,0.0,0.0,0.0,0.0,0.0,0.0,0.0,-2.0743,-2.2529,-2.3054,-2.3788,-2.4941,-2.6059,-2.6556,-2.6522,-2.7395,-2.8031,-2.8428,-2.8761,-2.9089,-2.9458,0.0,-2.9867,-3.0213,-3.0213,-3.0286,-3.0398,-3.0433,-3.0507,-3.0598,-3.0636,-3.0656,-3.0656,-3.0656,-3.0675,-3.0713,-3.0739,-3.0779,-3.0807,-3.0839,-3.0858,-3.0854,-3.0895,-3.0864,-3.0819,-3.0845,-3.0856,-3.0856,-3.0897,-3.0898,-3.0898,-3.0898,-3.0875,-3.0852,-3.0852,-3.0813,-3.0799,-3.0799,-3.0799,-3.0808,-3.0839,-3.0813,-3.0827,-3.0898,-3.0879,-3.0859,-3.0898,-3.0898,-3.0898,-3.0898,-3.0898,-3.0897,-3.0903,-3.0864,-3.087,-3.0897,-3.0839,-3.0792,-3.081,-3.0711,-3.0642,-3.0652,-3.0617,-3.0575,-3.054,-3.0548,-3.0535,2.6956,2.6992,2.6923,2.7678,2.7577,2.7526,2.8515,0.0,0.0,0.0,0.0,0.0,0.0,0.0,0.0,0.0,0.0,0.0,0.0,0.0,0.0,0.0,0.0,0.0,0.0,0.0,0.0,0.0,0.0,0.0,0.0,0.0,-2.0079,-2.2179,-2.2848,-2.3921,-2.5484,-2.6472,-2.6835,-2.6605,-2.7763,-2.835,-2.8485,-2.8925,-2.9277,-2.9532,-2.9731,-3.0,-3.0305,-3.0305,-3.0374,-3.0488,-3.0532,-3.0578,-3.0629,-3.0687,-3.0707,-3.0699,-3.0713,-3.0752,-3.079,-3.0816,-3.0849,-3.0873,-3.0876,-3.0876,-3.0847,-3.0859,-3.0856,-3.0855,-3.0864,-3.085,-3.0856,-3.0856,-3.0856,-3.0856,-3.0856,-3.0818,-3.0768,-3.0781,-3.0734,-3.0709,-3.0709,-3.0709,-3.0721,-3.078,-3.0739,-3.0747,-3.0841,-3.0813,-3.0797,-3.0856,-3.0856,-3.0857,-3.0879,-3.0873,-3.087,-3.0898,-3.0898,-3.0898,-3.0898,-3.0801,-3.0799,-3.0903,-3.0754,-3.0706,-3.0743,-3.0708,-3.0648,-3.0624,-3.0617,-3.0626,2.6468,2.6953,2.7512,2.7823,2.7619,0.0,2.9101,2.9575,0.0,0.0,0.0,0.0,0.0,0.0,0.0,0.0,0.0,0.0,0.0,0.0,0.0,0.0,0.0,0.0,0.0,0.0,0.0,0.0,0.0,0.0,0.0,0.0,0.0,-2.0855,-2.0987,-2.2437,-2.5373,-2.6148,-2.7161,-2.834,-2.8737,-2.9144,-2.9476,-2.9551,-2.9681,-2.9872,-2.9888,-3.0057,-3.0294,-3.0294,-3.0451,-3.0685,-3.0685,-3.07,-3.0697,-3.0697,-3.0697,-3.07,-3.0776,-3.0791,-3.0815,-3.0877,-3.0856,-3.0806,-3.0812,-3.0755,-3.0716,-3.0704,-3.072,-3.0735,-3.0781,-3.0756,-3.072,-3.072,-3.072,-3.072,-3.072,-3.0711,-3.0703,-3.0711,-3.0704,-3.0703,-3.0703,-3.0703,-3.0703,-3.072,-3.0704,-3.0695,-3.0718,-3.071,-3.072,-3.072,-3.072,-3.0749,-3.08,-3.0803,-3.0827,-3.0898,-3.0898,-3.0898,-3.0898,-3.0898,-3.0898,-3.0894,-3.0889,-3.0884,-3.0899,-3.0877,-3.0816,-3.0699,-3.0699,-3.0661,2.6853,2.7068,2.7169,2.826,0.0,0.0,0.0,0.0,0.0,0.0,0.0,0.0,0.0,0.0,0.0,0.0,0.0,0.0,0.0,0.0,0.0,0.0,0.0,0.0,0.0,0.0,0.0,0.0,0.0,0.0,0.0,0.0,0.0,-1.9597,-2.1131,-2.2714,-2.4309,-2.6364,-2.7906,-2.8997,-2.9045,-2.9135,-2.9282,-2.9639,-2.9859,-3.0024,-3.0196,-3.0371,-3.0546,-3.0543,-3.0587,-3.0641,-3.0641,-3.0655,-3.0698,-3.0698,-3.0698,-3.07,-3.0722,-3.074,-3.0742,-3.0767,-3.0754,-3.0743,-3.0731,-3.0729,-3.07,-3.07,-3.0661,-3.0645,-3.0713,-3.0709,-3.07,-3.07,-3.07,-3.07,-3.07,-3.0661,-3.0645,-3.0635,-3.0636,-3.0636,-3.0636,-3.0636,-3.0636,-3.0636,-3.064,-3.0637,-3.0684,-3.066,-3.0642,-3.07,-3.07,-3.0704,-3.0749,-3.0735,-3.0749,-3.0761,-3.0804,-3.0859,-3.0898,-3.0898,-3.0898,-3.0898,-3.0891,-3.0901,-3.0899,-3.0892,-3.0876,-3.0818,-3.0814,-3.0819,2.6913,2.7247,2.7451,0.0,0.0,0.0,0.0,0.0,0.0,0.0,0.0,0.0,0.0,0.0,0.0,0.0,0.0,0.0,0.0,0.0,0.0,0.0,0.0,0.0,0.0,0.0,0.0,0.0,0.0,0.0,0.0,0.0,0.0,0.0,-1.9069,-2.1254,-2.3971,-2.5924,-2.7731,-2.9385,-2.9387,-2.937,-2.94,-2.9787,-3.0009,-3.0115,-3.0317,-3.047,-3.0603,-3.0611,-3.062,-3.0635,-3.0635,-3.0661,-3.0691,-3.0691,-3.0691,-3.0691,-3.0691,-3.0665,-3.0637,-3.0698,-3.0652,-3.0618,-3.0664,-3.0617,-3.0568,-3.0568,-3.0509,-3.0458,-3.0497,-3.0588,-3.0646,-3.0598,-3.0568,-3.0558,-3.0527,-3.0477,-3.0439,-3.0439,-3.0439,-3.0439,-3.0439,-3.0439,-3.0439,-3.0439,-3.0439,-3.0458,-3.0497,-3.0509,-3.054,-3.0656,-3.0675,-3.0671,-3.0665,-3.0671,-3.0671,-3.0704,-3.0725,-3.078,-3.0832,-3.0832,-3.0832,-3.0849,-3.0839,-3.0839,-3.0837,-3.0839,-3.0836,-3.0832,-3.0835,-3.0839,2.6551,2.7476,2.8448,0.0,0.0,0.0,0.0,0.0,0.0,0.0,0.0,0.0,0.0,0.0,0.0,0.0,0.0,0.0,0.0,0.0,0.0,0.0,0.0,0.0,0.0,0.0,0.0,0.0,0.0,0.0,0.0,0.0,0.0,0.0,-1.3998,-1.7466,-2.4448,-2.459,-2.63,-2.9543,-2.9803,-2.9958,-3.0,-3.0067,-3.0104,-3.0109,-3.0174,-3.0279,-3.0403,-3.0398,-3.0506,-3.0685,-3.0694,-3.0694,-3.0694,-3.0694,-3.0694,-3.0694,-3.0694,-3.0606,-3.0521,-3.0644,-3.0554,-3.0424,-3.0549,-3.0471,-3.0294,-3.0294,-3.0196,-3.0109,-3.0109,-3.0352,-3.053,-3.0348,-3.0294,-3.0259,-3.0117,-3.0109,-3.0109,-3.0109,-3.0109,-3.0109,-3.0109,-3.0109,-3.0109,-3.0109,-3.0109,-3.0109,-3.0109,-3.0222,-3.0359,-3.0569,-3.0598,-3.0598,-3.0598,-3.0598,-3.0636,-3.0694,-3.0636,-3.0626,-3.0701,-3.0706,-3.0701,-3.07,-3.07,-3.0691,-3.0701,-3.0701,-3.0707,-3.0706,-3.0706,-3.0711,2.6581,2.7262,0.0,0.0,0.0,0.0,0.0,0.0,0.0,0.0,0.0,0.0,0.0,0.0,0.0,0.0,0.0,0.0,0.0,0.0,0.0,0.0,0.0,0.0,0.0,0.0,0.0,0.0,0.0,0.0,0.0,0.0,0.0,0.0,-0.8602,-1.2757,-1.1694,-1.7161,-2.1804,-2.5516,-2.4596,-2.6217,-3.0004,-3.0251,-3.0405,-3.0448,-3.0476,-3.0331,-3.0095,-2.9713,-2.9576,-2.9664,-2.9839,-2.9923,-2.9937,-3.019,-3.0279,-3.0279,-3.0279,-3.0247,-3.0218,-3.0273,-3.0241,-3.0202,-3.0235,-3.0203,-3.0157,-3.0157,-3.0131,-3.0109,-3.0109,-3.0177,-3.0228,-3.0171,-3.0157,-3.0144,-3.0122,-3.0109,-3.0109,-3.0109,-3.0109,-3.0109,-3.0109,-3.0109,-3.0109,-3.0109,-3.0109,-3.0109,-3.0109,-3.0131,-3.0171,-3.0228,-3.026,-3.026,-3.026,-3.0325,-3.0389,-3.0409,-3.0389,-3.0472,-3.0696,-3.0704,-3.0696,-3.0707,-3.0707,-3.0704,-3.0695,-3.0695,-3.0707,-3.0704,-3.0696,-3.0696,2.7006,2.7618,0.0,2.8777,0.0,0.0,0.0,0.0,0.0,0.0,0.0,0.0,0.0,0.0,0.0,0.0,0.0,0.0,0.0,0.0,0.0,0.0,0.0,0.0,0.0,0.0,0.0,0.0,0.0,0.0,0.0,0.0,0.0,0.0,-0.0334,-0.4341,-0.4402,-1.0412,-1.5547,-1.9719,-2.0162,-2.2647,-2.6878,-2.8357,-2.9072,-2.9143,-2.9529,-2.9608,-2.9454,-2.914,-2.9082,-2.9209,-2.9383,-2.9436,-2.9472,-2.9666,-2.9801,-2.9901,-2.9901,-2.9905,-2.9958,-3.0018,-3.0003,-2.9958,-3.0052,-3.0003,-2.9908,-2.9807,-2.9777,-2.9763,-2.9585,-2.9585,-2.9691,-2.9962,-3.0007,-3.0011,-2.995,-2.9934,-2.9918,-2.9832,-2.9815,-2.9929,-3.0234,-3.0042,-3.0078,-3.0793,-3.062,-3.0311,-3.0045,-3.0007,-3.0037,-3.0075,-3.0109,-3.0109,-3.0109,-3.0171,-3.0222,-3.0222,-3.0222,-3.0297,-3.0444,-3.0463,-3.0463,-3.0463,-3.0463,-3.0497,-3.0539,-3.0497,-3.0497,-3.0539,-3.0497,-3.0463,2.758,0.0,0.0,2.8791,2.8644,0.0,0.0,0.0,0.0,0.0,0.0,0.0,0.0,0.0,0.0,0.0,0.0,0.0,0.0,0.0,0.0,0.0,0.0,0.0,0.0,0.0,0.0,0.0,0.0,0.0,0.0,0.0,0.0,1.02,0.9162,0.5718,-0.0367,-0.3955,-0.8161,0.0,-1.5783,-1.8669,-2.1579,-2.4866,-2.6567,-2.6936,-2.7652,-2.8179,-2.8448,-2.8343,-2.847,-2.8759,-2.888,-2.892,-2.892,-2.9037,-2.9251,-2.9456,-2.9456,-2.9494,-2.9568,-2.9742,-2.9674,-2.9568,-2.9742,-2.9674,-2.9495,-2.9266,-2.92,-2.9129,-2.8795,-2.8795,-2.9045,-2.9662,-2.9786,-2.977,-2.9645,-2.9626,-2.9569,-2.9373,-2.9353,-2.9632,-3.0405,-2.9943,-3.0006,-3.164,-3.1235,-3.0527,-2.9993,-2.9859,-2.9907,-3.0183,-3.017,-3.0147,-3.0113,-3.0238,-3.0233,-3.008,-3.0138,-3.0157,-3.008,-3.0075,-3.0109,-3.0109,-3.0109,-3.0157,-3.0283,-3.0157,-3.0157,-3.0283,-3.0157,-3.0109,2.7027,2.773,0.0,0.0,2.8237,2.8083,0.0,0.0,0.0,0.0,0.0,0.0,0.0,0.0,0.0,0.0,0.0,0.0,0.0,0.0,0.0,0.0,0.0,0.0,0.0,0.0,0.0,0.0,0.0,0.0,0.0,0.0,0.0,2.1121,1.2755,0.8567,0.9281,0.4164,-0.1887,0.0,-0.7978,-1.1006,-1.74,-2.1281,-2.4462,-2.6845,-2.6004,-2.6068,-2.6666,-2.5597,-2.5228,-2.5353,-2.6373,-2.6766,-2.6874,-2.7817,-2.8218,-2.8268,-2.8268,-2.8286,-2.8286,-2.836,-2.8336,-2.8286,-2.836,-2.8336,-2.8304,-2.8458,-2.8518,-2.8555,-2.8682,-2.8724,-2.8795,-2.8915,-2.896,-2.8938,-2.8911,-2.8997,-2.902,-2.8865,-2.902,-2.9385,-3.0083,-3.006,-3.0055,-3.0332,-2.9789,-2.951,-2.9995,-2.9518,-2.9591,-3.0909,-3.0702,-3.043,-3.0273,-3.1261,-3.1341,-3.0029,-3.0541,-3.0598,-2.9972,-3.0037,-3.0109,-3.0109,-3.0109,-3.0103,-3.0144,-3.0103,-3.0103,-3.0131,-3.0103,-3.0109,2.7276,0.0,0.0,2.8264,0.0,0.0,2.7971,0.0,0.0,0.0,0.0,0.0,0.0,0.0,0.0,0.0,0.0,0.0,0.0,0.0,0.0,0.0,0.0,0.0,0.0,0.0,0.0,0.0,0.0,0.0,0.0,2.4391,2.3344,2.4515,1.8344,1.5089,1.5318,0.9935,0.4617,-0.0511,-0.2751,-0.7,-1.2995,-1.7738,-2.1558,-2.4358,-2.3686,-2.3709,-2.4211,-2.3798,-2.3687,-2.39,-2.4847,-2.5196,-2.5268,-2.5899,-2.6199,-2.6375,-2.6826,-2.7073,-2.7251,-2.7695,-2.786,-2.786,-2.786,-2.786,-2.7832,-2.7885,-2.7931,-2.7958,-2.7911,-2.7911,-2.7956,-2.7883,-2.8288,-2.87,-2.87,-2.8748,-2.8748,-2.8578,-2.8676,-2.9107,-3.021,-3.1117,-3.1271,-3.0097,-2.9935,-2.9966,-2.9996,-2.9631,-2.985,-3.1031,-3.095,-3.0746,-3.0632,-3.1321,-3.1365,-3.049,-3.0825,-3.0863,-3.0453,-3.0166,-2.9964,-2.9905,-2.9817,-2.9832,-2.9992,-2.9815,-2.9796,-2.9943,-2.9727,-2.9623,2.7473,0.0,2.8445,2.8255,2.8422,0.0,2.8,0.0,0.0,0.0,0.0,0.0,0.0,0.0,0.0,0.0,0.0,0.0,0.0,0.0,0.0,0.0,0.0,0.0,0.0,0.0,0.0,0.0,0.0,0.0,2.6506,2.5815,2.5006,2.4035,2.2702,2.0777,1.8219,1.3478,0.9702,0.6791,0.013,-0.4964,-0.8663,-1.3772,-1.7824,-2.0887,-2.0772,-2.1101,-2.1744,-2.21,-2.2366,-2.2657,-2.3242,-2.3579,-2.3692,-2.3856,-2.4115,-2.4503,-2.5285,-2.571,-2.605,-2.6995,-2.7295,-2.7295,-2.7295,-2.7343,-2.7347,-2.7009,-2.7057,-2.7123,-2.6839,-2.6856,-2.6922,-2.6791,-2.7502,-2.8234,-2.8417,-2.8529,-2.8504,-2.8316,-2.8424,-2.8945,-3.022,-3.1812,-3.2216,-3.0242,-3.0504,-3.0767,-3.0232,-3.0051,-3.0305,-3.1184,-3.1202,-3.1157,-3.113,-3.1311,-3.131,-3.101,-3.1146,-3.1109,-3.0836,-3.0217,-2.9774,-2.9531,-2.9353,-2.9415,-2.9697,-2.9377,-2.9338,-2.9606,-2.9217,-2.9042,0.0,0.0,2.7755,0.0,2.8316,2.8324,0.0,0.0,0.0,0.0,0.0,0.0,0.0,0.0,0.0,0.0,0.0,0.0,0.0,0.0,0.0,0.0,0.0,0.0,0.0,0.0,0.0,0.0,0.0,0.0,2.561,2.554,2.4436,2.215,2.0649,1.8824,1.6613,1.3576,1.0118,0.6227,-0.0392,-0.4077,-0.5078,-0.8346,-1.2705,-1.7669,-1.6904,-1.7961,-2.0122,-1.9405,-1.9209,-1.943,-2.0309,-2.105,-2.1718,-2.2526,-2.3152,-2.358,-2.3705,-2.3773,-2.3979,-2.4891,-2.5207,-2.5207,-2.5207,-2.5464,-2.5697,-2.5131,-2.5277,-2.5644,-2.5826,-2.5898,-2.5898,-2.5862,-2.6007,-2.6371,-2.7365,-2.7847,-2.8035,-2.7829,-2.8499,-2.9136,-2.9284,-3.0196,-3.0677,-3.0154,-3.0264,-3.0622,-3.1222,-3.0693,-3.0787,-3.224,-3.2086,-3.1791,-3.1613,-3.256,-3.2557,-3.1083,-3.171,-3.1518,-3.009,-2.9944,-2.9564,-2.8837,-2.8795,-2.8819,-2.887,-2.8819,-2.88,-2.8847,-2.8777,-2.8748,2.7005,2.7789,2.8587,0.0,2.8819,2.8883,2.8772,0.0,0.0,0.0,0.0,0.0,0.0,0.0,0.0,0.0,0.0,0.0,0.0,0.0,0.0,0.0,0.0,0.0,0.0,0.0,0.0,0.0,0.0,2.5647,2.5262,2.4697,2.3628,2.2024,2.058,1.8839,1.6655,1.3747,0.9724,0.4634,0.1449,-0.0791,-0.2093,-0.367,-0.7451,-1.2694,-1.3115,-1.3941,-1.511,-1.5741,-1.6038,-1.6186,-1.7625,-1.8331,-1.8646,-1.9078,-1.9648,-2.0234,-2.0724,-2.1131,-2.1574,-2.2527,-2.3093,-2.3408,-2.3408,-2.3804,-2.4265,-2.3989,-2.4071,-2.425,-2.438,-2.4626,-2.487,-2.487,-2.4971,-2.5277,-2.6073,-2.6472,-2.6738,-2.6886,-2.8075,-2.9151,-2.94,-3.061,-3.1359,-3.0806,-3.0637,-3.0742,-3.1258,-3.0896,-3.1058,-3.235,-3.2338,-3.2207,-3.211,-3.2588,-3.2495,-3.1558,-3.1841,-3.1767,-3.1062,-3.0053,-2.9435,-2.9249,-2.8774,-2.8578,-2.87,-2.859,-2.859,-2.8628,-2.8453,-2.8358,0.0,0.0,2.9233,2.9241,2.9524,2.9715,0.0,0.0,0.0,0.0,0.0,0.0,0.0,0.0,0.0,0.0,0.0,0.0,0.0,0.0,0.0,0.0,0.0,0.0,0.0,0.0,0.0,0.0,0.0,2.4997,2.4744,2.3888,2.2922,2.1923,2.0529,1.8855,1.6991,1.3449,0.9238,0.4558,0.3317,0.2125,0.0929,-0.0465,-0.3138,-0.676,-0.8974,-1.0212,-1.0765,-1.2506,-1.3245,-1.3414,-1.4677,-1.5519,-1.5946,-1.5946,-1.6549,-1.7423,-1.8102,-1.873,-1.9459,-2.0408,-2.1137,-2.1685,-2.1685,-2.2243,-2.2864,-2.2613,-2.2775,-2.2966,-2.2966,-2.3258,-2.3576,-2.3634,-2.3758,-2.4143,-2.501,-2.5589,-2.6052,-2.6341,-2.7626,-2.8772,-2.9124,-3.047,-3.1286,-3.0663,-3.057,-3.0671,-3.087,-3.0707,-3.0893,-3.1699,-3.1804,-3.1804,-3.1804,-3.1804,-3.1677,-3.1418,-3.1511,-3.1517,-3.1328,-2.9966,-2.923,-2.9281,-2.847,-2.8121,-2.8262,-2.8174,-2.8147,-2.8174,-2.802,-2.788,0.0,2.8704,0.0,2.9528,0.0,0.0,0.0,0.0,0.0,0.0,0.0,0.0,0.0,0.0,0.0,0.0,0.0,0.0,0.0,0.0,0.0,0.0,0.0,0.0,0.0,0.0,0.0,0.0,0.0,2.4792,2.3819,2.3359,2.2505,2.1126,1.9622,1.8354,1.7213,1.2321,0.9035,0.7325,0.4172,0.333,0.4408,0.0465,-0.0731,0.0066,-0.4361,-0.7225,-0.8945,-1.0431,-1.1157,-1.1258,-1.1372,-1.2514,-1.4145,-1.4145,-1.5223,-1.6682,-1.6716,-1.7137,-1.7858,-1.8733,-1.951,-1.9999,-1.9999,-2.0748,-2.1423,-2.0529,-2.0997,-2.1791,-2.1791,-2.1838,-2.1838,-2.1974,-2.2021,-2.2579,-2.45,-2.5821,-2.664,-2.6678,-2.7283,-2.7767,-2.7807,-2.8452,-2.8968,-2.8936,-2.9543,-3.0044,-3.007,-3.0044,-3.0061,-3.0136,-3.0136,-3.0136,-3.0136,-3.0136,-3.0136,-3.0093,-3.0501,-3.0459,-2.9733,-2.9386,-2.8886,-2.8186,-2.7432,-2.7085,-2.7085,-2.7324,-2.7324,-2.7085,-2.7324,-2.7293,0.0,0.0,0.0,2.976,3.0135,3.022,0.0,0.0,0.0,0.0,0.0,0.0,0.0,0.0,0.0,0.0,0.0,0.0,0.0,0.0,0.0,0.0,0.0,0.0,0.0,0.0,0.0,0.0,0.0,0.0,2.3651,2.3478,2.2577,2.0877,2.0293,1.8601,1.5703,1.3032,1.0795,0.8931,0.7164,0.6343,0.626,0.3987,0.3193,0.346,-0.0066,-0.2954,-0.5319,-0.7085,-0.7866,-0.7989,-0.9277,-1.0158,-1.0891,-1.1645,-1.2619,-1.3578,-1.4359,-1.5051,-1.5688,-1.5987,-1.6806,-1.7716,-1.7716,-1.8572,-1.9506,-1.9165,-1.9633,-2.0194,-2.0194,-2.0743,-2.1353,-2.1745,-2.2087,-2.2595,-2.3421,-2.4545,-2.5499,-2.5795,-2.6879,-2.7844,-2.8082,-2.8932,-2.9573,-2.9573,-2.9632,-2.9767,-2.9966,-2.9794,-2.9751,-2.9966,-3.0009,-3.0009,-3.0009,-3.0009,-2.9923,-2.968,-3.0159,-2.9972,-2.8927,-2.8481,-2.7849,-2.7085,-2.6122,-2.6087,-2.7006,-2.7103,-2.7103,-2.7006,-2.7103,-2.7103,2.8898,0.0,0.0,0.0,0.0,3.0408,3.0376,0.0,0.0,0.0,0.0,0.0,0.0,0.0,0.0,0.0,0.0,0.0,0.0,0.0,0.0,0.0,0.0,0.0,0.0,0.0,0.0,0.0,0.0,0.0,2.3187,2.3009,2.2025,2.0105,1.9634,1.8093,1.5283,1.3681,1.2058,1.0454,0.9433,0.8431,0.7507,0.6248,0.5592,0.5266,0.2858,0.0399,-0.2003,-0.4191,-0.512,-0.5252,-0.6551,-0.7459,-0.8115,-0.8937,-0.9882,-1.0947,-1.1981,-1.2732,-1.333,-1.3597,-1.4405,-1.5312,-1.5312,-1.6331,-1.7467,-1.7467,-1.8209,-1.8951,-1.8951,-1.9554,-2.0246,-2.0756,-2.1275,-2.1891,-2.2411,-2.3642,-2.4783,-2.5165,-2.6284,-2.7235,-2.7488,-2.8062,-2.8529,-2.8529,-2.8325,-2.8278,-2.8436,-2.831,-2.8278,-2.8436,-2.8483,-2.8483,-2.8483,-2.8483,-2.8451,-2.8419,-2.8902,-2.8828,-2.8012,-2.7418,-2.6761,-2.6061,-2.493,-2.4815,-2.5724,-2.6214,-2.6522,-2.6725,-2.6607,-2.6573,0.0,0.0,0.0,0.0,0.0,0.0,0.0,0.0,0.0,0.0,0.0,0.0,0.0,0.0,0.0,0.0,0.0,0.0,0.0,0.0,0.0,0.0,0.0,0.0,0.0,0.0,0.0,0.0,0.0,2.2979,2.2314,2.1866,2.0752,1.8821,1.7589,1.6729,1.6171,1.4013,1.2684,1.2035,1.0711,0.947,0.8231,0.7071,0.6217,0.5643,0.438,0.2723,0.0732,-0.1936,-0.308,-0.308,-0.3149,-0.4334,-0.604,-0.604,-0.727,-0.896,-0.9666,-1.0342,-1.1016,-1.168,-1.2358,-1.283,-1.283,-1.4046,-1.5436,-1.5436,-1.6669,-1.7972,-1.805,-1.8213,-1.8437,-1.8904,-1.9517,-2.031,-2.1448,-2.3188,-2.4593,-2.4847,-2.5376,-2.5783,-2.5783,-2.5673,-2.5563,-2.5563,-2.5563,-2.5563,-2.5398,-2.5508,-2.5563,-2.5398,-2.5398,-2.5398,-2.5398,-2.5398,-2.5673,-2.6229,-2.6686,-2.6941,-2.6912,-2.6306,-2.5649,-2.4991,-2.3917,-2.3284,-2.3198,-2.4547,-2.554,-2.6132,-2.5742,-2.5668,2.8946,0.0,0.0,0.0,0.0,0.0,0.0,0.0,0.0,0.0,0.0,0.0,0.0,0.0,0.0,0.0,0.0,0.0,0.0,0.0,0.0,0.0,0.0,0.0,0.0,0.0,0.0,0.0,2.329,2.2603,2.2035,2.0966,2.008,1.9527,1.7961,1.7045,1.6877,1.5419,1.4305,1.3588,1.2464,1.148,1.0571,0.9227,0.8586,0.8329,0.6794,0.5672,0.4555,0.1059,-0.0399,-0.0598,-0.2473,-0.3547,-0.4138,-0.5183,-0.5825,-0.6323,-0.7624,-0.8531,-0.9186,-0.9509,-1.0385,-1.1319,-1.1512,-1.2485,-1.3647,-1.3647,-1.4264,-1.5351,-1.6937,-1.8013,-1.877,-1.9333,-1.984,-2.0375,-2.0877,-2.1669,-2.2752,-2.43,-2.5121,-2.5508,-2.5508,-2.5453,-2.5453,-2.5453,-2.5453,-2.5453,-2.5398,-2.5453,-2.5453,-2.5398,-2.5398,-2.5398,-2.5398,-2.5398,-2.5453,-2.5618,-2.6115,-2.5825,-2.4568,-2.4713,-2.4109,-2.2683,-2.2346,-2.2338,-2.264,-2.3385,-2.402,-2.4449,-2.48,-2.4989,2.9062,2.8766,0.0,0.0,0.0,0.0,0.0,3.0497,0.0,0.0,0.0,0.0,0.0,0.0,0.0,0.0,0.0,0.0,0.0,0.0,0.0,0.0,0.0,0.0,0.0,2.4395,0.0,2.3952,2.3319,2.2603,2.1813,2.0746,1.9773,1.9073,1.7841,1.6978,1.6472,1.5748,1.505,1.4341,1.3717,1.2793,1.1578,1.0829,1.0205,0.964,0.8692,0.804,0.7395,0.495,0.3175,0.1725,-0.02,-0.1201,-0.1732,-0.2926,-0.3654,-0.4246,-0.5748,-0.6607,-0.7075,-0.7733,-0.8762,-0.9781,-0.9844,-1.0968,-1.2166,-1.2166,-1.2805,-1.3751,-1.5172,-1.6028,-1.6637,-1.7155,-1.7539,-1.8109,-1.9225,-1.9734,-2.064,-2.2857,-2.3585,-2.3807,-2.3807,-2.3748,-2.3748,-2.3748,-2.3995,-2.4124,-2.404,-2.431,-2.4509,-2.4439,-2.4439,-2.4439,-2.4439,-2.4439,-2.4553,-2.4851,-2.5107,-2.4722,-2.3489,-2.352,-2.2876,-2.1355,-2.1148,-2.1183,-2.1411,-2.2186,-2.2774,-2.3128,-2.3701,-2.4066,2.9255,2.8899,0.0,0.0,3.058,0.0,3.1504,3.0974,3.0529,0.0,0.0,0.0,0.0,0.0,0.0,0.0,0.0,0.0,0.0,0.0,0.0,0.0,0.0,0.0,2.5278,2.4719,2.4199,2.3782,2.3319,2.2589,2.1554,2.0908,1.9799,1.8186,1.7567,1.6754,1.57,1.5526,1.5186,1.4647,1.4588,1.3726,1.2128,1.2074,1.1392,1.0205,1.0205,0.9894,0.9274,0.8765,0.6837,0.4122,0.3205,0.1999,0.073,-0.0134,-0.1272,-0.2542,-0.3735,-0.4535,-0.514,-0.6268,-0.7312,-0.8091,-0.7972,-0.9302,-1.0815,-1.0878,-1.1826,-1.2854,-1.3131,-1.3316,-1.3557,-1.395,-1.4295,-1.5002,-1.6937,-1.7586,-1.8358,-2.0459,-2.1141,-2.1416,-2.1416,-2.1302,-2.125,-2.125,-2.1815,-2.2175,-2.1978,-2.2689,-2.3078,-2.2884,-2.2884,-2.2884,-2.2884,-2.2884,-2.3113,-2.3695,-2.3761,-2.3516,-2.2911,-2.2551,-2.1839,-2.0723,-2.0321,-2.008,-1.9888,-2.1002,-2.171,-2.1946,-2.2581,-2.3025,2.9252,2.9372,2.9308,2.9576,0.0,0.0,3.0794,3.0637,3.0462,0.0,0.0,0.0,0.0,0.0,0.0,0.0,0.0,0.0,0.0,0.0,0.0,0.0,0.0,0.0,2.5185,2.4558,2.3979,2.3493,2.2603,2.1732,2.1006,2.0547,1.9888,1.8987,1.8104,1.749,1.7268,1.6285,1.573,1.5614,1.505,1.461,1.4305,1.3777,1.2862,1.164,1.164,1.071,0.9274,0.921,0.8517,0.7569,0.7338,0.502,0.1664,0.04,-0.0267,-0.0536,-0.0804,-0.248,-0.4506,-0.497,-0.5282,-0.5588,-0.6264,-0.7246,-0.828,-0.8865,-1.0412,-1.1948,-1.2402,-1.3341,-1.4236,-1.4301,-1.4665,-1.4985,-1.5019,-1.5386,-1.5852,-1.626,-1.8502,-2.0289,-2.0289,-2.0289,-2.0289,-2.0289,-2.0899,-2.1313,-2.1313,-2.1439,-2.1502,-2.1502,-2.1502,-2.1502,-2.1502,-2.1502,-2.1565,-2.1678,-2.1765,-2.1611,-2.1043,-2.1041,-2.0714,-2.0016,-1.9901,-1.9656,-1.9198,-2.0295,-2.0832,-2.093,-2.1568,-2.1899,2.9377,2.9484,2.9558,2.9997,0.0,0.0,0.0,3.0647,3.0574,3.0505,0.0,0.0,0.0,0.0,0.0,0.0,0.0,0.0,0.0,0.0,0.0,0.0,0.0,0.0,2.524,2.4815,2.4173,2.3172,2.2328,2.1506,2.066,2.0359,1.9798,1.8881,1.8375,1.7929,1.7644,1.6775,1.6343,1.6343,1.57,1.5225,1.4904,1.4323,1.3476,1.2389,1.2151,1.1288,1.004,0.9773,0.935,0.8809,0.8068,0.6506,0.4403,0.2743,0.2142,0.1939,0.0469,-0.0602,-0.1604,-0.295,-0.4018,-0.4806,-0.5269,-0.6195,-0.7274,-0.7768,-0.8997,-1.0244,-1.0786,-1.1403,-1.2066,-1.2431,-1.2527,-1.2732,-1.3399,-1.387,-1.4324,-1.4964,-1.6131,-1.7154,-1.7494,-1.7562,-1.7562,-1.7562,-1.8445,-1.9052,-1.9052,-1.9955,-2.0429,-2.0062,-2.0353,-2.0429,-1.9998,-1.9998,-1.9998,-1.9998,-2.0076,-1.9806,-1.9019,-1.9101,-1.8894,-1.8466,-1.8768,-1.8963,-1.8987,-1.9552,-1.9952,-2.0207,-2.0534,-2.0832,0.0,0.0,0.0,0.0,0.0,3.0779,0.0,0.0,0.0,3.0689,0.0,0.0,0.0,0.0,0.0,0.0,0.0,0.0,0.0,0.0,0.0,0.0,0.0,0.0,0.0,2.5042,2.4242,2.2975,2.2259,2.1444,2.0472,2.0321,1.9747,1.8578,1.8471,1.8135,1.7523,1.6989,1.6729,1.6729,1.6249,1.572,1.5157,1.4805,1.4085,1.3053,1.2528,1.1794,1.085,1.0338,0.9831,0.9268,0.7942,0.7302,0.6968,0.5239,0.4431,0.4015,0.1941,0.1271,0.0934,-0.1071,-0.2878,-0.4348,-0.4607,-0.5554,-0.661,-0.703,-0.7747,-0.8577,-0.9083,-0.9285,-0.9469,-1.0132,-0.9999,-1.0077,-1.1579,-1.2064,-1.251,-1.3584,-1.3461,-1.3556,-1.4688,-1.4901,-1.4901,-1.4901,-1.5844,-1.6656,-1.6656,-1.8034,-1.8843,-1.8205,-1.8787,-1.9007,-1.8358,-1.8435,-1.8502,-1.8502,-1.8471,-1.8117,-1.7328,-1.7256,-1.7061,-1.6746,-1.7379,-1.7907,-1.8298,-1.8405,-1.8939,-1.9798,-1.9798,-2.0055,0.0,0.0,0.0,0.0,3.0711,0.0,0.0,0.0,3.0772,3.0711,0.0,0.0,0.0,0.0,0.0,0.0,0.0,0.0,0.0,0.0,0.0,0.0,0.0,0.0,0.0,0.0,2.3406,2.3279,2.2152,2.114,2.0422,2.051,1.9991,1.8804,1.8363,1.7875,1.7257,1.6684,1.6431,1.6431,1.6374,1.6316,1.6249,1.6192,1.5439,1.42,1.3391,1.235,1.1114,1.0634,1.0268,0.9831,0.8765,0.7992,0.733,0.6005,0.5005,0.4414,0.5333,0.323,0.0134,-0.0134,-0.1205,-0.2681,-0.4231,-0.4904,-0.5258,-0.6043,-0.7033,-0.787,-0.807,-0.8361,-0.8576,-0.8888,-0.8912,-0.8841,-0.8874,-0.8883,-0.8974,-0.912,-0.9653,-1.0995,-1.3628,-1.414,-1.414,-1.414,-1.483,-1.5309,-1.5309,-1.552,-1.5651,-1.5511,-1.6105,-1.6401,-1.6332,-1.6835,-1.712,-1.712,-1.6917,-1.6689,-1.6592,-1.6435,-1.6083,-1.5515,-1.6105,-1.6218,-1.5746,-1.6275,-1.7652,-1.9798,-1.9798,-1.985,0.0,0.0,0.0,0.0,0.0,0.0,3.0732,0.0,3.0781,0.0,0.0,0.0,0.0,0.0,0.0,0.0,0.0,0.0,0.0,0.0,0.0,0.0,0.0,0.0,0.0,0.0,0.0,0.0,0.0,2.0633,1.9656,1.9656,1.9279,1.8417,1.8201,1.7984,1.7699,1.7168,1.6842,1.6842,1.6534,1.6384,1.6384,1.6144,1.5584,1.4836,1.4195,1.3528,1.2777,1.1997,1.1578,1.1329,1.0325,0.9116,0.7767,0.6523,0.5866,0.547,0.5236,0.4359,0.2945,0.0737,-0.0402,-0.1005,-0.1744,-0.3179,-0.4674,-0.5167,-0.5636,-0.6193,-0.7151,-0.7415,-0.7702,-0.8237,-0.8084,-0.7927,-0.8304,-0.838,-0.8456,-0.8542,-0.8765,-0.9357,-1.0697,-1.1298,-1.1601,-1.1601,-1.2164,-1.2743,-1.3273,-1.3988,-1.4283,-1.3867,-1.4434,-1.4657,-1.4243,-1.4458,-1.4514,-1.4369,-1.3882,-1.3834,-1.4303,-1.4259,-1.4218,-1.4255,-1.4885,-1.5226,-1.5284,-1.5553,-1.6377,-1.7707,-1.8454,-1.898,3.0402,0.0,0.0,0.0,0.0,0.0,0.0,0.0,0.0,0.0,0.0,0.0,0.0,0.0,0.0,0.0,0.0,0.0,0.0,0.0,0.0,0.0,0.0,0.0,0.0,0.0,0.0,0.0,0.0,0.0,1.9408,1.9198,1.8857,1.8201,1.8038,1.7886,1.7667,1.7224,1.7,1.7,1.6591,1.6384,1.6384,1.6029,1.5778,1.5468,1.4942,1.4519,1.4273,1.3425,1.2818,1.2389,1.1571,1.0305,0.8784,0.7558,0.6981,0.6654,0.5397,0.5143,0.4888,0.2079,0.0872,0.0536,0.0134,-0.1484,-0.3363,-0.3877,-0.4447,-0.5097,-0.6103,-0.6409,-0.656,-0.7249,-0.7092,-0.6857,-0.7553,-0.7621,-0.7617,-0.7778,-0.7851,-0.7846,-0.7859,-0.8775,-0.9539,-0.9533,-0.9895,-1.034,-1.087,-1.181,-1.2171,-1.1613,-1.2171,-1.2458,-1.2131,-1.2211,-1.227,-1.2025,-1.1601,-1.1528,-1.1909,-1.2045,-1.2228,-1.2512,-1.3053,-1.3451,-1.3835,-1.3954,-1.435,-1.5138,-1.6749,-1.7795,0.0,0.0,0.0,3.0441,0.0,0.0,0.0,0.0,3.081,0.0,0.0,0.0,0.0,0.0,0.0,0.0,0.0,0.0,0.0,0.0,0.0,0.0,0.0,0.0,0.0,0.0,0.0,0.0,0.0,0.0,2.0182,1.9772,1.9174,1.834,1.7929,1.729,1.6488,1.6431,1.6441,1.6441,1.6431,1.6384,1.6384,1.6374,1.6384,1.6316,1.5536,1.5177,1.5108,1.4647,1.3614,1.2266,1.2051,1.1432,1.0577,0.9348,0.8522,0.7827,0.6911,0.5595,0.4345,0.4169,0.3226,0.181,0.0402,-0.0273,-0.0771,-0.1876,-0.3558,-0.5022,-0.5074,-0.5029,-0.5185,-0.5575,-0.5562,-0.5559,-0.5808,-0.564,-0.5398,-0.5398,-0.6009,-0.6391,-0.5789,-0.7403,-0.8699,-0.8456,-0.8456,-0.838,-0.8232,-0.8232,-0.8304,-0.8232,-0.8737,-0.9326,-0.9938,-1.0536,-1.084,-1.0886,-1.0842,-1.0594,-1.013,-1.0276,-1.0282,-1.0148,-1.0142,-1.0142,-1.0199,-1.0514,-1.1246,-1.2387,-1.5023,-1.6244,0.0,0.0,3.0568,3.0549,0.0,0.0,0.0,0.0,0.0,0.0,0.0,0.0,0.0,0.0,0.0,0.0,0.0,0.0,0.0,0.0,0.0,0.0,0.0,0.0,0.0,0.0,0.0,0.0,2.0954,0.0,0.0,1.954,1.9004,1.805,1.7886,1.7512,1.692,1.692,1.692,1.692,1.6987,1.6987,1.692,1.692,1.692,1.692,1.6457,1.6056,1.5758,1.5059,1.4291,1.3502,1.3122,1.2251,1.1142,1.0066,0.9233,0.8458,0.7242,0.6195,0.5272,0.4544,0.3951,0.3491,0.3023,0.1419,-0.0275,-0.079,-0.1317,-0.1936,-0.3024,-0.3368,-0.3368,-0.3522,-0.3521,-0.3834,-0.5026,-0.5422,-0.5497,-0.5491,-0.541,-0.5372,-0.5464,-0.61,-0.6825,-0.7302,-0.7395,-0.7544,-0.8003,-0.808,-0.808,-0.808,-0.8223,-0.8447,-0.8675,-0.8641,-0.8628,-0.8759,-0.8748,-0.8904,-0.9288,-0.9492,-0.9811,-1.0217,-1.0046,-1.0135,-1.0367,-1.0264,-1.0417,-1.0968,-1.1732,-1.3374,3.037,3.0481,0.0,3.0574,3.0626,0.0,3.0672,0.0,0.0,0.0,0.0,0.0,0.0,0.0,0.0,0.0,0.0,0.0,0.0,2.6198,0.0,0.0,0.0,0.0,0.0,0.0,2.1712,2.1423,0.0,0.0,0.0,0.0,1.8963,1.8061,1.7909,1.7634,1.719,1.719,1.719,1.7256,1.7267,1.7256,1.719,1.719,1.719,1.719,1.7032,1.674,1.6446,1.5931,1.5157,1.4323,1.4016,1.3105,1.1826,1.0892,0.9939,0.8918,0.7767,0.7051,0.6523,0.5522,0.5071,0.4824,0.4498,0.3086,0.1355,0.0708,0.065,0.0514,-0.1146,-0.1632,-0.1643,-0.1644,-0.1643,-0.1879,-0.2978,-0.3923,-0.4474,-0.4467,-0.4253,-0.4227,-0.5002,-0.5266,-0.5622,-0.6234,-0.6328,-0.6483,-0.6934,-0.7011,-0.7011,-0.7011,-0.7011,-0.7088,-0.7318,-0.7216,-0.7149,-0.7216,-0.7201,-0.7412,-0.7865,-0.8163,-0.8467,-0.8863,-0.8724,-0.8867,-0.9388,-0.9192,-0.9336,-0.9892,-0.9762,-1.1107]}]]